<?xml version='1.0' encoding='UTF-8'?><gpx version="1.1" creator="JPX - https://github.com/jenetics/jpx" xmlns="http://www.topografix.com/GPX/1/1"><trk><trkseg><trkpt lat="50.77666684847048" lon="15.742555609659172"><ele>681.0000000000001</ele><time>2026-04-04T04:49:50Z</time></trkpt><trkpt lat="50.77661246865399" lon="15.742499630054601"><ele>681.0</ele><time>2026-04-04T04:49:57Z</time></trkpt><trkpt lat="50.776550404793035" lon="15.74245778950998"><ele>681.0</ele><time>2026-04-04T04:50:04Z</time></trkpt><trkpt lat="50.776487407606076" lon="15.742415689393498"><ele>681.0</ele><time>2026-04-04T04:50:06Z</time></trkpt><trkpt lat="50.77646079954135" lon="15.742311835028277"><ele>681.0</ele><time>2026-04-04T04:50:19.999Z</time></trkpt><trkpt lat="50.77644164457874" lon="15.742197499391292"><ele>681.0000000000001</ele><time>2026-04-04T04:50:25.999Z</time></trkpt><trkpt lat="50.776396335092834" lon="15.742128084367602"><ele>681.0</ele><time>2026-04-04T04:50:30.999Z</time></trkpt><trkpt lat="50.7763394810754" lon="15.742058253501693"><ele>681.0000000000001</ele><time>2026-04-04T04:50:38.999Z</time></trkpt><trkpt lat="50.77628560483783" lon="15.741995739029692"><ele>681.0</ele><time>2026-04-04T04:50:45.999Z</time></trkpt><trkpt lat="50.77623505799942" lon="15.741933273108891"><ele>681.0</ele><time>2026-04-04T04:50:54.999Z</time></trkpt><trkpt lat="50.776185545733185" lon="15.741865511849365"><ele>681.0</ele><time>2026-04-04T04:51:03.998Z</time></trkpt><trkpt lat="50.77612483019902" lon="15.741803932540657"><ele>681.0</ele><time>2026-04-04T04:51:10.998Z</time></trkpt><trkpt lat="50.77606578351081" lon="15.741746861315526"><ele>681.0000000000001</ele><time>2026-04-04T04:51:16.998Z</time></trkpt><trkpt lat="50.776012096975826" lon="15.741679373682304"><ele>681.0</ele><time>2026-04-04T04:51:26.998Z</time></trkpt><trkpt lat="50.775956302396665" lon="15.741606619431167"><ele>683.1428571428572</ele><time>2026-04-04T04:51:33.998Z</time></trkpt><trkpt lat="50.775901064223596" lon="15.741531756102482"><ele>685.2857142857143</ele><time>2026-04-04T04:51:38.998Z</time></trkpt><trkpt lat="50.775851537933555" lon="15.741446844478078"><ele>687.4285714285714</ele><time>2026-04-04T04:51:45Z</time></trkpt><trkpt lat="50.775788541384536" lon="15.74138313015122"><ele>689.5714285714287</ele><time>2026-04-04T04:51:52Z</time></trkpt><trkpt lat="50.77577795826273" lon="15.74126548373882"><ele>691.7142857142858</ele><time>2026-04-04T04:52:01Z</time></trkpt><trkpt lat="50.77579378203796" lon="15.741154639140152"><ele>693.8571428571429</ele><time>2026-04-04T04:52:06Z</time></trkpt><trkpt lat="50.775786204528224" lon="15.741043277913326"><ele>696.0</ele><time>2026-04-04T04:52:11Z</time></trkpt><trkpt lat="50.77577644517996" lon="15.740927156542389"><ele>696.0</ele><time>2026-04-04T04:52:18.999Z</time></trkpt><trkpt lat="50.7757500125322" lon="15.74082622578388"><ele>696.0</ele><time>2026-04-04T04:52:27.999Z</time></trkpt><trkpt lat="50.775712730417865" lon="15.740738748940041"><ele>696.0</ele><time>2026-04-04T04:52:32.999Z</time></trkpt><trkpt lat="50.775643953844515" lon="15.740659467855131"><ele>696.0</ele><time>2026-04-04T04:52:38.999Z</time></trkpt><trkpt lat="50.775578893227156" lon="15.740591401272251"><ele>696.0</ele><time>2026-04-04T04:52:48.999Z</time></trkpt><trkpt lat="50.775509242519334" lon="15.740552566406066"><ele>696.0</ele><time>2026-04-04T04:52:55.999Z</time></trkpt><trkpt lat="50.77545248148995" lon="15.740501935489974"><ele>696.0</ele><time>2026-04-04T04:53:00.999Z</time></trkpt><trkpt lat="50.775393771697296" lon="15.740464761559927"><ele>696.0</ele><time>2026-04-04T04:53:07.998Z</time></trkpt><trkpt lat="50.77533215743075" lon="15.74042738388423"><ele>696.0</ele><time>2026-04-04T04:53:13.998Z</time></trkpt><trkpt lat="50.77526771436997" lon="15.740382423938538"><ele>696.0</ele><time>2026-04-04T04:53:20.998Z</time></trkpt><trkpt lat="50.775205715132536" lon="15.740326866784986"><ele>696.0</ele><time>2026-04-04T04:53:25.998Z</time></trkpt><trkpt lat="50.77515554616255" lon="15.740264348789001"><ele>696.0</ele><time>2026-04-04T04:53:31.998Z</time></trkpt><trkpt lat="50.775096984415455" lon="15.74017858915289"><ele>696.0</ele><time>2026-04-04T04:53:38.998Z</time></trkpt><trkpt lat="50.775046144474366" lon="15.740117364104645"><ele>696.0</ele><time>2026-04-04T04:53:49.997Z</time></trkpt><trkpt lat="50.77500348470705" lon="15.740028953429704"><ele>697.4285714285714</ele><time>2026-04-04T04:54:01Z</time></trkpt><trkpt lat="50.77494786291434" lon="15.739966023284751"><ele>698.8571428571429</ele><time>2026-04-04T04:54:08Z</time></trkpt><trkpt lat="50.77489897846908" lon="15.7398953730146"><ele>700.2857142857142</ele><time>2026-04-04T04:54:14Z</time></trkpt><trkpt lat="50.77484057112028" lon="15.739831728460574"><ele>701.7142857142858</ele><time>2026-04-04T04:54:19Z</time></trkpt><trkpt lat="50.77478596361914" lon="15.739771941992307"><ele>703.1428571428572</ele><time>2026-04-04T04:54:26.999Z</time></trkpt><trkpt lat="50.77471903667332" lon="15.739698667941523"><ele>704.5714285714286</ele><time>2026-04-04T04:54:37.999Z</time></trkpt><trkpt lat="50.77466168057584" lon="15.739644337017836"><ele>706.0</ele><time>2026-04-04T04:54:43.999Z</time></trkpt><trkpt lat="50.77458723476019" lon="15.739620696775251"><ele>706.0</ele><time>2026-04-04T04:54:50.999Z</time></trkpt><trkpt lat="50.774521858900954" lon="15.739641680102803"><ele>706.0</ele><time>2026-04-04T04:54:57.999Z</time></trkpt><trkpt lat="50.7744604722546" lon="15.739680401107178"><ele>706.0</ele><time>2026-04-04T04:55:21.998Z</time></trkpt><trkpt lat="50.774400045047436" lon="15.739616368587141"><ele>706.0</ele><time>2026-04-04T04:55:29.998Z</time></trkpt><trkpt lat="50.77434641476261" lon="15.73954782325957"><ele>706.0</ele><time>2026-04-04T04:55:33.998Z</time></trkpt><trkpt lat="50.77428779298526" lon="15.739487191989788"><ele>706.0</ele><time>2026-04-04T04:55:41.998Z</time></trkpt><trkpt lat="50.77422773889173" lon="15.739439457943142"><ele>706.0</ele><time>2026-04-04T04:55:48.998Z</time></trkpt><trkpt lat="50.774169702889054" lon="15.739395923437183"><ele>706.4285714285714</ele><time>2026-04-04T04:55:53.997Z</time></trkpt><trkpt lat="50.77411207005301" lon="15.739331144088318"><ele>706.8571428571429</ele><time>2026-04-04T04:56:01Z</time></trkpt><trkpt lat="50.774052459273776" lon="15.739270563671035"><ele>707.2857142857143</ele><time>2026-04-04T04:56:07Z</time></trkpt><trkpt lat="50.774003447916265" lon="15.739202307704666"><ele>707.7142857142858</ele><time>2026-04-04T04:56:14Z</time></trkpt><trkpt lat="50.773958175446104" lon="15.739124943709173"><ele>708.1428571428571</ele><time>2026-04-04T04:56:22Z</time></trkpt><trkpt lat="50.77389468818972" lon="15.739076703991655"><ele>708.5714285714287</ele><time>2026-04-04T04:56:30Z</time></trkpt><trkpt lat="50.7738275053526" lon="15.739067633349942"><ele>709.0</ele><time>2026-04-04T04:56:35.999Z</time></trkpt><trkpt lat="50.773774101437716" lon="15.739009951746775"><ele>709.0000000000001</ele><time>2026-04-04T04:56:42.999Z</time></trkpt><trkpt lat="50.77371734900741" lon="15.738941201617349"><ele>709.0</ele><time>2026-04-04T04:56:52.999Z</time></trkpt><trkpt lat="50.77364291267467" lon="15.738934168563725"><ele>709.0</ele><time>2026-04-04T04:56:59.999Z</time></trkpt><trkpt lat="50.77357849670168" lon="15.738951260465909"><ele>709.0</ele><time>2026-04-04T04:57:02.999Z</time></trkpt><trkpt lat="50.773532691726615" lon="15.73887541961347"><ele>709.0</ele><time>2026-04-04T04:57:12.999Z</time></trkpt><trkpt lat="50.77347912203677" lon="15.738796280937475"><ele>709.0000000000001</ele><time>2026-04-04T04:57:21.998Z</time></trkpt><trkpt lat="50.773426247577085" lon="15.738708391369151"><ele>709.0</ele><time>2026-04-04T04:57:29.998Z</time></trkpt><trkpt lat="50.773364491623354" lon="15.73867567662624"><ele>710.5714285714287</ele><time>2026-04-04T04:57:34.998Z</time></trkpt><trkpt lat="50.77329567326424" lon="15.73865527313886"><ele>712.1428571428571</ele><time>2026-04-04T04:57:40.998Z</time></trkpt><trkpt lat="50.77322579176364" lon="15.738622688930302"><ele>713.7142857142858</ele><time>2026-04-04T04:57:48.998Z</time></trkpt><trkpt lat="50.77316318481531" lon="15.738572555120774"><ele>715.2857142857143</ele><time>2026-04-04T04:57:55.998Z</time></trkpt><trkpt lat="50.77311109518919" lon="15.738495728096243"><ele>716.8571428571429</ele><time>2026-04-04T04:58:03Z</time></trkpt><trkpt lat="50.77306849783782" lon="15.738421248832791"><ele>718.4285714285714</ele><time>2026-04-04T04:58:12Z</time></trkpt><trkpt lat="50.772997108067344" lon="15.738408199019972"><ele>720.0</ele><time>2026-04-04T04:58:21Z</time></trkpt><trkpt lat="50.77292627948487" lon="15.738406830311014"><ele>720.0</ele><time>2026-04-04T04:58:29Z</time></trkpt><trkpt lat="50.772862772787086" lon="15.7383815232367"><ele>720.0</ele><time>2026-04-04T04:58:37Z</time></trkpt><trkpt lat="50.77279610686828" lon="15.738387213352135"><ele>720.0</ele><time>2026-04-04T04:58:45.999Z</time></trkpt><trkpt lat="50.77273556185979" lon="15.73834423354303"><ele>720.0</ele><time>2026-04-04T04:58:53.999Z</time></trkpt><trkpt lat="50.77266712795484" lon="15.738310190420503"><ele>720.0</ele><time>2026-04-04T04:59:01.999Z</time></trkpt><trkpt lat="50.772602238661214" lon="15.73824465311888"><ele>720.0</ele><time>2026-04-04T04:59:07.999Z</time></trkpt><trkpt lat="50.772552330684505" lon="15.738179443068177"><ele>720.0</ele><time>2026-04-04T04:59:14.999Z</time></trkpt><trkpt lat="50.77249760476955" lon="15.738122646121143"><ele>722.0</ele><time>2026-04-04T04:59:19.999Z</time></trkpt><trkpt lat="50.77244057658869" lon="15.738064608003537"><ele>724.0</ele><time>2026-04-04T04:59:25.998Z</time></trkpt><trkpt lat="50.77237924429022" lon="15.73800853021444"><ele>726.0</ele><time>2026-04-04T04:59:33.998Z</time></trkpt><trkpt lat="50.77234105645216" lon="15.737928178396375"><ele>728.0</ele><time>2026-04-04T04:59:43.998Z</time></trkpt><trkpt lat="50.7723029500998" lon="15.737847722230432"><ele>730.0</ele><time>2026-04-04T04:59:52.998Z</time></trkpt><trkpt lat="50.772262390808685" lon="15.737762078280076"><ele>732.0</ele><time>2026-04-04T05:00:00.998Z</time></trkpt><trkpt lat="50.772221272500026" lon="15.73767499115373"><ele>734.0</ele><time>2026-04-04T05:00:07.997Z</time></trkpt><trkpt lat="50.772179811383246" lon="15.737586913861938"><ele>734.0</ele><time>2026-04-04T05:00:15Z</time></trkpt><trkpt lat="50.772140842551785" lon="15.737503703989649"><ele>734.0</ele><time>2026-04-04T05:00:25Z</time></trkpt><trkpt lat="50.77210006834196" lon="15.73741242196372"><ele>734.0</ele><time>2026-04-04T05:00:37Z</time></trkpt><trkpt lat="50.772063730648085" lon="15.737329259982314"><ele>734.0</ele><time>2026-04-04T05:00:42.999Z</time></trkpt><trkpt lat="50.77202872291317" lon="15.73723135926142"><ele>734.0</ele><time>2026-04-04T05:00:50.999Z</time></trkpt><trkpt lat="50.77197925609771" lon="15.73714358710404"><ele>734.0</ele><time>2026-04-04T05:00:58.999Z</time></trkpt><trkpt lat="50.77193888460983" lon="15.73702428117893"><ele>734.0</ele><time>2026-04-04T05:01:06.999Z</time></trkpt><trkpt lat="50.77190055868018" lon="15.73693594891026"><ele>734.0</ele><time>2026-04-04T05:01:15.999Z</time></trkpt><trkpt lat="50.77185817364193" lon="15.736859462302245"><ele>734.0</ele><time>2026-04-04T05:01:22.999Z</time></trkpt><trkpt lat="50.771810376494024" lon="15.736777201054702"><ele>734.0</ele><time>2026-04-04T05:01:30.998Z</time></trkpt><trkpt lat="50.771762514922735" lon="15.736693762853529"><ele>734.0</ele><time>2026-04-04T05:01:38.998Z</time></trkpt><trkpt lat="50.771714646710684" lon="15.736608904052957"><ele>734.0</ele><time>2026-04-04T05:01:46.998Z</time></trkpt><trkpt lat="50.7716714470936" lon="15.736527142339131"><ele>734.0</ele><time>2026-04-04T05:01:54.998Z</time></trkpt><trkpt lat="50.77162785337494" lon="15.736433144190203"><ele>734.0</ele><time>2026-04-04T05:02:03.998Z</time></trkpt><trkpt lat="50.77157083224975" lon="15.736373898796996"><ele>736.2857142857142</ele><time>2026-04-04T05:02:11.997Z</time></trkpt><trkpt lat="50.77155886259967" lon="15.73627269752261"><ele>738.5714285714287</ele><time>2026-04-04T05:02:20Z</time></trkpt><trkpt lat="50.77152094245838" lon="15.736178511311374"><ele>740.8571428571429</ele><time>2026-04-04T05:02:27Z</time></trkpt><trkpt lat="50.77148212580519" lon="15.736078705222495"><ele>743.1428571428571</ele><time>2026-04-04T05:02:36Z</time></trkpt><trkpt lat="50.77144702540172" lon="15.735988490025747"><ele>745.4285714285713</ele><time>2026-04-04T05:02:44Z</time></trkpt><trkpt lat="50.77141212993892" lon="15.735898801434042"><ele>747.7142857142858</ele><time>2026-04-04T05:02:52.999Z</time></trkpt><trkpt lat="50.771377987636235" lon="15.735811045071769"><ele>750.0</ele><time>2026-04-04T05:03:01.999Z</time></trkpt><trkpt lat="50.77140951666259" lon="15.735660436793767"><ele>750.0</ele><time>2026-04-04T05:03:19.999Z</time></trkpt><trkpt lat="50.77137422727993" lon="15.735573145563494"><ele>750.0</ele><time>2026-04-04T05:03:26.999Z</time></trkpt><trkpt lat="50.77133882156843" lon="15.735488196508513"><ele>750.0</ele><time>2026-04-04T05:03:35.998Z</time></trkpt><trkpt lat="50.771271480299504" lon="15.735463084212704"><ele>750.0</ele><time>2026-04-04T05:03:40.998Z</time></trkpt><trkpt lat="50.77119077391814" lon="15.7354628812143"><ele>750.0</ele><time>2026-04-04T05:03:45.998Z</time></trkpt><trkpt lat="50.771133440981245" lon="15.735403734949857"><ele>750.0</ele><time>2026-04-04T05:04:00.998Z</time></trkpt><trkpt lat="50.77108265249664" lon="15.735340121447582"><ele>750.0</ele><time>2026-04-04T05:04:14.998Z</time></trkpt><trkpt lat="50.77108508534956" lon="15.735225031636638"><ele>750.4285714285714</ele><time>2026-04-04T05:04:23Z</time></trkpt><trkpt lat="50.7710436493324" lon="15.735142017285302"><ele>750.8571428571428</ele><time>2026-04-04T05:04:32Z</time></trkpt><trkpt lat="50.77100325369064" lon="15.735050588877249"><ele>751.2857142857142</ele><time>2026-04-04T05:04:47Z</time></trkpt><trkpt lat="50.77093489683251" lon="15.735055146038889"><ele>751.7142857142858</ele><time>2026-04-04T05:04:54.999Z</time></trkpt><trkpt lat="50.77089844787514" lon="15.73496569053339"><ele>752.1428571428571</ele><time>2026-04-04T05:05:11.999Z</time></trkpt><trkpt lat="50.770912372718186" lon="15.734862185071558"><ele>752.5714285714286</ele><time>2026-04-04T05:05:15.999Z</time></trkpt><trkpt lat="50.770902714143645" lon="15.734751271763594"><ele>753.0</ele><time>2026-04-04T05:05:23.999Z</time></trkpt><trkpt lat="50.770902789460926" lon="15.73464517311769"><ele>754.1428571428571</ele><time>2026-04-04T05:05:29.999Z</time></trkpt><trkpt lat="50.77085991197388" lon="15.734555984569155"><ele>755.2857142857143</ele><time>2026-04-04T05:09:18.999Z</time></trkpt><trkpt lat="50.77082441970505" lon="15.734470601512205"><ele>756.4285714285713</ele><time>2026-04-04T05:09:24.999Z</time></trkpt><trkpt lat="50.77078474088247" lon="15.7343858157845"><ele>757.5714285714286</ele><time>2026-04-04T05:09:33.999Z</time></trkpt><trkpt lat="50.7707384163453" lon="15.73429409348492"><ele>758.7142857142857</ele><time>2026-04-04T05:09:42.999Z</time></trkpt><trkpt lat="50.77069561579224" lon="15.734211929198644"><ele>759.8571428571428</ele><time>2026-04-04T05:09:50.998Z</time></trkpt><trkpt lat="50.770650319087444" lon="15.734125987475736"><ele>761.0</ele><time>2026-04-04T05:09:58.998Z</time></trkpt><trkpt lat="50.77060612682944" lon="15.734041038671762"><ele>760.9999999999999</ele><time>2026-04-04T05:10:06.998Z</time></trkpt><trkpt lat="50.77056428740268" lon="15.733959223082872"><ele>761.0</ele><time>2026-04-04T05:10:14.998Z</time></trkpt><trkpt lat="50.770526442011914" lon="15.733875618794018"><ele>761.0</ele><time>2026-04-04T05:10:23.998Z</time></trkpt><trkpt lat="50.770491236426324" lon="15.733777133904177"><ele>761.0</ele><time>2026-04-04T05:10:32.998Z</time></trkpt><trkpt lat="50.77045748489879" lon="15.733692843564057"><ele>761.0</ele><time>2026-04-04T05:10:40Z</time></trkpt><trkpt lat="50.77041088084165" lon="15.733596537402956"><ele>760.9999999999999</ele><time>2026-04-04T05:10:47Z</time></trkpt><trkpt lat="50.77037531314121" lon="15.73350879232926"><ele>761.0</ele><time>2026-04-04T05:10:58Z</time></trkpt><trkpt lat="50.770338900379" lon="15.733418963255653"><ele>761.4285714285713</ele><time>2026-04-04T05:11:06Z</time></trkpt><trkpt lat="50.77030035283328" lon="15.73332386771899"><ele>761.8571428571429</ele><time>2026-04-04T05:11:15Z</time></trkpt><trkpt lat="50.77026287558996" lon="15.733231661938444"><ele>762.2857142857142</ele><time>2026-04-04T05:11:21.999Z</time></trkpt><trkpt lat="50.77022760027845" lon="15.733145231586674"><ele>762.7142857142857</ele><time>2026-04-04T05:11:31.999Z</time></trkpt><trkpt lat="50.77019331231488" lon="15.73306164467306"><ele>763.1428571428571</ele><time>2026-04-04T05:11:41.999Z</time></trkpt><trkpt lat="50.77015486167893" lon="15.732968107998131"><ele>763.5714285714286</ele><time>2026-04-04T05:11:50.999Z</time></trkpt><trkpt lat="50.77012055681337" lon="15.732883977860538"><ele>764.0</ele><time>2026-04-04T05:11:58.999Z</time></trkpt><trkpt lat="50.77008339418657" lon="15.732793238136367"><ele>765.4285714285714</ele><time>2026-04-04T05:12:09.998Z</time></trkpt><trkpt lat="50.77004799573608" lon="15.732705436764627"><ele>766.8571428571428</ele><time>2026-04-04T05:12:19.998Z</time></trkpt><trkpt lat="50.77001256486417" lon="15.73261569682656"><ele>768.2857142857142</ele><time>2026-04-04T05:12:28.998Z</time></trkpt><trkpt lat="50.76997837373432" lon="15.732529547637084"><ele>769.7142857142858</ele><time>2026-04-04T05:12:38.998Z</time></trkpt><trkpt lat="50.76994288107539" lon="15.732440677280081"><ele>771.1428571428571</ele><time>2026-04-04T05:12:49Z</time></trkpt><trkpt lat="50.769911449654344" lon="15.73234702661916"><ele>772.5714285714286</ele><time>2026-04-04T05:12:59Z</time></trkpt><trkpt lat="50.76988331315012" lon="15.73225354266999"><ele>774.0</ele><time>2026-04-04T05:13:08Z</time></trkpt><trkpt lat="50.769855633016164" lon="15.732157380542866"><ele>774.0</ele><time>2026-04-04T05:13:17Z</time></trkpt><trkpt lat="50.769828414116965" lon="15.732062145232867"><ele>774.0</ele><time>2026-04-04T05:13:24.999Z</time></trkpt><trkpt lat="50.769798436720286" lon="15.73195187746533"><ele>774.0</ele><time>2026-04-04T05:13:34.999Z</time></trkpt><trkpt lat="50.769771138756454" lon="15.731847921524752"><ele>774.0</ele><time>2026-04-04T05:13:46.999Z</time></trkpt><trkpt lat="50.76974663088417" lon="15.731750917829922"><ele>774.0</ele><time>2026-04-04T05:13:53.999Z</time></trkpt><trkpt lat="50.76972303577727" lon="15.73165784317055"><ele>774.0</ele><time>2026-04-04T05:13:59.999Z</time></trkpt><trkpt lat="50.76969890406262" lon="15.731560828784348"><ele>774.0</ele><time>2026-04-04T05:14:13.998Z</time></trkpt><trkpt lat="50.76968488087351" lon="15.73146356745789"><ele>775.0</ele><time>2026-04-04T05:14:22.998Z</time></trkpt><trkpt lat="50.76966156294182" lon="15.731366114791797"><ele>776.0</ele><time>2026-04-04T05:14:31.998Z</time></trkpt><trkpt lat="50.76963649160333" lon="15.731261334121486"><ele>777.0</ele><time>2026-04-04T05:14:39.998Z</time></trkpt><trkpt lat="50.7696138727415" lon="15.731166717224642"><ele>778.0</ele><time>2026-04-04T05:14:57Z</time></trkpt><trkpt lat="50.76967671613801" lon="15.731133858642796"><ele>779.0</ele><time>2026-04-04T05:15:01Z</time></trkpt><trkpt lat="50.769796913983825" lon="15.731034878159935"><ele>780.0</ele><time>2026-04-04T05:15:05Z</time></trkpt><trkpt lat="50.76983960151087" lon="15.730904786176934"><ele>780.8571428571429</ele><time>2026-04-04T05:16:57Z</time></trkpt><trkpt lat="50.76983963677113" lon="15.730794234260276"><ele>781.7142857142857</ele><time>2026-04-04T05:17:02Z</time></trkpt><trkpt lat="50.76979919159329" lon="15.73070265241379"><ele>782.5714285714287</ele><time>2026-04-04T05:17:07Z</time></trkpt><trkpt lat="50.76982024828055" lon="15.730599110867995"><ele>783.4285714285714</ele><time>2026-04-04T05:17:30.999Z</time></trkpt><trkpt lat="50.769781430329836" lon="15.730512673861442"><ele>784.2857142857143</ele><time>2026-04-04T05:17:37.999Z</time></trkpt><trkpt lat="50.76975927225159" lon="15.730418034537147"><ele>785.1428571428572</ele><time>2026-04-04T05:17:43.999Z</time></trkpt><trkpt lat="50.76975351138743" lon="15.73030612099357"><ele>786.0</ele><time>2026-04-04T05:17:52.999Z</time></trkpt><trkpt lat="50.7697385825621" lon="15.730204836631971"><ele>787.1428571428572</ele><time>2026-04-04T05:18:01.999Z</time></trkpt><trkpt lat="50.76971448794837" lon="15.730101062264827"><ele>788.2857142857143</ele><time>2026-04-04T05:18:16.998Z</time></trkpt><trkpt lat="50.769700724649134" lon="15.729993438753338"><ele>789.4285714285714</ele><time>2026-04-04T05:18:25.998Z</time></trkpt><trkpt lat="50.76969244473805" lon="15.729886644225996"><ele>790.5714285714287</ele><time>2026-04-04T05:18:34.998Z</time></trkpt><trkpt lat="50.769684306729346" lon="15.729787093996233"><ele>791.7142857142857</ele><time>2026-04-04T05:18:44.998Z</time></trkpt><trkpt lat="50.76968089826061" lon="15.729677022560294"><ele>792.8571428571429</ele><time>2026-04-04T05:18:54.997Z</time></trkpt><trkpt lat="50.76968394070711" lon="15.729561438027911"><ele>794.0</ele><time>2026-04-04T05:19:08Z</time></trkpt><trkpt lat="50.76970964719462" lon="15.729463630017587"><ele>795.1666666666667</ele><time>2026-04-04T05:19:19Z</time></trkpt><trkpt lat="50.769738393270046" lon="15.729365556723799"><ele>796.3333333333334</ele><time>2026-04-04T05:19:27Z</time></trkpt><trkpt lat="50.76967473780513" lon="15.729260100773871"><ele>797.5</ele><time>2026-04-04T05:19:34.999Z</time></trkpt><trkpt lat="50.76969810430239" lon="15.729066337585952"><ele>798.6666666666667</ele><time>2026-04-04T05:20:02.999Z</time></trkpt><trkpt lat="50.76968636223007" lon="15.728947602904622"><ele>799.8333333333334</ele><time>2026-04-04T05:20:16.999Z</time></trkpt><trkpt lat="50.76967513602163" lon="15.728848415756925"><ele>801.0</ele><time>2026-04-04T05:20:29.998Z</time></trkpt><trkpt lat="50.769662992820784" lon="15.72874012462895"><ele>801.0</ele><time>2026-04-04T05:20:42.998Z</time></trkpt><trkpt lat="50.76964735429743" lon="15.728630803750965"><ele>801.0</ele><time>2026-04-04T05:20:51.998Z</time></trkpt><trkpt lat="50.76963344902949" lon="15.728530526154461"><ele>801.0</ele><time>2026-04-04T05:21:01.998Z</time></trkpt><trkpt lat="50.76961836747657" lon="15.728424472258293"><ele>801.0</ele><time>2026-04-04T05:21:13Z</time></trkpt><trkpt lat="50.7696003256245" lon="15.728314133499229"><ele>801.0</ele><time>2026-04-04T05:21:28Z</time></trkpt><trkpt lat="50.76958813754563" lon="15.728194074564419"><ele>801.0</ele><time>2026-04-04T05:21:41.999Z</time></trkpt><trkpt lat="50.76957403191327" lon="15.728083599418648"><ele>801.0</ele><time>2026-04-04T05:21:57.999Z</time></trkpt><trkpt lat="50.76955466540496" lon="15.72798527609363"><ele>802.4285714285714</ele><time>2026-04-04T05:22:11.999Z</time></trkpt><trkpt lat="50.76954907541051" lon="15.727871502968409"><ele>803.8571428571429</ele><time>2026-04-04T05:22:22.999Z</time></trkpt><trkpt lat="50.76955247394061" lon="15.727760520362748"><ele>805.2857142857142</ele><time>2026-04-04T05:22:36.998Z</time></trkpt><trkpt lat="50.76954725696795" lon="15.727660444865133"><ele>806.7142857142858</ele><time>2026-04-04T05:22:45.998Z</time></trkpt><trkpt lat="50.76955221533926" lon="15.727557463514833"><ele>808.1428571428572</ele><time>2026-04-04T05:22:54.998Z</time></trkpt><trkpt lat="50.769550794419914" lon="15.727455628981305"><ele>809.5714285714286</ele><time>2026-04-04T05:23:02.998Z</time></trkpt><trkpt lat="50.769552897178386" lon="15.727348303648508"><ele>811.0</ele><time>2026-04-04T05:23:12.997Z</time></trkpt><trkpt lat="50.769550198565746" lon="15.727245017276099"><ele>813.0</ele><time>2026-04-04T05:23:24Z</time></trkpt><trkpt lat="50.76954922272899" lon="15.727137220542753"><ele>815.0</ele><time>2026-04-04T05:23:35Z</time></trkpt><trkpt lat="50.76955286420254" lon="15.72702716533092"><ele>817.0</ele><time>2026-04-04T05:23:46.999Z</time></trkpt><trkpt lat="50.76954704623471" lon="15.726922000596156"><ele>819.0</ele><time>2026-04-04T05:23:58.999Z</time></trkpt><trkpt lat="50.769545996215115" lon="15.72681817064266"><ele>821.0</ele><time>2026-04-04T05:24:08.999Z</time></trkpt><trkpt lat="50.769551616303794" lon="15.726709983010922"><ele>823.0</ele><time>2026-04-04T05:24:45.998Z</time></trkpt><trkpt lat="50.769557782046704" lon="15.726576153373557"><ele>825.0</ele><time>2026-04-04T05:25:17.998Z</time></trkpt><trkpt lat="50.76954721366092" lon="15.726475356453037"><ele>826.8571428571428</ele><time>2026-04-04T05:25:29Z</time></trkpt><trkpt lat="50.76953993792131" lon="15.726371594175804"><ele>828.7142857142858</ele><time>2026-04-04T05:25:38Z</time></trkpt><trkpt lat="50.7695296141803" lon="15.7262628381969"><ele>830.5714285714286</ele><time>2026-04-04T05:25:48Z</time></trkpt><trkpt lat="50.7695194612503" lon="15.726159622478209"><ele>832.4285714285713</ele><time>2026-04-04T05:25:58.999Z</time></trkpt><trkpt lat="50.76951377573434" lon="15.726055063609316"><ele>834.2857142857142</ele><time>2026-04-04T05:26:07.999Z</time></trkpt><trkpt lat="50.769495435028" lon="15.725956329769957"><ele>836.1428571428571</ele><time>2026-04-04T05:26:16.999Z</time></trkpt><trkpt lat="50.769482083598106" lon="15.725854111551794"><ele>838.0</ele><time>2026-04-04T05:26:26.999Z</time></trkpt><trkpt lat="50.76946114961561" lon="15.725757019154772"><ele>839.6666666666666</ele><time>2026-04-04T05:26:36.999Z</time></trkpt><trkpt lat="50.76943825801725" lon="15.725651726703392"><ele>841.3333333333333</ele><time>2026-04-04T05:26:48.998Z</time></trkpt><trkpt lat="50.76940762745507" lon="15.725528548512887"><ele>843.0</ele><time>2026-04-04T05:27:24.998Z</time></trkpt><trkpt lat="50.769430476633154" lon="15.72563404517636"><ele>844.6666666666667</ele><time>2026-04-04T05:32:41.999Z</time></trkpt><trkpt lat="50.76944253259554" lon="15.72548656373484"><ele>846.3333333333334</ele><time>2026-04-04T05:32:45.999Z</time></trkpt><trkpt lat="50.76940046562017" lon="15.725392501978506"><ele>848.0</ele><time>2026-04-04T05:32:53.999Z</time></trkpt><trkpt lat="50.76937663763276" lon="15.725295107178434"><ele>846.5714285714286</ele><time>2026-04-04T05:33:00.998Z</time></trkpt><trkpt lat="50.769339336968464" lon="15.725213808771999"><ele>845.1428571428571</ele><time>2026-04-04T05:33:06.998Z</time></trkpt><trkpt lat="50.76931989332375" lon="15.725114225971048"><ele>843.7142857142857</ele><time>2026-04-04T05:33:15.998Z</time></trkpt><trkpt lat="50.76930022159046" lon="15.725002037674132"><ele>842.2857142857142</ele><time>2026-04-04T05:33:24.998Z</time></trkpt><trkpt lat="50.76928659466967" lon="15.72488824481312"><ele>840.8571428571429</ele><time>2026-04-04T05:33:34.998Z</time></trkpt><trkpt lat="50.769277868612186" lon="15.724768171362914"><ele>839.4285714285713</ele><time>2026-04-04T05:33:44Z</time></trkpt><trkpt lat="50.76927244854758" lon="15.724637091841844"><ele>838.0</ele><time>2026-04-04T05:33:55Z</time></trkpt><trkpt lat="50.76927026979613" lon="15.724519603274073"><ele>837.9999999999999</ele><time>2026-04-04T05:34:10Z</time></trkpt><trkpt lat="50.76926747373757" lon="15.724415459560944"><ele>838.0</ele><time>2026-04-04T05:34:18Z</time></trkpt><trkpt lat="50.76926899402999" lon="15.724314110050976"><ele>838.0</ele><time>2026-04-04T05:34:28.999Z</time></trkpt><trkpt lat="50.76926836043859" lon="15.724211005879207"><ele>838.0</ele><time>2026-04-04T05:34:39.999Z</time></trkpt><trkpt lat="50.76926899402813" lon="15.724100680321754"><ele>838.0</ele><time>2026-04-04T05:34:51.999Z</time></trkpt><trkpt lat="50.76926943109334" lon="15.723994896340102"><ele>837.9999999999999</ele><time>2026-04-04T05:35:03.999Z</time></trkpt><trkpt lat="50.76926979402645" lon="15.723883235819214"><ele>838.0</ele><time>2026-04-04T05:35:14.998Z</time></trkpt><trkpt lat="50.76928306485198" lon="15.72378478924188"><ele>839.9999999999999</ele><time>2026-04-04T05:35:24.998Z</time></trkpt><trkpt lat="50.769318016456914" lon="15.723681479856266"><ele>842.0</ele><time>2026-04-04T05:35:35.998Z</time></trkpt><trkpt lat="50.76933657873905" lon="15.723570898974607"><ele>844.0</ele><time>2026-04-04T05:35:56Z</time></trkpt><trkpt lat="50.76933783603731" lon="15.723451171654357"><ele>846.0</ele><time>2026-04-04T05:36:09Z</time></trkpt><trkpt lat="50.769335591261516" lon="15.723345995655857"><ele>847.9999999999999</ele><time>2026-04-04T05:36:21Z</time></trkpt><trkpt lat="50.76928141895958" lon="15.723203459267904"><ele>850.0</ele><time>2026-04-04T05:36:33.999Z</time></trkpt><trkpt lat="50.76931094039015" lon="15.723114246712717"><ele>851.7142857142857</ele><time>2026-04-04T05:36:44.999Z</time></trkpt><trkpt lat="50.76929421669693" lon="15.72301776621999"><ele>853.4285714285713</ele><time>2026-04-04T05:36:57.999Z</time></trkpt><trkpt lat="50.7692356034886" lon="15.722946549669121"><ele>855.1428571428571</ele><time>2026-04-04T05:37:03.999Z</time></trkpt><trkpt lat="50.769224748305355" lon="15.72283016236587"><ele>856.8571428571429</ele><time>2026-04-04T05:37:16.998Z</time></trkpt><trkpt lat="50.76921990612518" lon="15.722716110291934"><ele>858.5714285714286</ele><time>2026-04-04T05:37:27.998Z</time></trkpt><trkpt lat="50.769217018994965" lon="15.722616393581664"><ele>860.2857142857143</ele><time>2026-04-04T05:37:40.998Z</time></trkpt><trkpt lat="50.76924178121017" lon="15.722515431677373"><ele>862.0</ele><time>2026-04-04T05:37:51.998Z</time></trkpt><trkpt lat="50.76922482728128" lon="15.722418827264345"><ele>863.7142857142858</ele><time>2026-04-04T05:38:05Z</time></trkpt><trkpt lat="50.769274951605745" lon="15.722346200454698"><ele>865.4285714285713</ele><time>2026-04-04T05:38:12Z</time></trkpt><trkpt lat="50.76923786209947" lon="15.722265608399216"><ele>867.1428571428571</ele><time>2026-04-04T05:38:20Z</time></trkpt><trkpt lat="50.769166628654446" lon="15.722192822708243"><ele>868.8571428571429</ele><time>2026-04-04T05:38:39.999Z</time></trkpt><trkpt lat="50.76920938852364" lon="15.722119696693289"><ele>870.5714285714287</ele><time>2026-04-04T05:38:49.999Z</time></trkpt><trkpt lat="50.76924514626118" lon="15.722031135592449"><ele>872.2857142857142</ele><time>2026-04-04T05:38:56.999Z</time></trkpt><trkpt lat="50.76922261893877" lon="15.721937636475321"><ele>874.0</ele><time>2026-04-04T05:39:04.999Z</time></trkpt><trkpt lat="50.769222284473024" lon="15.721834650645624"><ele>875.2857142857142</ele><time>2026-04-04T05:39:17.998Z</time></trkpt><trkpt lat="50.76922032925253" lon="15.721719743068507"><ele>876.5714285714287</ele><time>2026-04-04T05:39:30.998Z</time></trkpt><trkpt lat="50.76921786772891" lon="15.721608162007957"><ele>877.8571428571429</ele><time>2026-04-04T05:39:40.998Z</time></trkpt><trkpt lat="50.7692148583711" lon="15.721505312882902"><ele>879.1428571428571</ele><time>2026-04-04T05:39:49.998Z</time></trkpt><trkpt lat="50.769210976919204" lon="15.721385971653786"><ele>880.4285714285713</ele><time>2026-04-04T05:40:04Z</time></trkpt><trkpt lat="50.76920710773285" lon="15.721284183224089"><ele>881.7142857142858</ele><time>2026-04-04T05:40:14Z</time></trkpt><trkpt lat="50.769203281435615" lon="15.721179513935192"><ele>883.0</ele><time>2026-04-04T05:40:21Z</time></trkpt><trkpt lat="50.76921277687119" lon="15.721076843880045"><ele>884.1428571428572</ele><time>2026-04-04T05:40:31Z</time></trkpt><trkpt lat="50.76921543516516" lon="15.720962696400976"><ele>885.2857142857142</ele><time>2026-04-04T05:40:41.999Z</time></trkpt><trkpt lat="50.76918618466105" lon="15.720868035549366"><ele>886.4285714285714</ele><time>2026-04-04T05:40:52.999Z</time></trkpt><trkpt lat="50.76918182764116" lon="15.720766267302622"><ele>887.5714285714287</ele><time>2026-04-04T05:40:59.999Z</time></trkpt><trkpt lat="50.76917871152699" lon="15.720656138412412"><ele>888.7142857142858</ele><time>2026-04-04T05:41:26.998Z</time></trkpt><trkpt lat="50.76917378259708" lon="15.720544783903796"><ele>889.8571428571429</ele><time>2026-04-04T05:41:37.998Z</time></trkpt><trkpt lat="50.7691662125596" lon="15.720430611966876"><ele>891.0</ele><time>2026-04-04T05:41:48.998Z</time></trkpt><trkpt lat="50.76922435208064" lon="15.720375503062153"><ele>891.0000000000001</ele><time>2026-04-04T05:42:33Z</time></trkpt><trkpt lat="50.7691928678844" lon="15.720281126166592"><ele>891.0</ele><time>2026-04-04T05:42:41Z</time></trkpt><trkpt lat="50.76918683824801" lon="15.720169638058568"><ele>891.0</ele><time>2026-04-04T05:42:54.999Z</time></trkpt><trkpt lat="50.769143295717214" lon="15.72008757033477"><ele>891.0</ele><time>2026-04-04T05:43:01.999Z</time></trkpt><trkpt lat="50.7691322052583" lon="15.719984708368683"><ele>891.0</ele><time>2026-04-04T05:43:09.999Z</time></trkpt><trkpt lat="50.76911741395691" lon="15.719881634244086"><ele>891.0000000000001</ele><time>2026-04-04T05:43:23.999Z</time></trkpt><trkpt lat="50.769098842394826" lon="15.719772927839728"><ele>891.0</ele><time>2026-04-04T05:43:32.998Z</time></trkpt><trkpt lat="50.76907566993015" lon="15.719657926119002"><ele>893.0</ele><time>2026-04-04T05:43:43.998Z</time></trkpt><trkpt lat="50.76905437742113" lon="15.719563205603412"><ele>895.0</ele><time>2026-04-04T05:43:58.998Z</time></trkpt><trkpt lat="50.76903106595554" lon="15.719464507617488"><ele>897.0</ele><time>2026-04-04T05:44:07.998Z</time></trkpt><trkpt lat="50.76900763928442" lon="15.719370482234606"><ele>899.0</ele><time>2026-04-04T05:44:21Z</time></trkpt><trkpt lat="50.76898294206324" lon="15.71927302365415"><ele>900.9999999999999</ele><time>2026-04-04T05:44:28Z</time></trkpt><trkpt lat="50.768958971055184" lon="15.719180052849886"><ele>903.0</ele><time>2026-04-04T05:44:40Z</time></trkpt><trkpt lat="50.768931509679454" lon="15.719072641715828"><ele>905.0</ele><time>2026-04-04T05:44:49.999Z</time></trkpt><trkpt lat="50.768902540532736" lon="15.718981071196124"><ele>906.1428571428571</ele><time>2026-04-04T05:44:59.999Z</time></trkpt><trkpt lat="50.76887684121523" lon="15.718888845655345"><ele>907.2857142857142</ele><time>2026-04-04T05:45:07.999Z</time></trkpt><trkpt lat="50.76884600286474" lon="15.718787172588394"><ele>908.4285714285713</ele><time>2026-04-04T05:45:18.999Z</time></trkpt><trkpt lat="50.76881606584356" lon="15.718691162681472"><ele>909.5714285714284</ele><time>2026-04-04T05:45:25.999Z</time></trkpt><trkpt lat="50.768787980153384" lon="15.718601544409095"><ele>910.7142857142857</ele><time>2026-04-04T05:45:32.998Z</time></trkpt><trkpt lat="50.768788337945495" lon="15.718502001834306"><ele>911.8571428571427</ele><time>2026-04-04T05:45:43.998Z</time></trkpt><trkpt lat="50.76877231281361" lon="15.718391106493216"><ele>912.9999999999999</ele><time>2026-04-04T05:45:54.998Z</time></trkpt><trkpt lat="50.76877935787695" lon="15.71828382471211"><ele>913.9999999999999</ele><time>2026-04-04T05:46:05.998Z</time></trkpt><trkpt lat="50.768751251145105" lon="15.718189005360301"><ele>915.0</ele><time>2026-04-04T05:46:13.997Z</time></trkpt><trkpt lat="50.768752067938756" lon="15.718080295770326"><ele>915.9999999999999</ele><time>2026-04-04T05:46:22Z</time></trkpt><trkpt lat="50.768778497445254" lon="15.717986873211522"><ele>916.9999999999999</ele><time>2026-04-04T05:46:39Z</time></trkpt><trkpt lat="50.76878634350869" lon="15.717886345977597"><ele>918.0</ele><time>2026-04-04T05:46:51Z</time></trkpt><trkpt lat="50.768774889653315" lon="15.717787234695777"><ele>918.9999999999999</ele><time>2026-04-04T05:46:58.999Z</time></trkpt><trkpt lat="50.76876104072795" lon="15.717677569898434"><ele>919.9999999999999</ele><time>2026-04-04T05:47:13.999Z</time></trkpt><trkpt lat="50.768781544219394" lon="15.717580651321786"><ele>921.7142857142856</ele><time>2026-04-04T05:47:22.999Z</time></trkpt><trkpt lat="50.76879220138048" lon="15.717482489847"><ele>923.4285714285713</ele><time>2026-04-04T05:47:34.999Z</time></trkpt><trkpt lat="50.76881080301473" lon="15.717383657234597"><ele>925.1428571428571</ele><time>2026-04-04T05:47:47.998Z</time></trkpt><trkpt lat="50.768786561002045" lon="15.717282349940108"><ele>926.8571428571428</ele><time>2026-04-04T05:47:57.998Z</time></trkpt><trkpt lat="50.76879978800064" lon="15.71717817297238"><ele>928.5714285714284</ele><time>2026-04-04T05:48:10.998Z</time></trkpt><trkpt lat="50.76877887927217" lon="15.717083068619498"><ele>930.2857142857143</ele><time>2026-04-04T05:48:17.998Z</time></trkpt><trkpt lat="50.768788643077976" lon="15.716978638003162"><ele>932.0</ele><time>2026-04-04T05:48:29Z</time></trkpt><trkpt lat="50.768718955384166" lon="15.716966204258195"><ele>932.0</ele><time>2026-04-04T05:58:40.998Z</time></trkpt><trkpt lat="50.76878788244901" lon="15.716966133346366"><ele>932.0</ele><time>2026-04-04T05:59:30Z</time></trkpt><trkpt lat="50.76875130173822" lon="15.71708106790816"><ele>932.0</ele><time>2026-04-04T05:59:50.999Z</time></trkpt><trkpt lat="50.76875875155056" lon="15.716959384529481"><ele>932.0</ele><time>2026-04-04T06:01:34.999Z</time></trkpt><trkpt lat="50.76877673382351" lon="15.716840011827829"><ele>932.0</ele><time>2026-04-04T06:12:38.999Z</time></trkpt><trkpt lat="50.768739239173414" lon="15.716731020273716"><ele>932.0</ele><time>2026-04-04T06:12:52.999Z</time></trkpt><trkpt lat="50.76872036241021" lon="15.716633084461403"><ele>932.0</ele><time>2026-04-04T06:13:04.998Z</time></trkpt><trkpt lat="50.768707556853975" lon="15.716534021708462"><ele>932.1428571428571</ele><time>2026-04-04T06:13:15.998Z</time></trkpt><trkpt lat="50.768680110457936" lon="15.716428097285455"><ele>932.2857142857142</ele><time>2026-04-04T06:13:24.998Z</time></trkpt><trkpt lat="50.768625234229766" lon="15.716366300167945"><ele>932.4285714285713</ele><time>2026-04-04T06:13:32.998Z</time></trkpt><trkpt lat="50.768575930985136" lon="15.716298689234154"><ele>932.5714285714286</ele><time>2026-04-04T06:13:42Z</time></trkpt><trkpt lat="50.768530856367725" lon="15.716184111968708"><ele>932.7142857142856</ele><time>2026-04-04T06:14:09Z</time></trkpt><trkpt lat="50.76859194602279" lon="15.71614886942479"><ele>932.8571428571428</ele><time>2026-04-04T06:14:10Z</time></trkpt><trkpt lat="50.76851779888122" lon="15.716135236746645"><ele>933.0</ele><time>2026-04-04T06:14:15.999Z</time></trkpt><trkpt lat="50.76846454483904" lon="15.716075778911515"><ele>935.0</ele><time>2026-04-04T06:14:19.999Z</time></trkpt><trkpt lat="50.76846382023726" lon="15.715968862671525"><ele>936.9999999999999</ele><time>2026-04-04T06:14:36.999Z</time></trkpt><trkpt lat="50.76841939550804" lon="15.715892088673701"><ele>939.0</ele><time>2026-04-04T06:14:47.999Z</time></trkpt><trkpt lat="50.768438692780784" lon="15.715797320511202"><ele>941.0</ele><time>2026-04-04T06:15:02.998Z</time></trkpt><trkpt lat="50.768385939129544" lon="15.71572077263016"><ele>942.9999999999999</ele><time>2026-04-04T06:15:14.998Z</time></trkpt><trkpt lat="50.76833244749752" lon="15.71561537806107"><ele>945.0</ele><time>2026-04-04T06:15:28.998Z</time></trkpt><trkpt lat="50.76831592238497" lon="15.715516665204282"><ele>947.0</ele><time>2026-04-04T06:15:45Z</time></trkpt><trkpt lat="50.76826074124588" lon="15.715436757586467"><ele>947.0</ele><time>2026-04-04T06:15:58Z</time></trkpt><trkpt lat="50.768208304625816" lon="15.715378237472748"><ele>946.9999999999999</ele><time>2026-04-04T06:16:07Z</time></trkpt><trkpt lat="50.76816626572398" lon="15.71530107584828"><ele>947.0</ele><time>2026-04-04T06:16:15Z</time></trkpt><trkpt lat="50.76809784001273" lon="15.715257665439252"><ele>947.0</ele><time>2026-04-04T06:16:24.999Z</time></trkpt><trkpt lat="50.768024220620035" lon="15.715245144130513"><ele>946.9999999999999</ele><time>2026-04-04T06:16:40.999Z</time></trkpt><trkpt lat="50.76794333640294" lon="15.715201611099591"><ele>947.0</ele><time>2026-04-04T06:16:51.999Z</time></trkpt><trkpt lat="50.76787942970666" lon="15.715146901638352"><ele>947.0</ele><time>2026-04-04T06:17:07.998Z</time></trkpt><trkpt lat="50.76780746868881" lon="15.715138202015574"><ele>948.5714285714286</ele><time>2026-04-04T06:17:22.998Z</time></trkpt><trkpt lat="50.76774405352978" lon="15.715103062644747"><ele>950.1428571428571</ele><time>2026-04-04T06:17:36.998Z</time></trkpt><trkpt lat="50.7676707795529" lon="15.715043010143692"><ele>951.7142857142857</ele><time>2026-04-04T06:17:47.997Z</time></trkpt><trkpt lat="50.76761526215734" lon="15.714982108964094"><ele>953.2857142857142</ele><time>2026-04-04T06:18:12Z</time></trkpt><trkpt lat="50.767557007520494" lon="15.71492461769564"><ele>954.8571428571429</ele><time>2026-04-04T06:18:25.999Z</time></trkpt><trkpt lat="50.76749565869507" lon="15.71489984635803"><ele>956.4285714285713</ele><time>2026-04-04T06:18:37.999Z</time></trkpt><trkpt lat="50.767425282459065" lon="15.714872503082807"><ele>958.0</ele><time>2026-04-04T06:18:52.999Z</time></trkpt><trkpt lat="50.76734949562473" lon="15.71482514097308"><ele>958.0</ele><time>2026-04-04T06:19:06.999Z</time></trkpt><trkpt lat="50.76728760598913" lon="15.71479762018438"><ele>958.0</ele><time>2026-04-04T06:19:30.998Z</time></trkpt><trkpt lat="50.7672212891535" lon="15.714756234608723"><ele>958.0</ele><time>2026-04-04T06:19:41.998Z</time></trkpt><trkpt lat="50.76715684608056" lon="15.714786411019537"><ele>958.0</ele><time>2026-04-04T06:19:58Z</time></trkpt><trkpt lat="50.767106157393776" lon="15.714723469534265"><ele>958.0</ele><time>2026-04-04T06:20:16Z</time></trkpt><trkpt lat="50.767042710189486" lon="15.714660096729418"><ele>958.0</ele><time>2026-04-04T06:20:27.999Z</time></trkpt><trkpt lat="50.766993860192905" lon="15.714594464301646"><ele>958.0</ele><time>2026-04-04T06:20:47.999Z</time></trkpt><trkpt lat="50.766948939469735" lon="15.71450964649077"><ele>958.0</ele><time>2026-04-04T06:21:03.999Z</time></trkpt><trkpt lat="50.766906013034784" lon="15.714434328337418"><ele>958.0</ele><time>2026-04-04T06:21:18.998Z</time></trkpt><trkpt lat="50.76683245302961" lon="15.71433719287637"><ele>958.0</ele><time>2026-04-04T06:21:44.998Z</time></trkpt><trkpt lat="50.766785934040804" lon="15.714250684665947"><ele>958.0</ele><time>2026-04-04T06:21:58.997Z</time></trkpt><trkpt lat="50.76673621826362" lon="15.714175276110174"><ele>958.0</ele><time>2026-04-04T06:22:16Z</time></trkpt><trkpt lat="50.76669634889545" lon="15.714080731489814"><ele>958.0</ele><time>2026-04-04T06:22:32Z</time></trkpt><trkpt lat="50.76662790618381" lon="15.714094623722536"><ele>958.0</ele><time>2026-04-04T06:22:48.999Z</time></trkpt><trkpt lat="50.76655056105043" lon="15.714132654697218"><ele>960.0</ele><time>2026-04-04T06:22:58.999Z</time></trkpt><trkpt lat="50.766563179021375" lon="15.71423200469786"><ele>962.0</ele><time>2026-04-04T06:23:06.999Z</time></trkpt><trkpt lat="50.76646115264921" lon="15.71422435412964"><ele>964.0</ele><time>2026-04-04T06:23:44.998Z</time></trkpt><trkpt lat="50.76652231617409" lon="15.714185303805749"><ele>966.0</ele><time>2026-04-04T06:24:14Z</time></trkpt><trkpt lat="50.766572919123874" lon="15.714097057649129"><ele>968.0</ele><time>2026-04-04T06:24:24Z</time></trkpt><trkpt lat="50.76663663934328" lon="15.714057533167473"><ele>970.0</ele><time>2026-04-04T06:24:32Z</time></trkpt><trkpt lat="50.766701327521425" lon="15.714032877724298"><ele>972.0</ele><time>2026-04-04T06:24:39.999Z</time></trkpt><trkpt lat="50.76667779847217" lon="15.713938703641304"><ele>972.0</ele><time>2026-04-04T06:24:50.999Z</time></trkpt><trkpt lat="50.76668411455127" lon="15.713831901991012"><ele>972.0</ele><time>2026-04-04T06:25:05.999Z</time></trkpt><trkpt lat="50.76664984031007" lon="15.713741926066612"><ele>972.0</ele><time>2026-04-04T06:25:20.999Z</time></trkpt><trkpt lat="50.76665981666678" lon="15.713640008880912"><ele>972.0</ele><time>2026-04-04T06:25:32.998Z</time></trkpt><trkpt lat="50.76666287756015" lon="15.713536145818718"><ele>972.0</ele><time>2026-04-04T06:25:43.998Z</time></trkpt><trkpt lat="50.76672391986178" lon="15.71348479805875"><ele>972.0</ele><time>2026-04-04T06:25:53.998Z</time></trkpt><trkpt lat="50.76670753178763" lon="15.713380471966353"><ele>972.0</ele><time>2026-04-04T06:26:09.997Z</time></trkpt><trkpt lat="50.766705777435874" lon="15.71327037265248"><ele>973.7142857142857</ele><time>2026-04-04T06:26:23Z</time></trkpt><trkpt lat="50.76668125900422" lon="15.713165960462359"><ele>975.4285714285716</ele><time>2026-04-04T06:26:39Z</time></trkpt><trkpt lat="50.766714325976515" lon="15.713073956597556"><ele>977.1428571428572</ele><time>2026-04-04T06:26:50.999Z</time></trkpt><trkpt lat="50.76671089866833" lon="15.712969041329657"><ele>978.8571428571429</ele><time>2026-04-04T06:27:12.999Z</time></trkpt><trkpt lat="50.766713231991986" lon="15.712866306990584"><ele>980.5714285714287</ele><time>2026-04-04T06:27:30.998Z</time></trkpt><trkpt lat="50.76671849852211" lon="15.71276383666332"><ele>982.2857142857144</ele><time>2026-04-04T06:27:46.998Z</time></trkpt><trkpt lat="50.76675797776332" lon="15.712604564788299"><ele>984.0000000000001</ele><time>2026-04-04T06:28:22Z</time></trkpt><trkpt lat="50.766684241484135" lon="15.71257620863761"><ele>986.3333333333334</ele><time>2026-04-04T06:28:35Z</time></trkpt><trkpt lat="50.76667200792257" lon="15.712466685986326"><ele>988.6666666666667</ele><time>2026-04-04T06:28:44Z</time></trkpt><trkpt lat="50.766618702686465" lon="15.712380895320164"><ele>991.0</ele><time>2026-04-04T06:29:05.999Z</time></trkpt><trkpt lat="50.76660028747603" lon="15.712277024912895"><ele>993.3333333333334</ele><time>2026-04-04T06:29:21.999Z</time></trkpt><trkpt lat="50.76659282368445" lon="15.712176645696285"><ele>995.6666666666667</ele><time>2026-04-04T06:29:41.998Z</time></trkpt><trkpt lat="50.76652644545833" lon="15.712151307917008"><ele>998.0</ele><time>2026-04-04T06:29:55.998Z</time></trkpt><trkpt lat="50.76647213781391" lon="15.711977809495943"><ele>1000.2857142857144</ele><time>2026-04-04T06:30:31Z</time></trkpt><trkpt lat="50.76644865132755" lon="15.711861778259118"><ele>1002.5714285714287</ele><time>2026-04-04T06:30:56Z</time></trkpt><trkpt lat="50.76641443456886" lon="15.711773895224027"><ele>1004.8571428571429</ele><time>2026-04-04T06:31:12.999Z</time></trkpt><trkpt lat="50.766392322758655" lon="15.711677380534677"><ele>1007.1428571428572</ele><time>2026-04-04T06:31:23.999Z</time></trkpt><trkpt lat="50.76637714192901" lon="15.711556922739147"><ele>1009.4285714285716</ele><time>2026-04-04T06:31:42.998Z</time></trkpt><trkpt lat="50.76634437915076" lon="15.711469089877218"><ele>1011.7142857142857</ele><time>2026-04-04T06:31:57.998Z</time></trkpt><trkpt lat="50.76633651393967" lon="15.711342185743458"><ele>1014.0</ele><time>2026-04-04T06:32:22.998Z</time></trkpt><trkpt lat="50.76631805371075" lon="15.711238808357407"><ele>1014.0</ele><time>2026-04-04T06:32:38Z</time></trkpt><trkpt lat="50.76628897998077" lon="15.711148359115237"><ele>1014.0</ele><time>2026-04-04T06:32:54Z</time></trkpt><trkpt lat="50.76627932273172" lon="15.711040587718367"><ele>1014.0</ele><time>2026-04-04T06:33:10.999Z</time></trkpt><trkpt lat="50.766255226134284" lon="15.710940322333354"><ele>1014.0</ele><time>2026-04-04T06:33:24.999Z</time></trkpt><trkpt lat="50.76622669741342" lon="15.71081101489915"><ele>1014.0</ele><time>2026-04-04T06:33:48.998Z</time></trkpt><trkpt lat="50.76621173831075" lon="15.710691953686357"><ele>1014.0</ele><time>2026-04-04T06:34:04.998Z</time></trkpt><trkpt lat="50.76617555174915" lon="15.710600507144274"><ele>1014.0</ele><time>2026-04-04T06:34:16.998Z</time></trkpt><trkpt lat="50.76616059994868" lon="15.710489277820837"><ele>1016.1428571428571</ele><time>2026-04-04T06:35:00Z</time></trkpt><trkpt lat="50.76616731911996" lon="15.710376312487469"><ele>1018.2857142857143</ele><time>2026-04-04T06:35:14.999Z</time></trkpt><trkpt lat="50.766167566705164" lon="15.710266846412846"><ele>1020.4285714285714</ele><time>2026-04-04T06:35:26.999Z</time></trkpt><trkpt lat="50.76616642607766" lon="15.710166944349387"><ele>1022.5714285714286</ele><time>2026-04-04T06:35:35.999Z</time></trkpt><trkpt lat="50.76616341686632" lon="15.710060184834049"><ele>1024.7142857142858</ele><time>2026-04-04T06:35:45.999Z</time></trkpt><trkpt lat="50.766168353326805" lon="15.709955425985463"><ele>1026.857142857143</ele><time>2026-04-04T06:36:00.998Z</time></trkpt><trkpt lat="50.76615858877743" lon="15.709848712861985"><ele>1029.0</ele><time>2026-04-04T06:36:19.998Z</time></trkpt><trkpt lat="50.76618578219741" lon="15.709751432291352"><ele>1030.7142857142858</ele><time>2026-04-04T06:36:29.998Z</time></trkpt><trkpt lat="50.76617947073907" lon="15.709651925791107"><ele>1032.4285714285716</ele><time>2026-04-04T06:36:36.998Z</time></trkpt><trkpt lat="50.766187486130676" lon="15.709548585292763"><ele>1034.142857142857</ele><time>2026-04-04T06:36:47Z</time></trkpt><trkpt lat="50.76618288214941" lon="15.709443259584296"><ele>1035.857142857143</ele><time>2026-04-04T06:36:53Z</time></trkpt><trkpt lat="50.76618802340738" lon="15.709327894735132"><ele>1037.5714285714287</ele><time>2026-04-04T06:37:01Z</time></trkpt><trkpt lat="50.766189708149206" lon="15.709220284260187"><ele>1039.2857142857142</ele><time>2026-04-04T06:38:03.998Z</time></trkpt><trkpt lat="50.76619243251199" lon="15.709114915443585"><ele>1041.0</ele><time>2026-04-04T06:38:28.998Z</time></trkpt><trkpt lat="50.766226456285864" lon="15.709024723935581"><ele>1042.2857142857142</ele><time>2026-04-04T06:38:36.998Z</time></trkpt><trkpt lat="50.76623939405671" lon="15.708914813926626"><ele>1043.5714285714287</ele><time>2026-04-04T06:38:51Z</time></trkpt><trkpt lat="50.76628878473013" lon="15.708853046270288"><ele>1044.857142857143</ele><time>2026-04-04T06:39:00Z</time></trkpt><trkpt lat="50.766277116750004" lon="15.708749637982608"><ele>1046.142857142857</ele><time>2026-04-04T06:39:10Z</time></trkpt><trkpt lat="50.76632533946799" lon="15.70865926890646"><ele>1047.4285714285716</ele><time>2026-04-04T06:39:27.999Z</time></trkpt><trkpt lat="50.76635604026123" lon="15.708571476627283"><ele>1048.7142857142858</ele><time>2026-04-04T06:39:37.999Z</time></trkpt><trkpt lat="50.76636293308532" lon="15.708459116214707"><ele>1050.0</ele><time>2026-04-04T06:39:50.999Z</time></trkpt><trkpt lat="50.766370767528294" lon="15.708358657021936"><ele>1050.4285714285713</ele><time>2026-04-04T06:39:59.999Z</time></trkpt><trkpt lat="50.76638049294091" lon="15.708249249795704"><ele>1050.857142857143</ele><time>2026-04-04T06:40:11.998Z</time></trkpt><trkpt lat="50.76639448060894" lon="15.708139942835857"><ele>1051.2857142857142</ele><time>2026-04-04T06:40:20.998Z</time></trkpt><trkpt lat="50.76641129849247" lon="15.70804127552421"><ele>1051.7142857142858</ele><time>2026-04-04T06:40:31.998Z</time></trkpt><trkpt lat="50.766433291039036" lon="15.707935460057012"><ele>1052.142857142857</ele><time>2026-04-04T06:40:40.998Z</time></trkpt><trkpt lat="50.76645526452528" lon="15.707838490106287"><ele>1052.5714285714284</ele><time>2026-04-04T06:40:53.997Z</time></trkpt><trkpt lat="50.76644309864616" lon="15.707738290641897"><ele>1053.0</ele><time>2026-04-04T06:46:51.998Z</time></trkpt><trkpt lat="50.76640975132247" lon="15.707641313973427"><ele>1053.4285714285713</ele><time>2026-04-04T06:47:00.998Z</time></trkpt><trkpt lat="50.76637543163744" lon="15.707557839748148"><ele>1053.857142857143</ele><time>2026-04-04T06:47:08.998Z</time></trkpt><trkpt lat="50.766357953252765" lon="15.707457292555835"><ele>1054.2857142857142</ele><time>2026-04-04T06:47:33Z</time></trkpt><trkpt lat="50.76631551916458" lon="15.7073678812276"><ele>1054.7142857142858</ele><time>2026-04-04T06:47:40Z</time></trkpt><trkpt lat="50.76627393947738" lon="15.707284247054433"><ele>1055.142857142857</ele><time>2026-04-04T06:47:49.999Z</time></trkpt><trkpt lat="50.76623998309112" lon="15.707198856695461"><ele>1055.5714285714284</ele><time>2026-04-04T06:48:00.999Z</time></trkpt><trkpt lat="50.76620222920384" lon="15.707113385489343"><ele>1056.0</ele><time>2026-04-04T06:48:09.999Z</time></trkpt><trkpt lat="50.766160861806355" lon="15.707030455461108"><ele>1056.0</ele><time>2026-04-04T06:48:17.999Z</time></trkpt><trkpt lat="50.76612476696818" lon="15.706943677807644"><ele>1056.0</ele><time>2026-04-04T06:48:25.999Z</time></trkpt><trkpt lat="50.766083033736116" lon="15.706866507865751"><ele>1056.0</ele><time>2026-04-04T06:48:33.998Z</time></trkpt><trkpt lat="50.7660559316581" lon="15.706770511865912"><ele>1056.0</ele><time>2026-04-04T06:48:41.998Z</time></trkpt><trkpt lat="50.76600714968382" lon="15.706685228204906"><ele>1056.0</ele><time>2026-04-04T06:48:49.998Z</time></trkpt><trkpt lat="50.76596057927552" lon="15.70659547259639"><ele>1056.0</ele><time>2026-04-04T06:48:58.998Z</time></trkpt><trkpt lat="50.76591545455892" lon="15.706511680358712"><ele>1056.0</ele><time>2026-04-04T06:49:07.998Z</time></trkpt><trkpt lat="50.7658769115544" lon="15.70643015023282"><ele>1056.0</ele><time>2026-04-04T06:49:15.997Z</time></trkpt><trkpt lat="50.76583615570049" lon="15.706344880678273"><ele>1056.0</ele><time>2026-04-04T06:49:23Z</time></trkpt><trkpt lat="50.76579537027285" lon="15.706254730530985"><ele>1056.0</ele><time>2026-04-04T06:49:33Z</time></trkpt><trkpt lat="50.765750121651145" lon="15.706173595572174"><ele>1056.0</ele><time>2026-04-04T06:49:42Z</time></trkpt><trkpt lat="50.765712741692795" lon="15.706079766032229"><ele>1056.0</ele><time>2026-04-04T06:49:51Z</time></trkpt><trkpt lat="50.765667624082" lon="15.705995282260233"><ele>1056.0</ele><time>2026-04-04T06:49:59.999Z</time></trkpt><trkpt lat="50.76562020997393" lon="15.705913555663612"><ele>1056.0</ele><time>2026-04-04T06:50:09.999Z</time></trkpt><trkpt lat="50.765581560740095" lon="15.705820960847653"><ele>1056.857142857143</ele><time>2026-04-04T06:50:21.999Z</time></trkpt><trkpt lat="50.76554856650638" lon="15.705734764779228"><ele>1057.7142857142858</ele><time>2026-04-04T06:50:28.999Z</time></trkpt><trkpt lat="50.7655097286591" lon="15.705623067693486"><ele>1058.5714285714287</ele><time>2026-04-04T06:50:39.998Z</time></trkpt><trkpt lat="50.76546198384907" lon="15.705547285218788"><ele>1059.4285714285716</ele><time>2026-04-04T06:50:49.998Z</time></trkpt><trkpt lat="50.765423010145774" lon="15.70546105392244"><ele>1060.2857142857144</ele><time>2026-04-04T06:50:56.998Z</time></trkpt><trkpt lat="50.765388659359985" lon="15.705375525345628"><ele>1061.142857142857</ele><time>2026-04-04T06:51:06.998Z</time></trkpt><trkpt lat="50.76534570305035" lon="15.705298385838512"><ele>1062.0</ele><time>2026-04-04T06:51:14.998Z</time></trkpt><trkpt lat="50.76530894302272" lon="15.705215343785765"><ele>1062.5714285714287</ele><time>2026-04-04T06:51:23.997Z</time></trkpt><trkpt lat="50.76527845534646" lon="15.705124588663386"><ele>1063.1428571428573</ele><time>2026-04-04T06:51:33Z</time></trkpt><trkpt lat="50.76524607292536" lon="15.705036480156641"><ele>1063.7142857142858</ele><time>2026-04-04T06:51:42Z</time></trkpt><trkpt lat="50.76519889873312" lon="15.70496406901579"><ele>1064.2857142857142</ele><time>2026-04-04T06:51:52Z</time></trkpt><trkpt lat="50.76515699017227" lon="15.70488201459142"><ele>1064.8571428571427</ele><time>2026-04-04T06:52:00.999Z</time></trkpt><trkpt lat="50.765110462920696" lon="15.70480148565656"><ele>1065.4285714285713</ele><time>2026-04-04T06:52:09.999Z</time></trkpt><trkpt lat="50.7650706146915" lon="15.704706507457685"><ele>1066.0</ele><time>2026-04-04T06:52:18.999Z</time></trkpt><trkpt lat="50.76502417131903" lon="15.704631704772567"><ele>1066.4285714285713</ele><time>2026-04-04T06:52:27.999Z</time></trkpt><trkpt lat="50.765071159251356" lon="15.704542775958028"><ele>1066.8571428571427</ele><time>2026-04-04T06:52:47.998Z</time></trkpt><trkpt lat="50.76510134793502" lon="15.704442217956275"><ele>1067.2857142857142</ele><time>2026-04-04T06:52:53.998Z</time></trkpt><trkpt lat="50.76514008203332" lon="15.70434770809091"><ele>1067.7142857142858</ele><time>2026-04-04T06:53:01.998Z</time></trkpt><trkpt lat="50.765199573989946" lon="15.704300258004956"><ele>1068.1428571428573</ele><time>2026-04-04T06:53:09.998Z</time></trkpt><trkpt lat="50.765270677712444" lon="15.70425238069739"><ele>1068.5714285714287</ele><time>2026-04-04T06:53:18.998Z</time></trkpt><trkpt lat="50.76532675955814" lon="15.704188184668098"><ele>1069.0</ele><time>2026-04-04T06:53:29.997Z</time></trkpt><trkpt lat="50.76538964108406" lon="15.70414386612276"><ele>1069.2857142857142</ele><time>2026-04-04T06:53:40Z</time></trkpt><trkpt lat="50.76544965330274" lon="15.704105952465785"><ele>1069.5714285714287</ele><time>2026-04-04T06:53:48Z</time></trkpt><trkpt lat="50.76551331673664" lon="15.704062952378095"><ele>1069.857142857143</ele><time>2026-04-04T06:53:57Z</time></trkpt><trkpt lat="50.765576825474454" lon="15.704021144912806"><ele>1070.142857142857</ele><time>2026-04-04T06:54:15.999Z</time></trkpt><trkpt lat="50.765643161048715" lon="15.703977245275583"><ele>1070.4285714285716</ele><time>2026-04-04T06:54:26.999Z</time></trkpt><trkpt lat="50.765703840419846" lon="15.703931418334394"><ele>1070.7142857142858</ele><time>2026-04-04T06:54:34.999Z</time></trkpt><trkpt lat="50.76576831347211" lon="15.70390179740988"><ele>1071.0</ele><time>2026-04-04T06:54:42.999Z</time></trkpt><trkpt lat="50.76582494327109" lon="15.703851762562273"><ele>1071.0</ele><time>2026-04-04T06:54:49.998Z</time></trkpt><trkpt lat="50.76589156709856" lon="15.703843947138166"><ele>1071.0</ele><time>2026-04-04T06:54:55.998Z</time></trkpt><trkpt lat="50.765952611872734" lon="15.703781477437625"><ele>1071.0</ele><time>2026-04-04T06:55:05.998Z</time></trkpt><trkpt lat="50.76601707752203" lon="15.703797426360016"><ele>1071.0</ele><time>2026-04-04T06:55:13.998Z</time></trkpt><trkpt lat="50.766079948223044" lon="15.703789187733697"><ele>1071.0</ele><time>2026-04-04T06:55:19.998Z</time></trkpt><trkpt lat="50.76613452395844" lon="15.703729322612283"><ele>1071.0</ele><time>2026-04-04T06:55:33.997Z</time></trkpt><trkpt lat="50.76620072801168" lon="15.703706332325002"><ele>1071.0</ele><time>2026-04-04T06:55:41Z</time></trkpt><trkpt lat="50.76627490321992" lon="15.70367044001281"><ele>1071.142857142857</ele><time>2026-04-04T06:55:52Z</time></trkpt><trkpt lat="50.7663382483318" lon="15.703638142006412"><ele>1071.2857142857142</ele><time>2026-04-04T06:55:58Z</time></trkpt><trkpt lat="50.766407391750064" lon="15.703608406505438"><ele>1071.4285714285716</ele><time>2026-04-04T06:56:08Z</time></trkpt><trkpt lat="50.76646737914017" lon="15.703575767475215"><ele>1071.5714285714284</ele><time>2026-04-04T06:56:15.999Z</time></trkpt><trkpt lat="50.766535104529325" lon="15.70354635669335"><ele>1071.7142857142858</ele><time>2026-04-04T06:56:25.999Z</time></trkpt><trkpt lat="50.76660911968873" lon="15.703507588908431"><ele>1071.857142857143</ele><time>2026-04-04T06:56:39.999Z</time></trkpt><trkpt lat="50.76667094451267" lon="15.703479790039774"><ele>1072.0</ele><time>2026-04-04T06:56:48.999Z</time></trkpt><trkpt lat="50.76673397839658" lon="15.703454370816367"><ele>1072.857142857143</ele><time>2026-04-04T06:56:56.998Z</time></trkpt><trkpt lat="50.76680059997513" lon="15.703423769666271"><ele>1073.7142857142858</ele><time>2026-04-04T06:57:03.998Z</time></trkpt><trkpt lat="50.766864494280085" lon="15.703387931763025"><ele>1074.5714285714284</ele><time>2026-04-04T06:57:11.998Z</time></trkpt><trkpt lat="50.76693196363183" lon="15.703354972675616"><ele>1075.4285714285716</ele><time>2026-04-04T06:57:20.998Z</time></trkpt><trkpt lat="50.76700052713296" lon="15.703321073941034"><ele>1076.2857142857142</ele><time>2026-04-04T06:57:29.998Z</time></trkpt><trkpt lat="50.76707227082616" lon="15.703289043400105"><ele>1077.142857142857</ele><time>2026-04-04T06:57:37.997Z</time></trkpt><trkpt lat="50.76713694823312" lon="15.703257413432643"><ele>1078.0</ele><time>2026-04-04T06:57:45Z</time></trkpt><trkpt lat="50.76720513141505" lon="15.703225241152428"><ele>1078.0</ele><time>2026-04-04T06:57:53Z</time></trkpt><trkpt lat="50.7672763027878" lon="15.703202182414053"><ele>1078.0</ele><time>2026-04-04T06:58:01Z</time></trkpt><trkpt lat="50.76734302695485" lon="15.703184238575211"><ele>1078.0</ele><time>2026-04-04T06:58:13Z</time></trkpt><trkpt lat="50.76741657157794" lon="15.703183431062854"><ele>1078.0</ele><time>2026-04-04T06:58:20.999Z</time></trkpt><trkpt lat="50.76748631380696" lon="15.703170513885722"><ele>1078.0</ele><time>2026-04-04T06:58:30.999Z</time></trkpt><trkpt lat="50.767549612160494" lon="15.703159613993092"><ele>1078.0</ele><time>2026-04-04T06:58:37.999Z</time></trkpt><trkpt lat="50.76760042748007" lon="15.70309443061005"><ele>1078.0</ele><time>2026-04-04T06:58:44.999Z</time></trkpt><trkpt lat="50.76766458371983" lon="15.70304448070057"><ele>1079.2857142857142</ele><time>2026-04-04T06:58:54.999Z</time></trkpt><trkpt lat="50.7677269567095" lon="15.703000909032312"><ele>1080.5714285714284</ele><time>2026-04-04T06:59:03.998Z</time></trkpt><trkpt lat="50.76778210508709" lon="15.70294871957843"><ele>1081.857142857143</ele><time>2026-04-04T06:59:15.998Z</time></trkpt><trkpt lat="50.76783807436061" lon="15.70290092811916"><ele>1083.142857142857</ele><time>2026-04-04T06:59:25.998Z</time></trkpt><trkpt lat="50.767892228137406" lon="15.702839893983647"><ele>1084.4285714285713</ele><time>2026-04-04T06:59:36.998Z</time></trkpt><trkpt lat="50.76794893244548" lon="15.70278512002603"><ele>1085.7142857142858</ele><time>2026-04-04T06:59:52Z</time></trkpt><trkpt lat="50.76801483751786" lon="15.702763742173158"><ele>1087.0</ele><time>2026-04-04T07:00:04Z</time></trkpt><trkpt lat="50.76807825209033" lon="15.702737796834967"><ele>1087.857142857143</ele><time>2026-04-04T07:00:16Z</time></trkpt><trkpt lat="50.7681427443058" lon="15.702714662533833"><ele>1088.7142857142856</ele><time>2026-04-04T07:00:27.999Z</time></trkpt><trkpt lat="50.76820724594117" lon="15.702681483527536"><ele>1089.5714285714284</ele><time>2026-04-04T07:00:42.999Z</time></trkpt><trkpt lat="50.76825600605291" lon="15.702609149731657"><ele>1090.4285714285713</ele><time>2026-04-04T07:00:55.999Z</time></trkpt><trkpt lat="50.768300028991035" lon="15.702532274712922"><ele>1091.2857142857142</ele><time>2026-04-04T07:01:10.998Z</time></trkpt><trkpt lat="50.76828624256746" lon="15.702433637943322"><ele>1092.142857142857</ele><time>2026-04-04T07:01:21.998Z</time></trkpt><trkpt lat="50.76833828079164" lon="15.702365578630301"><ele>1093.0</ele><time>2026-04-04T07:01:32.998Z</time></trkpt><trkpt lat="50.768358612997204" lon="15.702260260994395"><ele>1093.0</ele><time>2026-04-04T07:01:48.997Z</time></trkpt><trkpt lat="50.76836601202038" lon="15.702142785992066"><ele>1093.0</ele><time>2026-04-04T07:02:01Z</time></trkpt><trkpt lat="50.768382569751196" lon="15.702036213152718"><ele>1093.0</ele><time>2026-04-04T07:02:15Z</time></trkpt><trkpt lat="50.76837394117768" lon="15.70192995207603"><ele>1093.0</ele><time>2026-04-04T07:02:25Z</time></trkpt><trkpt lat="50.76836888765386" lon="15.701827137342512"><ele>1093.0</ele><time>2026-04-04T07:02:36.999Z</time></trkpt><trkpt lat="50.76837299274104" lon="15.701723314857029"><ele>1093.0</ele><time>2026-04-04T07:02:47.999Z</time></trkpt><trkpt lat="50.76837293819367" lon="15.701617990903841"><ele>1093.0</ele><time>2026-04-04T07:02:57.999Z</time></trkpt><trkpt lat="50.768372169298836" lon="15.701512285531585"><ele>1094.0</ele><time>2026-04-04T07:03:09.999Z</time></trkpt><trkpt lat="50.76837090357835" lon="15.701410706960958"><ele>1095.0</ele><time>2026-04-04T07:03:19.998Z</time></trkpt><trkpt lat="50.76834599658169" lon="15.701310940591185"><ele>1096.0</ele><time>2026-04-04T07:03:36.998Z</time></trkpt><trkpt lat="50.768334719740025" lon="15.701208565054053"><ele>1097.0</ele><time>2026-04-04T07:03:44.998Z</time></trkpt><trkpt lat="50.76832838260051" lon="15.70110762064582"><ele>1098.0</ele><time>2026-04-04T07:03:51.998Z</time></trkpt><trkpt lat="50.76831996296729" lon="15.700994343006403"><ele>1099.0</ele><time>2026-04-04T07:04:02Z</time></trkpt><trkpt lat="50.768298513573654" lon="15.700896446564784"><ele>1100.0</ele><time>2026-04-04T07:04:09Z</time></trkpt><trkpt lat="50.76828582965088" lon="15.700795516685778"><ele>1101.142857142857</ele><time>2026-04-04T07:04:19Z</time></trkpt><trkpt lat="50.76826383121788" lon="15.700691053714067"><ele>1102.2857142857142</ele><time>2026-04-04T07:04:27Z</time></trkpt><trkpt lat="50.76824103072744" lon="15.7005857847323"><ele>1103.4285714285713</ele><time>2026-04-04T07:04:37.999Z</time></trkpt><trkpt lat="50.76822996534871" lon="15.7004840519397"><ele>1104.5714285714284</ele><time>2026-04-04T07:04:48.999Z</time></trkpt><trkpt lat="50.76820238669057" lon="15.70038676196011"><ele>1105.7142857142856</ele><time>2026-04-04T07:04:55.999Z</time></trkpt><trkpt lat="50.768176124246736" lon="15.700286947013911"><ele>1106.857142857143</ele><time>2026-04-04T07:05:05.999Z</time></trkpt><trkpt lat="50.768170931897416" lon="15.700182026105642"><ele>1108.0</ele><time>2026-04-04T07:05:39.998Z</time></trkpt><trkpt lat="50.76814591342999" lon="15.700061296461019"><ele>1109.142857142857</ele><time>2026-04-04T07:05:51.998Z</time></trkpt><trkpt lat="50.7681150974393" lon="15.69997412576914"><ele>1110.2857142857142</ele><time>2026-04-04T07:06:02.998Z</time></trkpt><trkpt lat="50.768119655560575" lon="15.699873599267352"><ele>1111.4285714285713</ele><time>2026-04-04T07:06:12Z</time></trkpt><trkpt lat="50.768113123232176" lon="15.699770521053852"><ele>1112.5714285714284</ele><time>2026-04-04T07:06:25Z</time></trkpt><trkpt lat="50.76809735159689" lon="15.699661747604287"><ele>1113.7142857142858</ele><time>2026-04-04T07:06:39Z</time></trkpt><trkpt lat="50.768082099862184" lon="15.699558300763961"><ele>1114.8571428571427</ele><time>2026-04-04T07:06:49.999Z</time></trkpt><trkpt lat="50.76807796601632" lon="15.699447971844677"><ele>1116.0</ele><time>2026-04-04T07:07:09.999Z</time></trkpt><trkpt lat="50.768055076619355" lon="15.69934932667999"><ele>1117.142857142857</ele><time>2026-04-04T07:07:19.999Z</time></trkpt><trkpt lat="50.76802900210138" lon="15.699246348977905"><ele>1118.2857142857142</ele><time>2026-04-04T07:07:31.998Z</time></trkpt><trkpt lat="50.7680001548866" lon="15.699150604675369"><ele>1119.4285714285716</ele><time>2026-04-04T07:07:49.998Z</time></trkpt><trkpt lat="50.767991203801905" lon="15.699047478847769"><ele>1120.5714285714284</ele><time>2026-04-04T07:08:06.997Z</time></trkpt><trkpt lat="50.76795777087866" lon="15.69895751462245"><ele>1121.7142857142858</ele><time>2026-04-04T07:08:18Z</time></trkpt><trkpt lat="50.7679442439934" lon="15.698856279889355"><ele>1122.857142857143</ele><time>2026-04-04T07:08:29Z</time></trkpt><trkpt lat="50.76791725243356" lon="15.698754386413498"><ele>1124.0</ele><time>2026-04-04T07:08:44.999Z</time></trkpt><trkpt lat="50.76790634169487" lon="15.698649025964867"><ele>1125.4285714285716</ele><time>2026-04-04T07:08:55.999Z</time></trkpt><trkpt lat="50.76789360823202" lon="15.698525960810992"><ele>1126.857142857143</ele><time>2026-04-04T07:10:07.998Z</time></trkpt><trkpt lat="50.767854257024254" lon="15.698446667097096"><ele>1128.2857142857142</ele><time>2026-04-04T07:10:18Z</time></trkpt><trkpt lat="50.76785455253052" lon="15.698341461335362"><ele>1129.7142857142858</ele><time>2026-04-04T07:10:44Z</time></trkpt><trkpt lat="50.76783973706656" lon="15.698241005747537"><ele>1131.142857142857</ele><time>2026-04-04T07:10:53.999Z</time></trkpt><trkpt lat="50.767820102278755" lon="15.698145946695444"><ele>1132.5714285714287</ele><time>2026-04-04T07:11:13.999Z</time></trkpt><trkpt lat="50.76780637824412" lon="15.698038780374201"><ele>1134.0</ele><time>2026-04-04T07:11:36.998Z</time></trkpt><trkpt lat="50.76778645664791" lon="15.69793548505786"><ele>1134.0</ele><time>2026-04-04T07:11:56.998Z</time></trkpt><trkpt lat="50.76777719505729" lon="15.697828977363713"><ele>1134.0</ele><time>2026-04-04T07:12:07.998Z</time></trkpt><trkpt lat="50.76774471718216" lon="15.697742362995529"><ele>1134.0</ele><time>2026-04-04T07:12:22.997Z</time></trkpt><trkpt lat="50.76771657207701" lon="15.69762665483916"><ele>1134.0</ele><time>2026-04-04T07:12:34Z</time></trkpt><trkpt lat="50.76770678366265" lon="15.697505463061107"><ele>1134.0</ele><time>2026-04-04T07:12:52Z</time></trkpt><trkpt lat="50.76770806645579" lon="15.697405851845785"><ele>1134.0</ele><time>2026-04-04T07:13:06.999Z</time></trkpt><trkpt lat="50.76769818801303" lon="15.697303383393614"><ele>1134.0</ele><time>2026-04-04T07:13:16.999Z</time></trkpt><trkpt lat="50.767716160584925" lon="15.69719916729391"><ele>1135.4285714285713</ele><time>2026-04-04T07:13:27.999Z</time></trkpt><trkpt lat="50.767695456909244" lon="15.697097084834384"><ele>1136.857142857143</ele><time>2026-04-04T07:13:38.999Z</time></trkpt><trkpt lat="50.76768999846766" lon="15.696994405621412"><ele>1138.2857142857142</ele><time>2026-04-04T07:13:49.998Z</time></trkpt><trkpt lat="50.767675046725785" lon="15.69689303248754"><ele>1139.7142857142858</ele><time>2026-04-04T07:14:14.998Z</time></trkpt><trkpt lat="50.767669433762514" lon="15.696793628675787"><ele>1141.142857142857</ele><time>2026-04-04T07:14:30Z</time></trkpt><trkpt lat="50.767670620836874" lon="15.69669270264919"><ele>1142.5714285714284</ele><time>2026-04-04T07:14:41Z</time></trkpt><trkpt lat="50.76767548590934" lon="15.69658755052135"><ele>1144.0</ele><time>2026-04-04T07:14:52Z</time></trkpt><trkpt lat="50.76767815388272" lon="15.696486549611548"><ele>1145.4285714285713</ele><time>2026-04-04T07:15:03Z</time></trkpt><trkpt lat="50.767683679452546" lon="15.696377565126486"><ele>1146.857142857143</ele><time>2026-04-04T07:15:16.999Z</time></trkpt><trkpt lat="50.76771026261577" lon="15.69628064245996"><ele>1148.2857142857142</ele><time>2026-04-04T07:15:34.999Z</time></trkpt><trkpt lat="50.76766215184835" lon="15.696210772763848"><ele>1149.7142857142858</ele><time>2026-04-04T07:15:51.998Z</time></trkpt><trkpt lat="50.767702675016665" lon="15.696132940020565"><ele>1151.142857142857</ele><time>2026-04-04T07:16:03.998Z</time></trkpt><trkpt lat="50.767689914969765" lon="15.696018141375642"><ele>1152.5714285714284</ele><time>2026-04-04T07:16:15.998Z</time></trkpt><trkpt lat="50.76773179337978" lon="15.695935127517908"><ele>1154.0</ele><time>2026-04-04T07:16:38Z</time></trkpt><trkpt lat="50.76773526910032" lon="15.695834855868407"><ele>1155.2857142857142</ele><time>2026-04-04T07:16:51Z</time></trkpt><trkpt lat="50.76776026097801" lon="15.69574196540228"><ele>1156.5714285714287</ele><time>2026-04-04T07:17:01Z</time></trkpt><trkpt lat="50.76778980853306" lon="15.695653733056067"><ele>1157.857142857143</ele><time>2026-04-04T07:17:12.999Z</time></trkpt><trkpt lat="50.76776172084118" lon="15.695550908040977"><ele>1159.142857142857</ele><time>2026-04-04T07:17:40.999Z</time></trkpt><trkpt lat="50.76772605179623" lon="15.695465968669298"><ele>1160.4285714285713</ele><time>2026-04-04T07:17:49.999Z</time></trkpt><trkpt lat="50.76772364228932" lon="15.695365346818095"><ele>1161.7142857142858</ele><time>2026-04-04T07:18:02.998Z</time></trkpt><trkpt lat="50.76772178036269" lon="15.695245798896131"><ele>1163.0</ele><time>2026-04-04T07:18:15.998Z</time></trkpt><trkpt lat="50.76774359475555" lon="15.695134224706502"><ele>1164.5714285714287</ele><time>2026-04-04T07:18:23.998Z</time></trkpt><trkpt lat="50.767776153560675" lon="15.69504268363886"><ele>1166.142857142857</ele><time>2026-04-04T07:18:37.997Z</time></trkpt><trkpt lat="50.767740263391204" lon="15.6949566486607"><ele>1167.7142857142858</ele><time>2026-04-04T07:19:52.999Z</time></trkpt><trkpt lat="50.767716519187026" lon="15.69485887111185"><ele>1169.2857142857142</ele><time>2026-04-04T07:20:01.998Z</time></trkpt><trkpt lat="50.767741666554244" lon="15.694746611041847"><ele>1170.857142857143</ele><time>2026-04-04T07:20:07.998Z</time></trkpt><trkpt lat="50.76774486556992" lon="15.694643519331681"><ele>1172.4285714285716</ele><time>2026-04-04T07:20:16.998Z</time></trkpt><trkpt lat="50.767778402252205" lon="15.694549149998446"><ele>1174.0</ele><time>2026-04-04T07:20:25.998Z</time></trkpt><trkpt lat="50.76782292655249" lon="15.694471341878113"><ele>1175.5714285714287</ele><time>2026-04-04T07:20:37.998Z</time></trkpt><trkpt lat="50.76786240093687" lon="15.694387856844905"><ele>1177.1428571428573</ele><time>2026-04-04T07:20:49Z</time></trkpt><trkpt lat="50.76790300122543" lon="15.694311233097755"><ele>1178.7142857142858</ele><time>2026-04-04T07:20:57Z</time></trkpt><trkpt lat="50.7679514937565" lon="15.694237578496628"><ele>1180.2857142857142</ele><time>2026-04-04T07:21:07Z</time></trkpt><trkpt lat="50.767994573450224" lon="15.694159835931757"><ele>1181.8571428571427</ele><time>2026-04-04T07:21:22.999Z</time></trkpt><trkpt lat="50.76805316905502" lon="15.694054713295568"><ele>1183.4285714285713</ele><time>2026-04-04T07:23:15Z</time></trkpt><trkpt lat="50.76805964741439" lon="15.693943709395066"><ele>1185.0</ele><time>2026-04-04T07:23:26Z</time></trkpt><trkpt lat="50.768021802698726" lon="15.693862995914621"><ele>1185.0</ele><time>2026-04-04T07:23:29.999Z</time></trkpt><trkpt lat="50.76806851001596" lon="15.693793569816982"><ele>1185.0</ele><time>2026-04-04T07:23:41.999Z</time></trkpt><trkpt lat="50.76805540834684" lon="15.693691097941125"><ele>1185.0</ele><time>2026-04-04T07:23:58.999Z</time></trkpt><trkpt lat="50.76807412669798" lon="15.69356329000959"><ele>1185.0</ele><time>2026-04-04T07:24:16.998Z</time></trkpt><trkpt lat="50.7680815890846" lon="15.693451477656508"><ele>1185.0</ele><time>2026-04-04T07:24:35.998Z</time></trkpt><trkpt lat="50.76807086227618" lon="15.693350800789489"><ele>1185.0</ele><time>2026-04-04T07:24:53.998Z</time></trkpt><trkpt lat="50.768028459198945" lon="15.69326748622394"><ele>1185.0</ele><time>2026-04-04T07:25:18Z</time></trkpt><trkpt lat="50.767958054439326" lon="15.693200226808422"><ele>1186.7142857142858</ele><time>2026-04-04T07:25:34Z</time></trkpt><trkpt lat="50.76793175073821" lon="15.693104342532841"><ele>1188.4285714285713</ele><time>2026-04-04T07:25:44.999Z</time></trkpt><trkpt lat="50.76789629771043" lon="15.693010810084822"><ele>1190.142857142857</ele><time>2026-04-04T07:26:25.998Z</time></trkpt><trkpt lat="50.76784522212768" lon="15.692949837060574"><ele>1191.857142857143</ele><time>2026-04-04T07:29:12Z</time></trkpt><trkpt lat="50.76778082601286" lon="15.692939718314815"><ele>1193.5714285714284</ele><time>2026-04-04T07:29:23Z</time></trkpt><trkpt lat="50.76772585020749" lon="15.692875150337416"><ele>1195.2857142857142</ele><time>2026-04-04T07:29:33Z</time></trkpt><trkpt lat="50.767688125885286" lon="15.692791949369479"><ele>1197.0</ele><time>2026-04-04T07:29:43Z</time></trkpt><trkpt lat="50.7676466518505" lon="15.692716832059407"><ele>1198.4285714285713</ele><time>2026-04-04T07:30:02.999Z</time></trkpt><trkpt lat="50.767588403227954" lon="15.692615689427342"><ele>1199.857142857143</ele><time>2026-04-04T07:30:10.999Z</time></trkpt><trkpt lat="50.76753908402248" lon="15.692546769476865"><ele>1201.2857142857142</ele><time>2026-04-04T07:30:17.999Z</time></trkpt><trkpt lat="50.767483823980655" lon="15.692487564356446"><ele>1202.7142857142858</ele><time>2026-04-04T07:30:47.998Z</time></trkpt><trkpt lat="50.767459268675815" lon="15.69239528835169"><ele>1204.142857142857</ele><time>2026-04-04T07:30:55.998Z</time></trkpt><trkpt lat="50.767409233866196" lon="15.692332625756892"><ele>1205.5714285714284</ele><time>2026-04-04T07:31:03.998Z</time></trkpt><trkpt lat="50.767386514368" lon="15.692233288699576"><ele>1207.0</ele><time>2026-04-04T07:31:18Z</time></trkpt><trkpt lat="50.76733660634221" lon="15.692162711977003"><ele>1206.9999999999998</ele><time>2026-04-04T07:31:26Z</time></trkpt><trkpt lat="50.76730205372893" lon="15.692064538498899"><ele>1207.0</ele><time>2026-04-04T07:31:34Z</time></trkpt><trkpt lat="50.76724991381817" lon="15.691968701534789"><ele>1207.0</ele><time>2026-04-04T07:31:42Z</time></trkpt><trkpt lat="50.76720906158866" lon="15.691877898597383"><ele>1207.0</ele><time>2026-04-04T07:31:53.999Z</time></trkpt><trkpt lat="50.76717424477398" lon="15.691794913079342"><ele>1207.0</ele><time>2026-04-04T07:32:01.999Z</time></trkpt><trkpt lat="50.76713463553816" lon="15.691696829730665"><ele>1206.9999999999998</ele><time>2026-04-04T07:32:10.999Z</time></trkpt><trkpt lat="50.767098469505825" lon="15.691614666268885"><ele>1207.0</ele><time>2026-04-04T07:32:17.999Z</time></trkpt><trkpt lat="50.76706047487435" lon="15.691527672494558"><ele>1207.7142857142856</ele><time>2026-04-04T07:32:26.999Z</time></trkpt><trkpt lat="50.76700607344702" lon="15.69144584255795"><ele>1208.4285714285713</ele><time>2026-04-04T07:33:02.998Z</time></trkpt><trkpt lat="50.7669661209251" lon="15.691367485327813"><ele>1209.142857142857</ele><time>2026-04-04T07:33:09.998Z</time></trkpt><trkpt lat="50.76693369723522" lon="15.691279562988557"><ele>1209.8571428571427</ele><time>2026-04-04T07:33:16.997Z</time></trkpt><trkpt lat="50.76689715148501" lon="15.691194425427955"><ele>1210.5714285714284</ele><time>2026-04-04T07:33:26Z</time></trkpt><trkpt lat="50.766856337565855" lon="15.691103751187912"><ele>1211.2857142857142</ele><time>2026-04-04T07:33:39Z</time></trkpt><trkpt lat="50.766829605670104" lon="15.691009727402177"><ele>1212.0</ele><time>2026-04-04T07:33:55.999Z</time></trkpt><trkpt lat="50.766796622917205" lon="15.69091937289295"><ele>1213.857142857143</ele><time>2026-04-04T07:34:07.999Z</time></trkpt><trkpt lat="50.766744724251126" lon="15.690853238364745"><ele>1215.7142857142858</ele><time>2026-04-04T07:34:17.999Z</time></trkpt><trkpt lat="50.76670274645618" lon="15.690774579010712"><ele>1217.5714285714284</ele><time>2026-04-04T07:34:28.999Z</time></trkpt><trkpt lat="50.76666498879492" lon="15.69067663908462"><ele>1219.4285714285716</ele><time>2026-04-04T07:34:44.998Z</time></trkpt><trkpt lat="50.766641840973534" lon="15.690547234474591"><ele>1221.2857142857142</ele><time>2026-04-04T07:35:02.998Z</time></trkpt><trkpt lat="50.76657863511599" lon="15.690514374227496"><ele>1223.142857142857</ele><time>2026-04-04T07:35:07.998Z</time></trkpt><trkpt lat="50.76654175588765" lon="15.690429724897477"><ele>1225.0</ele><time>2026-04-04T07:35:16.998Z</time></trkpt><trkpt lat="50.7664881425475" lon="15.690373277503038"><ele>1225.0</ele><time>2026-04-04T07:35:28.997Z</time></trkpt><trkpt lat="50.766459353701165" lon="15.690270371293808"><ele>1225.0</ele><time>2026-04-04T07:35:41Z</time></trkpt><trkpt lat="50.766394160056834" lon="15.690193360331655"><ele>1225.0</ele><time>2026-04-04T07:35:55Z</time></trkpt><trkpt lat="50.76647432328494" lon="15.690169161082562"><ele>1225.0</ele><time>2026-04-04T07:36:23.999Z</time></trkpt><trkpt lat="50.76641208848911" lon="15.69013569223874"><ele>1225.0</ele><time>2026-04-04T07:36:28.999Z</time></trkpt><trkpt lat="50.766366780879196" lon="15.6900568734595"><ele>1225.0</ele><time>2026-04-04T07:36:38.999Z</time></trkpt><trkpt lat="50.766330960509066" lon="15.68996743859257"><ele>1225.0</ele><time>2026-04-04T07:36:48.998Z</time></trkpt><trkpt lat="50.76627677961277" lon="15.689916330744232"><ele>1226.0</ele><time>2026-04-04T07:37:25.998Z</time></trkpt><trkpt lat="50.76625351486136" lon="15.689817429175571"><ele>1227.0</ele><time>2026-04-04T07:37:38Z</time></trkpt><trkpt lat="50.76618039269209" lon="15.68975480272246"><ele>1228.0</ele><time>2026-04-04T07:38:10Z</time></trkpt><trkpt lat="50.76617281189204" lon="15.689650409441404"><ele>1229.0</ele><time>2026-04-04T07:38:19.999Z</time></trkpt><trkpt lat="50.766114326388575" lon="15.689568417154288"><ele>1230.0</ele><time>2026-04-04T07:38:30.999Z</time></trkpt><trkpt lat="50.76607125262881" lon="15.689476753781713"><ele>1231.0</ele><time>2026-04-04T07:38:47.999Z</time></trkpt><trkpt lat="50.76600322906241" lon="15.689465419495033"><ele>1232.0</ele><time>2026-04-04T07:39:20.998Z</time></trkpt><trkpt lat="50.766008942830226" lon="15.68936447712995"><ele>1234.7142857142858</ele><time>2026-04-04T07:39:30.998Z</time></trkpt><trkpt lat="50.7659759883696" lon="15.689268790145654"><ele>1237.4285714285716</ele><time>2026-04-04T07:39:39.998Z</time></trkpt><trkpt lat="50.7659145621532" lon="15.689187729456194"><ele>1240.142857142857</ele><time>2026-04-04T07:39:58Z</time></trkpt><trkpt lat="50.76584794536197" lon="15.68915022141199"><ele>1242.857142857143</ele><time>2026-04-04T07:40:21.999Z</time></trkpt><trkpt lat="50.765851980454734" lon="15.689049906817244"><ele>1245.5714285714287</ele><time>2026-04-04T07:40:34.999Z</time></trkpt><trkpt lat="50.76581703637552" lon="15.688960239835108"><ele>1248.2857142857142</ele><time>2026-04-04T07:40:58.998Z</time></trkpt><trkpt lat="50.7657716501175" lon="15.688882753711068"><ele>1251.0</ele><time>2026-04-04T07:41:10.998Z</time></trkpt><trkpt lat="50.76572071664323" lon="15.68881460067903"><ele>1251.0</ele><time>2026-04-04T07:41:24.998Z</time></trkpt><trkpt lat="50.76568097857007" lon="15.68873716742531"><ele>1251.0</ele><time>2026-04-04T07:41:34.998Z</time></trkpt><trkpt lat="50.76561818219089" lon="15.688625124989654"><ele>1251.0</ele><time>2026-04-04T07:41:59Z</time></trkpt><trkpt lat="50.765566547575915" lon="15.688515499408979"><ele>1251.0</ele><time>2026-04-04T07:42:26.999Z</time></trkpt><trkpt lat="50.765509562933616" lon="15.68845929513442"><ele>1251.0</ele><time>2026-04-04T07:42:33.999Z</time></trkpt><trkpt lat="50.765445743663356" lon="15.6884345734951"><ele>1251.0</ele><time>2026-04-04T07:42:43.999Z</time></trkpt><trkpt lat="50.76542398600067" lon="15.6883348447488"><ele>1251.0</ele><time>2026-04-04T07:42:56.999Z</time></trkpt><trkpt lat="50.76537735059798" lon="15.688254903793748"><ele>1251.5714285714284</ele><time>2026-04-04T07:43:10.998Z</time></trkpt><trkpt lat="50.76532138413794" lon="15.688187152120216"><ele>1252.1428571428573</ele><time>2026-04-04T07:43:26.998Z</time></trkpt><trkpt lat="50.76526894250694" lon="15.688099114873797"><ele>1252.7142857142858</ele><time>2026-04-04T07:43:42.998Z</time></trkpt><trkpt lat="50.765208582926505" lon="15.688063324952475"><ele>1253.2857142857142</ele><time>2026-04-04T07:44:16Z</time></trkpt><trkpt lat="50.76516447257391" lon="15.687973926608452"><ele>1253.8571428571427</ele><time>2026-04-04T07:44:33.999Z</time></trkpt><trkpt lat="50.7651156533077" lon="15.687908830527327"><ele>1254.4285714285716</ele><time>2026-04-04T07:44:42.999Z</time></trkpt><trkpt lat="50.765043812839274" lon="15.687894056915797"><ele>1255.0</ele><time>2026-04-04T07:45:33.998Z</time></trkpt><trkpt lat="50.764985244812486" lon="15.687848903648588"><ele>1256.857142857143</ele><time>2026-04-04T07:45:49.998Z</time></trkpt><trkpt lat="50.76493187770561" lon="15.687790766712771"><ele>1258.7142857142856</ele><time>2026-04-04T07:46:07Z</time></trkpt><trkpt lat="50.764875146000406" lon="15.68774470540425"><ele>1260.5714285714284</ele><time>2026-04-04T07:46:29Z</time></trkpt><trkpt lat="50.764817029502524" lon="15.687695441926243"><ele>1262.4285714285716</ele><time>2026-04-04T07:46:44.999Z</time></trkpt><trkpt lat="50.7647629856469" lon="15.68763932896915"><ele>1264.2857142857142</ele><time>2026-04-04T07:46:58.999Z</time></trkpt><trkpt lat="50.76470108808018" lon="15.687597977356818"><ele>1266.142857142857</ele><time>2026-04-04T07:47:19.998Z</time></trkpt><trkpt lat="50.76464688550785" lon="15.6875433465735"><ele>1268.0</ele><time>2026-04-04T07:47:31.998Z</time></trkpt><trkpt lat="50.76458018381296" lon="15.687490701600433"><ele>1269.0</ele><time>2026-04-04T07:47:49.998Z</time></trkpt><trkpt lat="50.76452370807326" lon="15.687433169188083"><ele>1270.0</ele><time>2026-04-04T07:48:10Z</time></trkpt><trkpt lat="50.76446733601431" lon="15.68737778298829"><ele>1271.0</ele><time>2026-04-04T07:48:26Z</time></trkpt><trkpt lat="50.76440483824762" lon="15.687341852382636"><ele>1272.0</ele><time>2026-04-04T07:48:39Z</time></trkpt><trkpt lat="50.76434619818012" lon="15.687299389896639"><ele>1273.0</ele><time>2026-04-04T07:48:50.999Z</time></trkpt><trkpt lat="50.764284308498084" lon="15.687264869875328"><ele>1274.0</ele><time>2026-04-04T07:49:04.999Z</time></trkpt><trkpt lat="50.764231597017485" lon="15.687192722648296"><ele>1275.0</ele><time>2026-04-04T07:49:29.998Z</time></trkpt><trkpt lat="50.76418276158134" lon="15.68712254677415"><ele>1277.0</ele><time>2026-04-04T07:49:44.998Z</time></trkpt><trkpt lat="50.76412155334684" lon="15.687085700316878"><ele>1279.0</ele><time>2026-04-04T07:49:56.998Z</time></trkpt><trkpt lat="50.76402729404559" lon="15.687008057271987"><ele>1281.0</ele><time>2026-04-04T07:50:42Z</time></trkpt><trkpt lat="50.76396587381384" lon="15.686976603274733"><ele>1283.0</ele><time>2026-04-04T07:50:59.999Z</time></trkpt><trkpt lat="50.76390999510842" lon="15.686930218989401"><ele>1285.0</ele><time>2026-04-04T07:51:21.999Z</time></trkpt><trkpt lat="50.76386025512613" lon="15.686860757923009"><ele>1287.0</ele><time>2026-04-04T07:51:37.998Z</time></trkpt><trkpt lat="50.763798489464605" lon="15.686828092180562"><ele>1289.0</ele><time>2026-04-04T07:51:49.998Z</time></trkpt><trkpt lat="50.763740919766036" lon="15.686758034074058"><ele>1289.7142857142858</ele><time>2026-04-04T07:52:02.998Z</time></trkpt><trkpt lat="50.763682120152836" lon="15.686711802379598"><ele>1290.4285714285713</ele><time>2026-04-04T07:52:25Z</time></trkpt><trkpt lat="50.76360986430454" lon="15.68666442288382"><ele>1291.142857142857</ele><time>2026-04-04T07:52:48Z</time></trkpt><trkpt lat="50.76356139049222" lon="15.686598295155363"><ele>1291.857142857143</ele><time>2026-04-04T07:52:54.999Z</time></trkpt><trkpt lat="50.76349575280105" lon="15.686562934893885"><ele>1292.5714285714287</ele><time>2026-04-04T07:53:03.999Z</time></trkpt><trkpt lat="50.76344207616678" lon="15.68649466666053"><ele>1293.2857142857142</ele><time>2026-04-04T07:54:51Z</time></trkpt><trkpt lat="50.76337727743563" lon="15.686476535099922"><ele>1294.0</ele><time>2026-04-04T07:55:03.999Z</time></trkpt><trkpt lat="50.763321175567285" lon="15.68643048303777"><ele>1296.8333333333333</ele><time>2026-04-04T07:55:11.999Z</time></trkpt><trkpt lat="50.76326628084768" lon="15.686354032643138"><ele>1299.6666666666665</ele><time>2026-04-04T07:55:25.999Z</time></trkpt><trkpt lat="50.76316871115582" lon="15.686302553016146"><ele>1302.5</ele><time>2026-04-04T07:56:12.998Z</time></trkpt><trkpt lat="50.76310403106345" lon="15.686216699819918"><ele>1305.3333333333333</ele><time>2026-04-04T07:56:42Z</time></trkpt><trkpt lat="50.76302973681803" lon="15.68612751239572"><ele>1308.1666666666667</ele><time>2026-04-04T08:00:03.998Z</time></trkpt><trkpt lat="50.76296523809235" lon="15.686085209849733"><ele>1311.0</ele><time>2026-04-04T08:00:14.998Z</time></trkpt><trkpt lat="50.76290185692068" lon="15.686068440173841"><ele>1311.5714285714287</ele><time>2026-04-04T08:00:30.998Z</time></trkpt><trkpt lat="50.762847666983916" lon="15.686008734760888"><ele>1312.142857142857</ele><time>2026-04-04T08:00:44Z</time></trkpt><trkpt lat="50.762778700250934" lon="15.685961377595808"><ele>1312.7142857142858</ele><time>2026-04-04T08:00:58Z</time></trkpt><trkpt lat="50.762710803058624" lon="15.685903176448146"><ele>1313.2857142857142</ele><time>2026-04-04T08:01:16.999Z</time></trkpt><trkpt lat="50.76266380151016" lon="15.685832938179805"><ele>1313.857142857143</ele><time>2026-04-04T08:01:26.999Z</time></trkpt><trkpt lat="50.76259132802199" lon="15.685819128778956"><ele>1314.4285714285713</ele><time>2026-04-04T08:01:43.999Z</time></trkpt><trkpt lat="50.762538218544876" lon="15.685762806963297"><ele>1315.0</ele><time>2026-04-04T08:01:56.999Z</time></trkpt><trkpt lat="50.76248587168982" lon="15.68570299332929"><ele>1318.0</ele><time>2026-04-04T08:02:12.998Z</time></trkpt><trkpt lat="50.762423469307656" lon="15.685678391461888"><ele>1321.0</ele><time>2026-04-04T08:02:25.998Z</time></trkpt><trkpt lat="50.76234279003253" lon="15.685628538872452"><ele>1324.0</ele><time>2026-04-04T08:02:49Z</time></trkpt><trkpt lat="50.76227736744354" lon="15.68558520778124"><ele>1327.0</ele><time>2026-04-04T08:03:04Z</time></trkpt><trkpt lat="50.762204553332296" lon="15.685575756652495"><ele>1330.0</ele><time>2026-04-04T08:03:36.999Z</time></trkpt><trkpt lat="50.762156849995065" lon="15.685509929236371"><ele>1333.0</ele><time>2026-04-04T08:03:52.999Z</time></trkpt><trkpt lat="50.762096077749234" lon="15.685471412734184"><ele>1336.0</ele><time>2026-04-04T08:04:05.998Z</time></trkpt><trkpt lat="50.7620311261743" lon="15.685448421118526"><ele>1336.0</ele><time>2026-04-04T08:04:18.998Z</time></trkpt><trkpt lat="50.76196971960588" lon="15.68542248608184"><ele>1336.0</ele><time>2026-04-04T08:04:27.998Z</time></trkpt><trkpt lat="50.76191403597724" lon="15.685372129708677"><ele>1336.0</ele><time>2026-04-04T08:04:37.998Z</time></trkpt><trkpt lat="50.76185362665066" lon="15.68533048422119"><ele>1336.0</ele><time>2026-04-04T08:04:49.997Z</time></trkpt><trkpt lat="50.761792743561465" lon="15.685290634150235"><ele>1336.0</ele><time>2026-04-04T08:05:00Z</time></trkpt><trkpt lat="50.761728141657215" lon="15.68527639885791"><ele>1336.0</ele><time>2026-04-04T08:05:10Z</time></trkpt><trkpt lat="50.761662771253114" lon="15.685248701994519"><ele>1336.0</ele><time>2026-04-04T08:05:20Z</time></trkpt><trkpt lat="50.76159528352455" lon="15.685189865240323"><ele>1339.142857142857</ele><time>2026-04-04T08:05:42.999Z</time></trkpt><trkpt lat="50.76153492144313" lon="15.685155573365932"><ele>1342.2857142857142</ele><time>2026-04-04T08:06:05.999Z</time></trkpt><trkpt lat="50.761475811237126" lon="15.6850943689565"><ele>1345.4285714285716</ele><time>2026-04-04T08:06:20.998Z</time></trkpt><trkpt lat="50.761415527869104" lon="15.685041367437657"><ele>1348.5714285714284</ele><time>2026-04-04T08:06:39.998Z</time></trkpt><trkpt lat="50.76136062452511" lon="15.684990816372851"><ele>1351.7142857142858</ele><time>2026-04-04T08:06:53.997Z</time></trkpt><trkpt lat="50.76129530856216" lon="15.684946377923339"><ele>1354.857142857143</ele><time>2026-04-04T08:07:11Z</time></trkpt><trkpt lat="50.76122003059634" lon="15.684910663053925"><ele>1358.0</ele><time>2026-04-04T08:07:26Z</time></trkpt><trkpt lat="50.761156725033956" lon="15.68487937982358"><ele>1358.0</ele><time>2026-04-04T08:07:41.999Z</time></trkpt><trkpt lat="50.76109831327602" lon="15.684838099724233"><ele>1358.0</ele><time>2026-04-04T08:07:58.999Z</time></trkpt><trkpt lat="50.76103804254415" lon="15.68479161258635"><ele>1358.0</ele><time>2026-04-04T08:08:11.999Z</time></trkpt><trkpt lat="50.760982248913386" lon="15.684738276101161"><ele>1358.0</ele><time>2026-04-04T08:08:23.998Z</time></trkpt><trkpt lat="50.7609432001597" lon="15.684657854964268"><ele>1358.0</ele><time>2026-04-04T08:08:36.998Z</time></trkpt><trkpt lat="50.76091079149813" lon="15.684569906462666"><ele>1358.0</ele><time>2026-04-04T08:08:48.998Z</time></trkpt><trkpt lat="50.76088152992496" lon="15.684458920940038"><ele>1358.0</ele><time>2026-04-04T08:08:59.998Z</time></trkpt><trkpt lat="50.76082346560908" lon="15.68439638335689"><ele>1362.0</ele><time>2026-04-04T08:09:13Z</time></trkpt><trkpt lat="50.76076264460136" lon="15.68437036745159"><ele>1366.0</ele><time>2026-04-04T08:09:24Z</time></trkpt><trkpt lat="50.760696967914605" lon="15.684353122582225"><ele>1370.0</ele><time>2026-04-04T08:09:39.999Z</time></trkpt><trkpt lat="50.7606303557573" lon="15.684335914180904"><ele>1374.0</ele><time>2026-04-04T08:09:52.999Z</time></trkpt><trkpt lat="50.7605630752932" lon="15.684291546548227"><ele>1378.0</ele><time>2026-04-04T08:10:04.999Z</time></trkpt><trkpt lat="50.76049952369105" lon="15.684233510629134"><ele>1382.0</ele><time>2026-04-04T08:10:13.999Z</time></trkpt><trkpt lat="50.76044342540739" lon="15.684164469960395"><ele>1386.0</ele><time>2026-04-04T08:10:26.998Z</time></trkpt><trkpt lat="50.76036773962633" lon="15.684130751108814"><ele>1386.0</ele><time>2026-04-04T08:11:17Z</time></trkpt><trkpt lat="50.76033114328947" lon="15.684027340594808"><ele>1386.0</ele><time>2026-04-04T08:11:33Z</time></trkpt><trkpt lat="50.760276884587476" lon="15.683971255336914"><ele>1386.0</ele><time>2026-04-04T08:11:42Z</time></trkpt><trkpt lat="50.76021586657102" lon="15.683940038547243"><ele>1386.0</ele><time>2026-04-04T08:11:52.999Z</time></trkpt><trkpt lat="50.76014811124921" lon="15.683934139686075"><ele>1386.0</ele><time>2026-04-04T08:12:01.999Z</time></trkpt><trkpt lat="50.760086502408996" lon="15.683905611874245"><ele>1386.0</ele><time>2026-04-04T08:12:10.999Z</time></trkpt><trkpt lat="50.76002585779014" lon="15.683869494791578"><ele>1386.0</ele><time>2026-04-04T08:12:22.999Z</time></trkpt><trkpt lat="50.75996933457098" lon="15.683806180607803"><ele>1388.7142857142858</ele><time>2026-04-04T08:12:31.998Z</time></trkpt><trkpt lat="50.75991480101557" lon="15.68374016937604"><ele>1391.4285714285716</ele><time>2026-04-04T08:12:40.998Z</time></trkpt><trkpt lat="50.75986683775062" lon="15.683670717155692"><ele>1394.142857142857</ele><time>2026-04-04T08:12:48.998Z</time></trkpt><trkpt lat="50.75980280927051" lon="15.683630277724768"><ele>1396.857142857143</ele><time>2026-04-04T08:12:58.998Z</time></trkpt><trkpt lat="50.75974614858522" lon="15.683576295828223"><ele>1399.5714285714287</ele><time>2026-04-04T08:13:10.997Z</time></trkpt><trkpt lat="50.759719107777315" lon="15.683476807323164"><ele>1402.2857142857142</ele><time>2026-04-04T08:13:28Z</time></trkpt><trkpt lat="50.75977078529683" lon="15.683361456068178"><ele>1405.0</ele><time>2026-04-04T08:15:28Z</time></trkpt><trkpt lat="50.75971995515388" lon="15.683443399809233"><ele>1405.0</ele><time>2026-04-04T08:16:00.999Z</time></trkpt><trkpt lat="50.75965865450262" lon="15.683503890564255"><ele>1405.0</ele><time>2026-04-04T08:19:01.998Z</time></trkpt><trkpt lat="50.75959596753457" lon="15.683483011813873"><ele>1405.0</ele><time>2026-04-04T08:19:06.998Z</time></trkpt><trkpt lat="50.75953981158149" lon="15.683544684823529"><ele>1405.0</ele><time>2026-04-04T08:19:14.998Z</time></trkpt><trkpt lat="50.75949443039928" lon="15.683640390643262"><ele>1405.0</ele><time>2026-04-04T08:19:36Z</time></trkpt><trkpt lat="50.75945911802844" lon="15.683746665805641"><ele>1405.0</ele><time>2026-04-04T08:19:58Z</time></trkpt><trkpt lat="50.75942301240184" lon="15.683842795023526"><ele>1405.0</ele><time>2026-04-04T08:20:07Z</time></trkpt><trkpt lat="50.75938843614788" lon="15.683931605952909"><ele>1405.7142857142856</ele><time>2026-04-04T08:20:14.999Z</time></trkpt><trkpt lat="50.75934844571545" lon="15.68402245650919"><ele>1406.4285714285716</ele><time>2026-04-04T08:20:21.999Z</time></trkpt><trkpt lat="50.759309851463215" lon="15.684119562507803"><ele>1407.142857142857</ele><time>2026-04-04T08:20:29.999Z</time></trkpt><trkpt lat="50.759271032597866" lon="15.68422312599021"><ele>1407.8571428571427</ele><time>2026-04-04T08:20:36.999Z</time></trkpt><trkpt lat="50.75923952623932" lon="15.684330842245735"><ele>1408.5714285714284</ele><time>2026-04-04T08:20:43.999Z</time></trkpt><trkpt lat="50.75921438953431" lon="15.684445762359308"><ele>1409.2857142857142</ele><time>2026-04-04T08:20:49.999Z</time></trkpt><trkpt lat="50.759178095396884" lon="15.68454707660375"><ele>1410.0</ele><time>2026-04-04T08:20:55.999Z</time></trkpt><trkpt lat="50.75914470381586" lon="15.684636751118212"><ele>1409.9999999999998</ele><time>2026-04-04T08:21:02.998Z</time></trkpt><trkpt lat="50.759092095945746" lon="15.68470572094329"><ele>1410.0</ele><time>2026-04-04T08:21:12.998Z</time></trkpt><trkpt lat="50.75903990323221" lon="15.684775651666714"><ele>1410.0</ele><time>2026-04-04T08:21:19.998Z</time></trkpt><trkpt lat="50.758985137440426" lon="15.68484424734226"><ele>1410.0</ele><time>2026-04-04T08:21:25.998Z</time></trkpt><trkpt lat="50.758934758724486" lon="15.684914726862566"><ele>1410.0</ele><time>2026-04-04T08:21:30.998Z</time></trkpt><trkpt lat="50.758886103877394" lon="15.685003361737174"><ele>1409.9999999999998</ele><time>2026-04-04T08:21:36.998Z</time></trkpt><trkpt lat="50.758837515633836" lon="15.68508806128196"><ele>1410.0</ele><time>2026-04-04T08:21:42Z</time></trkpt><trkpt lat="50.75877591478484" lon="15.685156239699664"><ele>1409.9999999999998</ele><time>2026-04-04T08:21:48Z</time></trkpt><trkpt lat="50.75871924702899" lon="15.685226509997555"><ele>1410.0</ele><time>2026-04-04T08:21:54Z</time></trkpt><trkpt lat="50.758662097934014" lon="15.685286546528278"><ele>1410.0</ele><time>2026-04-04T08:22:00Z</time></trkpt><trkpt lat="50.75860704876268" lon="15.685360997641759"><ele>1410.0</ele><time>2026-04-04T08:22:11Z</time></trkpt><trkpt lat="50.758564933645644" lon="15.685441060762358"><ele>1410.0</ele><time>2026-04-04T08:22:17.999Z</time></trkpt><trkpt lat="50.75850852470618" lon="15.685511229860174"><ele>1409.9999999999998</ele><time>2026-04-04T08:22:23.999Z</time></trkpt><trkpt lat="50.7584499680988" lon="15.68558213645587"><ele>1410.0</ele><time>2026-04-04T08:22:31.999Z</time></trkpt><trkpt lat="50.75840116926659" lon="15.685651270693505"><ele>1409.7142857142856</ele><time>2026-04-04T08:22:37.999Z</time></trkpt><trkpt lat="50.75834130676763" lon="15.685726460039353"><ele>1409.4285714285713</ele><time>2026-04-04T08:22:45.999Z</time></trkpt><trkpt lat="50.75829203290803" lon="15.685793250724306"><ele>1409.142857142857</ele><time>2026-04-04T08:22:51.999Z</time></trkpt><trkpt lat="50.758239585039945" lon="15.685851439099999"><ele>1408.8571428571427</ele><time>2026-04-04T08:22:58.999Z</time></trkpt><trkpt lat="50.75818448273626" lon="15.68590147584799"><ele>1408.5714285714284</ele><time>2026-04-04T08:23:03.998Z</time></trkpt><trkpt lat="50.75811918044895" lon="15.685982487784713"><ele>1408.2857142857142</ele><time>2026-04-04T08:23:10.998Z</time></trkpt><trkpt lat="50.75806270449144" lon="15.68605418187567"><ele>1408.0</ele><time>2026-04-04T08:23:16.998Z</time></trkpt><trkpt lat="50.75801366130187" lon="15.686133844966571"><ele>1408.0</ele><time>2026-04-04T08:23:22.998Z</time></trkpt><trkpt lat="50.75796628631961" lon="15.686216878688416"><ele>1408.0</ele><time>2026-04-04T08:23:28.998Z</time></trkpt><trkpt lat="50.75791906196737" lon="15.686287303415169"><ele>1408.0</ele><time>2026-04-04T08:23:33.998Z</time></trkpt><trkpt lat="50.75787209686036" lon="15.686358608052002"><ele>1408.0</ele><time>2026-04-04T08:23:40.998Z</time></trkpt><trkpt lat="50.757815553154046" lon="15.686415294698767"><ele>1408.0</ele><time>2026-04-04T08:23:51Z</time></trkpt><trkpt lat="50.757762614378386" lon="15.686486117784762"><ele>1408.0</ele><time>2026-04-04T08:23:59Z</time></trkpt><trkpt lat="50.75771135022087" lon="15.686543896172747"><ele>1408.0</ele><time>2026-04-04T08:24:05Z</time></trkpt><trkpt lat="50.75765845496684" lon="15.686625573573071"><ele>1408.0</ele><time>2026-04-04T08:24:12Z</time></trkpt><trkpt lat="50.75761792817603" lon="15.686707245701063"><ele>1408.0</ele><time>2026-04-04T08:24:18Z</time></trkpt><trkpt lat="50.75756428569597" lon="15.686763717688041"><ele>1408.0</ele><time>2026-04-04T08:24:24.999Z</time></trkpt><trkpt lat="50.757500814062965" lon="15.686826156098558"><ele>1408.0</ele><time>2026-04-04T08:24:33.999Z</time></trkpt><trkpt lat="50.75743731965254" lon="15.686849833924526"><ele>1408.0</ele><time>2026-04-04T08:24:41.999Z</time></trkpt><trkpt lat="50.75738194145599" lon="15.686913251529276"><ele>1408.0</ele><time>2026-04-04T08:24:47.999Z</time></trkpt><trkpt lat="50.75733800825068" lon="15.686988375210264"><ele>1408.0</ele><time>2026-04-04T08:24:53.999Z</time></trkpt><trkpt lat="50.757295673477365" lon="15.687064828378574"><ele>1406.5714285714287</ele><time>2026-04-04T08:25:02.999Z</time></trkpt><trkpt lat="50.757248044667975" lon="15.687132473074685"><ele>1405.142857142857</ele><time>2026-04-04T08:25:07.998Z</time></trkpt><trkpt lat="50.757197316637026" lon="15.68720501898277"><ele>1403.7142857142858</ele><time>2026-04-04T08:25:14.998Z</time></trkpt><trkpt lat="50.75714935598864" lon="15.687290001891963"><ele>1402.2857142857142</ele><time>2026-04-04T08:25:22.998Z</time></trkpt><trkpt lat="50.75710224712606" lon="15.687373067320248"><ele>1400.857142857143</ele><time>2026-04-04T08:25:28.998Z</time></trkpt><trkpt lat="50.75705689304528" lon="15.687447562904946"><ele>1399.4285714285713</ele><time>2026-04-04T08:25:35.998Z</time></trkpt><trkpt lat="50.75701576770189" lon="15.687546152955035"><ele>1398.0</ele><time>2026-04-04T08:25:42.998Z</time></trkpt><trkpt lat="50.75696556157077" lon="15.687626526089382"><ele>1398.0</ele><time>2026-04-04T08:25:48.998Z</time></trkpt><trkpt lat="50.756916156133215" lon="15.687699078217678"><ele>1398.0</ele><time>2026-04-04T08:25:57Z</time></trkpt><trkpt lat="50.75687085145099" lon="15.687772266030395"><ele>1398.0</ele><time>2026-04-04T08:26:03Z</time></trkpt><trkpt lat="50.75683382516257" lon="15.687864649949793"><ele>1398.0</ele><time>2026-04-04T08:26:09Z</time></trkpt><trkpt lat="50.75679471539517" lon="15.687943543691208"><ele>1398.0</ele><time>2026-04-04T08:26:18Z</time></trkpt><trkpt lat="50.756747670253695" lon="15.688024048868467"><ele>1398.0</ele><time>2026-04-04T08:26:27Z</time></trkpt><trkpt lat="50.75670988318468" lon="15.688103873775038"><ele>1398.0</ele><time>2026-04-04T08:26:33.999Z</time></trkpt><trkpt lat="50.75665977670238" lon="15.68817890174109"><ele>1398.5714285714284</ele><time>2026-04-04T08:26:40.999Z</time></trkpt><trkpt lat="50.75660880353045" lon="15.688260871795737"><ele>1399.1428571428573</ele><time>2026-04-04T08:26:48.999Z</time></trkpt><trkpt lat="50.756568606807924" lon="15.688338186621378"><ele>1399.7142857142858</ele><time>2026-04-04T08:26:56.999Z</time></trkpt><trkpt lat="50.75652094605656" lon="15.68842076667377"><ele>1400.2857142857142</ele><time>2026-04-04T08:27:04.999Z</time></trkpt><trkpt lat="50.75647379013779" lon="15.688511912633407"><ele>1400.8571428571427</ele><time>2026-04-04T08:27:12.998Z</time></trkpt><trkpt lat="50.756423505546806" lon="15.68859573623541"><ele>1401.4285714285716</ele><time>2026-04-04T08:27:20.998Z</time></trkpt><trkpt lat="50.75637907178262" lon="15.688674944086962"><ele>1402.0</ele><time>2026-04-04T08:27:29.998Z</time></trkpt><trkpt lat="50.75633924612621" lon="15.688756468502488"><ele>1402.0</ele><time>2026-04-04T08:27:36.998Z</time></trkpt><trkpt lat="50.756298079406115" lon="15.688832259105586"><ele>1402.0</ele><time>2026-04-04T08:27:44.998Z</time></trkpt><trkpt lat="50.75625028435901" lon="15.6889097949962"><ele>1402.0</ele><time>2026-04-04T08:27:52.998Z</time></trkpt><trkpt lat="50.75621107971917" lon="15.688989825301274"><ele>1402.0</ele><time>2026-04-04T08:28:02Z</time></trkpt><trkpt lat="50.75616177868457" lon="15.689068667214132"><ele>1402.0</ele><time>2026-04-04T08:28:10Z</time></trkpt><trkpt lat="50.75611341125112" lon="15.689154568199562"><ele>1402.0</ele><time>2026-04-04T08:28:17Z</time></trkpt><trkpt lat="50.756077681837404" lon="15.689238490330448"><ele>1402.0</ele><time>2026-04-04T08:28:23Z</time></trkpt><trkpt lat="50.75604408616469" lon="15.689323617971942"><ele>1403.857142857143</ele><time>2026-04-04T08:28:32Z</time></trkpt><trkpt lat="50.75599735749958" lon="15.689409128447027"><ele>1405.7142857142856</ele><time>2026-04-04T08:28:38.999Z</time></trkpt><trkpt lat="50.75596452063199" lon="15.689516300642628"><ele>1407.5714285714284</ele><time>2026-04-04T08:28:45.999Z</time></trkpt><trkpt lat="50.75591472976793" lon="15.6895960423376"><ele>1409.4285714285716</ele><time>2026-04-04T08:28:53.999Z</time></trkpt><trkpt lat="50.75588489027576" lon="15.689695132530295"><ele>1411.2857142857142</ele><time>2026-04-04T08:29:04.999Z</time></trkpt><trkpt lat="50.755865770840664" lon="15.689800140234633"><ele>1413.142857142857</ele><time>2026-04-04T08:29:12.999Z</time></trkpt><trkpt lat="50.755830201472264" lon="15.68989444757167"><ele>1415.0</ele><time>2026-04-04T08:29:23.998Z</time></trkpt><trkpt lat="50.755777059820645" lon="15.689952295046208"><ele>1415.0</ele><time>2026-04-04T08:29:32.998Z</time></trkpt><trkpt lat="50.75572027609034" lon="15.690017132453494"><ele>1415.0</ele><time>2026-04-04T08:29:43.998Z</time></trkpt><trkpt lat="50.755660199039895" lon="15.690055412284892"><ele>1415.0</ele><time>2026-04-04T08:29:48.998Z</time></trkpt><trkpt lat="50.75561379972801" lon="15.69013115187526"><ele>1415.0</ele><time>2026-04-04T08:29:54.998Z</time></trkpt><trkpt lat="50.75556506871584" lon="15.690199097944896"><ele>1415.0</ele><time>2026-04-04T08:30:00.998Z</time></trkpt><trkpt lat="50.755525039714904" lon="15.690285437759636"><ele>1415.0</ele><time>2026-04-04T08:30:09Z</time></trkpt><trkpt lat="50.755464705049256" lon="15.690355365091476"><ele>1415.0</ele><time>2026-04-04T08:30:16Z</time></trkpt><trkpt lat="50.75540946697019" lon="15.690418857420912"><ele>1415.2857142857142</ele><time>2026-04-04T08:30:27Z</time></trkpt><trkpt lat="50.755367305414424" lon="15.690510937561893"><ele>1415.5714285714284</ele><time>2026-04-04T08:30:39.999Z</time></trkpt><trkpt lat="50.755339877621694" lon="15.690601588753527"><ele>1415.8571428571427</ele><time>2026-04-04T08:30:46.999Z</time></trkpt><trkpt lat="50.755303346779144" lon="15.690689899264775"><ele>1416.142857142857</ele><time>2026-04-04T08:30:53.999Z</time></trkpt><trkpt lat="50.75527395569537" lon="15.690778367586333"><ele>1416.4285714285713</ele><time>2026-04-04T08:31:00.999Z</time></trkpt><trkpt lat="50.75523857779123" lon="15.690876437594056"><ele>1416.7142857142856</ele><time>2026-04-04T08:31:07.999Z</time></trkpt><trkpt lat="50.75519418202411" lon="15.690963499758924"><ele>1417.0</ele><time>2026-04-04T08:31:15.999Z</time></trkpt><trkpt lat="50.75515591705898" lon="15.69104943787341"><ele>1416.2857142857142</ele><time>2026-04-04T08:31:22.998Z</time></trkpt><trkpt lat="50.755102389584685" lon="15.691102965375816"><ele>1415.5714285714284</ele><time>2026-04-04T08:31:29.998Z</time></trkpt><trkpt lat="50.75503475522004" lon="15.691151212371116"><ele>1414.8571428571427</ele><time>2026-04-04T08:31:35.998Z</time></trkpt><trkpt lat="50.75497316386161" lon="15.691185119170594"><ele>1414.142857142857</ele><time>2026-04-04T08:31:41.998Z</time></trkpt><trkpt lat="50.7549026162001" lon="15.691227443729751"><ele>1413.4285714285716</ele><time>2026-04-04T08:31:47.998Z</time></trkpt><trkpt lat="50.75484240153334" lon="15.691274353172233"><ele>1412.7142857142856</ele><time>2026-04-04T08:31:53.998Z</time></trkpt><trkpt lat="50.75478105642017" lon="15.69129719465812"><ele>1412.0</ele><time>2026-04-04T08:31:59.998Z</time></trkpt><trkpt lat="50.754713702518984" lon="15.69132075778595"><ele>1412.0</ele><time>2026-04-04T08:32:06.997Z</time></trkpt><trkpt lat="50.754652378239804" lon="15.691359579824761"><ele>1412.0</ele><time>2026-04-04T08:32:13Z</time></trkpt><trkpt lat="50.7545848283462" lon="15.691391683928389"><ele>1412.0</ele><time>2026-04-04T08:32:19Z</time></trkpt><trkpt lat="50.75451914516505" lon="15.691428681920321"><ele>1412.0</ele><time>2026-04-04T08:32:25Z</time></trkpt><trkpt lat="50.75445854405305" lon="15.69146218089705"><ele>1412.0</ele><time>2026-04-04T08:32:31Z</time></trkpt><trkpt lat="50.754389336112936" lon="15.691502879905633"><ele>1412.0</ele><time>2026-04-04T08:32:38Z</time></trkpt><trkpt lat="50.754325065774594" lon="15.691540354586841"><ele>1412.0</ele><time>2026-04-04T08:32:45.999Z</time></trkpt><trkpt lat="50.75426050813204" lon="15.691552057580372"><ele>1412.2857142857142</ele><time>2026-04-04T08:32:52.999Z</time></trkpt><trkpt lat="50.75419183591951" lon="15.691567452443882"><ele>1412.5714285714287</ele><time>2026-04-04T08:32:59.999Z</time></trkpt><trkpt lat="50.754127527971306" lon="15.691598334213369"><ele>1412.857142857143</ele><time>2026-04-04T08:33:09.999Z</time></trkpt><trkpt lat="50.75406658461631" lon="15.691641204065318"><ele>1413.142857142857</ele><time>2026-04-04T08:33:16.999Z</time></trkpt><trkpt lat="50.753995557395925" lon="15.691680707306888"><ele>1413.4285714285716</ele><time>2026-04-04T08:33:23.999Z</time></trkpt><trkpt lat="50.753930888954265" lon="15.691706845660832"><ele>1413.7142857142858</ele><time>2026-04-04T08:33:31.998Z</time></trkpt><trkpt lat="50.75386201708724" lon="15.691734683008253"><ele>1414.0</ele><time>2026-04-04T08:33:39.998Z</time></trkpt><trkpt lat="50.753799508039876" lon="15.691760233480279"><ele>1414.0</ele><time>2026-04-04T08:33:45.998Z</time></trkpt><trkpt lat="50.75373301375313" lon="15.691787546234574"><ele>1414.0</ele><time>2026-04-04T08:33:53.998Z</time></trkpt><trkpt lat="50.75366873332063" lon="15.691814124173197"><ele>1414.0</ele><time>2026-04-04T08:33:59.998Z</time></trkpt><trkpt lat="50.753607693813706" lon="15.691839277823485"><ele>1414.0</ele><time>2026-04-04T08:34:04.998Z</time></trkpt><trkpt lat="50.753546220012495" lon="15.691864610439799"><ele>1414.0</ele><time>2026-04-04T08:34:10.997Z</time></trkpt><trkpt lat="50.75347967417515" lon="15.691892033173767"><ele>1414.0</ele><time>2026-04-04T08:34:17Z</time></trkpt><trkpt lat="50.7534171655971" lon="15.691917792208555"><ele>1414.0</ele><time>2026-04-04T08:34:23Z</time></trkpt><trkpt lat="50.7533556810135" lon="15.691943129255208"><ele>1413.4285714285713</ele><time>2026-04-04T08:34:28Z</time></trkpt><trkpt lat="50.75328505621095" lon="15.691963111986155"><ele>1412.857142857143</ele><time>2026-04-04T08:34:34Z</time></trkpt><trkpt lat="50.753219426079845" lon="15.691979056932384"><ele>1412.2857142857142</ele><time>2026-04-04T08:34:41Z</time></trkpt><trkpt lat="50.75315281743712" lon="15.692002694375349"><ele>1411.7142857142858</ele><time>2026-04-04T08:34:48Z</time></trkpt><trkpt lat="50.75309033872442" lon="15.692039801513046"><ele>1411.142857142857</ele><time>2026-04-04T08:34:54.999Z</time></trkpt><trkpt lat="50.75303039242725" lon="15.692076888895857"><ele>1410.5714285714284</ele><time>2026-04-04T08:35:00.999Z</time></trkpt><trkpt lat="50.75296550514417" lon="15.69209887741866"><ele>1410.0</ele><time>2026-04-04T08:35:06.999Z</time></trkpt><trkpt lat="50.7529048690797" lon="15.692132741561792"><ele>1409.9999999999998</ele><time>2026-04-04T08:35:12.999Z</time></trkpt><trkpt lat="50.752833388655596" lon="15.692176606160603"><ele>1410.0</ele><time>2026-04-04T08:35:18.999Z</time></trkpt><trkpt lat="50.752763596418234" lon="15.692215011923961"><ele>1410.0</ele><time>2026-04-04T08:35:24.999Z</time></trkpt><trkpt lat="50.75269613446373" lon="15.692248742895297"><ele>1410.0</ele><time>2026-04-04T08:35:30.999Z</time></trkpt><trkpt lat="50.75263273741715" lon="15.692269272444605"><ele>1410.0</ele><time>2026-04-04T08:35:39.998Z</time></trkpt><trkpt lat="50.75257517129005" lon="15.692309558571912"><ele>1409.9999999999998</ele><time>2026-04-04T08:35:47.998Z</time></trkpt><trkpt lat="50.752510718294815" lon="15.692335019990699"><ele>1410.0</ele><time>2026-04-04T08:35:53.998Z</time></trkpt><trkpt lat="50.752439548672584" lon="15.692349501490112"><ele>1410.2857142857142</ele><time>2026-04-04T08:36:01.998Z</time></trkpt><trkpt lat="50.752378445469844" lon="15.692382133192831"><ele>1410.5714285714284</ele><time>2026-04-04T08:36:08.998Z</time></trkpt><trkpt lat="50.75230490697802" lon="15.692406995050277"><ele>1410.8571428571427</ele><time>2026-04-04T08:36:15.998Z</time></trkpt><trkpt lat="50.75223395094057" lon="15.692450354081146"><ele>1411.142857142857</ele><time>2026-04-04T08:36:20.997Z</time></trkpt><trkpt lat="50.75216902140924" lon="15.692469890664034"><ele>1411.4285714285716</ele><time>2026-04-04T08:36:25Z</time></trkpt><trkpt lat="50.752093990981265" lon="15.69251561294575"><ele>1411.7142857142856</ele><time>2026-04-04T08:36:29Z</time></trkpt><trkpt lat="50.75202673612282" lon="15.692547789082628"><ele>1412.0</ele><time>2026-04-04T08:36:32Z</time></trkpt><trkpt lat="50.75195764029951" lon="15.692572105977343"><ele>1412.0</ele><time>2026-04-04T08:36:37Z</time></trkpt><trkpt lat="50.75188486596262" lon="15.692599544636547"><ele>1412.0</ele><time>2026-04-04T08:36:43Z</time></trkpt><trkpt lat="50.751819528587205" lon="15.692625549569861"><ele>1412.0</ele><time>2026-04-04T08:36:49Z</time></trkpt><trkpt lat="50.75175939741275" lon="15.692660556230306"><ele>1412.0</ele><time>2026-04-04T08:36:54Z</time></trkpt><trkpt lat="50.75168659892599" lon="15.692705473247615"><ele>1412.0</ele><time>2026-04-04T08:36:59.999Z</time></trkpt><trkpt lat="50.751623386561214" lon="15.692748996561921"><ele>1412.0</ele><time>2026-04-04T08:37:05.999Z</time></trkpt><trkpt lat="50.751560714122235" lon="15.692771946470025"><ele>1412.0</ele><time>2026-04-04T08:37:11.999Z</time></trkpt><trkpt lat="50.75149007915804" lon="15.692779574736607"><ele>1411.2857142857142</ele><time>2026-04-04T08:37:17.999Z</time></trkpt><trkpt lat="50.75142477482403" lon="15.69280911045473"><ele>1410.5714285714287</ele><time>2026-04-04T08:37:24.999Z</time></trkpt><trkpt lat="50.75135504724285" lon="15.69286547852318"><ele>1409.857142857143</ele><time>2026-04-04T08:37:30.999Z</time></trkpt><trkpt lat="50.75128972439202" lon="15.69289748776112"><ele>1409.142857142857</ele><time>2026-04-04T08:37:36.999Z</time></trkpt><trkpt lat="50.75122333904915" lon="15.692912747648757"><ele>1408.4285714285716</ele><time>2026-04-04T08:37:42.998Z</time></trkpt><trkpt lat="50.75116331364779" lon="15.692946412241112"><ele>1407.7142857142858</ele><time>2026-04-04T08:37:48.998Z</time></trkpt><trkpt lat="50.7510985505346" lon="15.692990471390987"><ele>1407.0</ele><time>2026-04-04T08:37:54.998Z</time></trkpt><trkpt lat="50.75103283300363" lon="15.693015949558243"><ele>1407.0</ele><time>2026-04-04T08:38:00.998Z</time></trkpt><trkpt lat="50.7509738065668" lon="15.693053259024614"><ele>1407.0</ele><time>2026-04-04T08:38:06.998Z</time></trkpt><trkpt lat="50.75091319804203" lon="15.693087347421892"><ele>1407.0</ele><time>2026-04-04T08:38:12.998Z</time></trkpt><trkpt lat="50.75084533763713" lon="15.693110990372984"><ele>1407.0</ele><time>2026-04-04T08:38:18.998Z</time></trkpt><trkpt lat="50.75078239465072" lon="15.693136105912442"><ele>1407.0</ele><time>2026-04-04T08:38:24.998Z</time></trkpt><trkpt lat="50.750712391165706" lon="15.693168924919782"><ele>1407.0</ele><time>2026-04-04T08:38:32Z</time></trkpt><trkpt lat="50.75064736494217" lon="15.693189985809958"><ele>1407.0</ele><time>2026-04-04T08:38:38Z</time></trkpt><trkpt lat="50.7505838940019" lon="15.693214894072227"><ele>1407.0</ele><time>2026-04-04T08:38:44Z</time></trkpt><trkpt lat="50.750527327333934" lon="15.693265796674796"><ele>1407.0</ele><time>2026-04-04T08:38:51Z</time></trkpt><trkpt lat="50.75046138289452" lon="15.693304262457714"><ele>1407.0</ele><time>2026-04-04T08:38:57Z</time></trkpt><trkpt lat="50.75038713583202" lon="15.693333160638618"><ele>1407.0</ele><time>2026-04-04T08:39:04Z</time></trkpt><trkpt lat="50.7503231331877" lon="15.693351563458483"><ele>1407.0</ele><time>2026-04-04T08:39:09.999Z</time></trkpt><trkpt lat="50.75025745122651" lon="15.693390841678362"><ele>1407.0</ele><time>2026-04-04T08:39:16.999Z</time></trkpt><trkpt lat="50.75019081961493" lon="15.693428235684712"><ele>1407.0</ele><time>2026-04-04T08:39:23.999Z</time></trkpt><trkpt lat="50.75013291566335" lon="15.693472400955981"><ele>1406.857142857143</ele><time>2026-04-04T08:39:30.999Z</time></trkpt><trkpt lat="50.750065821149825" lon="15.693486991349223"><ele>1406.7142857142858</ele><time>2026-04-04T08:39:37.999Z</time></trkpt><trkpt lat="50.74999632877754" lon="15.693499041598056"><ele>1406.5714285714284</ele><time>2026-04-04T08:39:50.998Z</time></trkpt><trkpt lat="50.74992850148088" lon="15.693507374864078"><ele>1406.4285714285716</ele><time>2026-04-04T08:39:58.998Z</time></trkpt><trkpt lat="50.7498648362474" lon="15.693503587401022"><ele>1406.2857142857142</ele><time>2026-04-04T08:40:04.998Z</time></trkpt><trkpt lat="50.74979416386926" lon="15.69351613900156"><ele>1406.142857142857</ele><time>2026-04-04T08:40:11.998Z</time></trkpt><trkpt lat="50.74972755983708" lon="15.693494934843592"><ele>1406.0</ele><time>2026-04-04T08:40:18.998Z</time></trkpt><trkpt lat="50.749653154992025" lon="15.693480525505702"><ele>1406.0</ele><time>2026-04-04T08:40:25.998Z</time></trkpt><trkpt lat="50.749586467664244" lon="15.693456152965723"><ele>1406.0</ele><time>2026-04-04T08:40:32.998Z</time></trkpt><trkpt lat="50.74951365668819" lon="15.693456712421714"><ele>1406.0</ele><time>2026-04-04T08:40:41Z</time></trkpt><trkpt lat="50.74943812217784" lon="15.693468586216218"><ele>1406.0</ele><time>2026-04-04T08:40:47Z</time></trkpt><trkpt lat="50.749363756863374" lon="15.693471814606836"><ele>1406.0</ele><time>2026-04-04T08:40:53Z</time></trkpt><trkpt lat="50.74928911198599" lon="15.693472838373536"><ele>1406.0</ele><time>2026-04-04T08:40:59Z</time></trkpt><trkpt lat="50.749220987932276" lon="15.693477128328908"><ele>1406.0</ele><time>2026-04-04T08:41:05Z</time></trkpt><trkpt lat="50.74914776867312" lon="15.69349753654664"><ele>1405.5714285714284</ele><time>2026-04-04T08:41:12.999Z</time></trkpt><trkpt lat="50.749079618283346" lon="15.693512875184782"><ele>1405.142857142857</ele><time>2026-04-04T08:41:18.999Z</time></trkpt><trkpt lat="50.74900959087298" lon="15.693511371605826"><ele>1404.7142857142858</ele><time>2026-04-04T08:41:28.999Z</time></trkpt><trkpt lat="50.74894172345878" lon="15.693541585628047"><ele>1404.2857142857142</ele><time>2026-04-04T08:41:33.999Z</time></trkpt><trkpt lat="50.74887096913236" lon="15.693553827550318"><ele>1403.857142857143</ele><time>2026-04-04T08:41:39.999Z</time></trkpt><trkpt lat="50.748806394384715" lon="15.693572214668462"><ele>1403.4285714285713</ele><time>2026-04-04T08:41:46.999Z</time></trkpt><trkpt lat="50.748738571130474" lon="15.69358101732166"><ele>1403.0</ele><time>2026-04-04T08:41:52.999Z</time></trkpt><trkpt lat="50.748670781920616" lon="15.693566391375292"><ele>1402.9999999999998</ele><time>2026-04-04T08:41:57.998Z</time></trkpt><trkpt lat="50.7485989266905" lon="15.693535051102296"><ele>1403.0</ele><time>2026-04-04T08:42:02.998Z</time></trkpt><trkpt lat="50.74852325749996" lon="15.693568626414343"><ele>1403.0</ele><time>2026-04-04T08:42:07.998Z</time></trkpt><trkpt lat="50.748461502367626" lon="15.693611694439785"><ele>1403.0</ele><time>2026-04-04T08:42:11.998Z</time></trkpt><trkpt lat="50.74839600285935" lon="15.693624601141181"><ele>1403.0</ele><time>2026-04-04T08:42:15.998Z</time></trkpt><trkpt lat="50.74832561776472" lon="15.693671978675898"><ele>1402.9999999999998</ele><time>2026-04-04T08:42:19.998Z</time></trkpt><trkpt lat="50.74825572400128" lon="15.693697135526941"><ele>1403.0</ele><time>2026-04-04T08:42:25.998Z</time></trkpt><trkpt lat="50.748189141491856" lon="15.693726267010708"><ele>1401.7142857142856</ele><time>2026-04-04T08:42:31.998Z</time></trkpt><trkpt lat="50.74812755532456" lon="15.693781512913173"><ele>1400.4285714285713</ele><time>2026-04-04T08:42:37.998Z</time></trkpt><trkpt lat="50.7480793383573" lon="15.693856943109047"><ele>1399.142857142857</ele><time>2026-04-04T08:42:44Z</time></trkpt><trkpt lat="50.7480181547334" lon="15.693892483206566"><ele>1397.8571428571427</ele><time>2026-04-04T08:42:49Z</time></trkpt><trkpt lat="50.74794880727781" lon="15.693924742931822"><ele>1396.5714285714284</ele><time>2026-04-04T08:42:56Z</time></trkpt><trkpt lat="50.747875914889704" lon="15.693933484825479"><ele>1395.2857142857142</ele><time>2026-04-04T08:43:02Z</time></trkpt><trkpt lat="50.74781070692715" lon="15.693965870175939"><ele>1394.0</ele><time>2026-04-04T08:43:08Z</time></trkpt><trkpt lat="50.74773600257084" lon="15.693991170021055"><ele>1393.142857142857</ele><time>2026-04-04T08:43:13Z</time></trkpt><trkpt lat="50.74766605452557" lon="15.694021921553706"><ele>1392.2857142857142</ele><time>2026-04-04T08:43:17Z</time></trkpt><trkpt lat="50.747604291052475" lon="15.69405717662952"><ele>1391.4285714285716</ele><time>2026-04-04T08:43:22.999Z</time></trkpt><trkpt lat="50.74753951943024" lon="15.694078321670101"><ele>1390.5714285714284</ele><time>2026-04-04T08:43:29.999Z</time></trkpt><trkpt lat="50.74747378527485" lon="15.694109258141879"><ele>1389.7142857142856</ele><time>2026-04-04T08:43:36.999Z</time></trkpt><trkpt lat="50.74741210904464" lon="15.694150738507687"><ele>1388.857142857143</ele><time>2026-04-04T08:43:44.999Z</time></trkpt><trkpt lat="50.747346456271906" lon="15.694181760240193"><ele>1388.0</ele><time>2026-04-04T08:43:51.999Z</time></trkpt><trkpt lat="50.7472795701692" lon="15.694209002905378"><ele>1388.0</ele><time>2026-04-04T08:43:58.999Z</time></trkpt><trkpt lat="50.74721419642042" lon="15.69423952101956"><ele>1388.0</ele><time>2026-04-04T08:44:06.998Z</time></trkpt><trkpt lat="50.747142853957264" lon="15.69425923116774"><ele>1388.0</ele><time>2026-04-04T08:44:12.998Z</time></trkpt><trkpt lat="50.74708516664379" lon="15.694307498752218"><ele>1388.0</ele><time>2026-04-04T08:44:19.998Z</time></trkpt><trkpt lat="50.7470228472636" lon="15.69434227437435"><ele>1388.0</ele><time>2026-04-04T08:44:26.998Z</time></trkpt><trkpt lat="50.74695437165161" lon="15.694356026869595"><ele>1388.0</ele><time>2026-04-04T08:44:34.998Z</time></trkpt><trkpt lat="50.74688519185074" lon="15.694374372419976"><ele>1388.0</ele><time>2026-04-04T08:44:41.998Z</time></trkpt><trkpt lat="50.74680683726727" lon="15.694380817075457"><ele>1388.4285714285716</ele><time>2026-04-04T08:44:48Z</time></trkpt><trkpt lat="50.74673812181394" lon="15.694379155576307"><ele>1388.8571428571427</ele><time>2026-04-04T08:44:55Z</time></trkpt><trkpt lat="50.74666758853374" lon="15.69438376357393"><ele>1389.2857142857142</ele><time>2026-04-04T08:45:03Z</time></trkpt><trkpt lat="50.746596365307255" lon="15.694415063547071"><ele>1389.7142857142858</ele><time>2026-04-04T08:45:10Z</time></trkpt><trkpt lat="50.7465327926075" lon="15.694459808133926"><ele>1390.1428571428573</ele><time>2026-04-04T08:45:17Z</time></trkpt><trkpt lat="50.74647540088393" lon="15.694518624869481"><ele>1390.5714285714284</ele><time>2026-04-04T08:45:23Z</time></trkpt><trkpt lat="50.74641800945654" lon="15.694594954348247"><ele>1391.0</ele><time>2026-04-04T08:45:28.999Z</time></trkpt><trkpt lat="50.74636857403451" lon="15.694676589668827"><ele>1391.142857142857</ele><time>2026-04-04T08:45:35.999Z</time></trkpt><trkpt lat="50.74631547774163" lon="15.694733658008667"><ele>1391.2857142857144</ele><time>2026-04-04T08:45:41.999Z</time></trkpt><trkpt lat="50.74626817213369" lon="15.694811903846388"><ele>1391.4285714285716</ele><time>2026-04-04T08:45:47.999Z</time></trkpt><trkpt lat="50.74621829715508" lon="15.694874657208263"><ele>1391.5714285714284</ele><time>2026-04-04T08:46:24.998Z</time></trkpt><trkpt lat="50.746150988124505" lon="15.694919326759665"><ele>1391.7142857142858</ele><time>2026-04-04T08:46:31.998Z</time></trkpt><trkpt lat="50.7460910576539" lon="15.694965141900127"><ele>1391.857142857143</ele><time>2026-04-04T08:46:37.998Z</time></trkpt><trkpt lat="50.74602985454124" lon="15.695002803058838"><ele>1392.0</ele><time>2026-04-04T08:46:44.998Z</time></trkpt><trkpt lat="50.74596250074606" lon="15.695023067063877"><ele>1392.0</ele><time>2026-04-04T08:46:53Z</time></trkpt><trkpt lat="50.74589365614422" lon="15.695056227000688"><ele>1392.0</ele><time>2026-04-04T08:47:02Z</time></trkpt><trkpt lat="50.74582812158769" lon="15.695065448452201"><ele>1392.0</ele><time>2026-04-04T08:47:10Z</time></trkpt><trkpt lat="50.74576443018123" lon="15.695071338815152"><ele>1392.0</ele><time>2026-04-04T08:47:17Z</time></trkpt><trkpt lat="50.745705884387455" lon="15.695108786179341"><ele>1392.0</ele><time>2026-04-04T08:47:23Z</time></trkpt><trkpt lat="50.74564961814143" lon="15.695158030945374"><ele>1392.0</ele><time>2026-04-04T08:47:32.999Z</time></trkpt><trkpt lat="50.745595214065446" lon="15.695241311326797"><ele>1392.0</ele><time>2026-04-04T08:47:45.999Z</time></trkpt><trkpt lat="50.74552836773543" lon="15.695296031474369"><ele>1392.5714285714284</ele><time>2026-04-04T08:47:52.999Z</time></trkpt><trkpt lat="50.74547434091555" lon="15.695361195191175"><ele>1393.142857142857</ele><time>2026-04-04T08:47:58.999Z</time></trkpt><trkpt lat="50.74541171071466" lon="15.695401622391593"><ele>1393.7142857142858</ele><time>2026-04-04T08:48:05.999Z</time></trkpt><trkpt lat="50.74535056513119" lon="15.695436988060637"><ele>1394.2857142857142</ele><time>2026-04-04T08:48:12.998Z</time></trkpt><trkpt lat="50.74528807327976" lon="15.6954910035792"><ele>1394.857142857143</ele><time>2026-04-04T08:48:44.998Z</time></trkpt><trkpt lat="50.745236682896675" lon="15.695559677755123"><ele>1395.4285714285713</ele><time>2026-04-04T08:48:53.997Z</time></trkpt><trkpt lat="50.74517567224815" lon="15.695603148863194"><ele>1396.0</ele><time>2026-04-04T08:49:01Z</time></trkpt><trkpt lat="50.74512405888803" lon="15.695677259923105"><ele>1395.9999999999998</ele><time>2026-04-04T08:49:10Z</time></trkpt><trkpt lat="50.74507900951904" lon="15.695747262635342"><ele>1396.0</ele><time>2026-04-04T08:49:17Z</time></trkpt><trkpt lat="50.74502920656617" lon="15.69582342238839"><ele>1396.0</ele><time>2026-04-04T08:49:26Z</time></trkpt><trkpt lat="50.74498948704164" lon="15.695904793469394"><ele>1396.0</ele><time>2026-04-04T08:49:33.999Z</time></trkpt><trkpt lat="50.744944516482654" lon="15.695987631962387"><ele>1396.0</ele><time>2026-04-04T08:49:40.999Z</time></trkpt><trkpt lat="50.74489484047169" lon="15.696056356654788"><ele>1395.9999999999998</ele><time>2026-04-04T08:49:46.999Z</time></trkpt><trkpt lat="50.7448392959575" lon="15.696105991458895"><ele>1396.0</ele><time>2026-04-04T08:49:54.999Z</time></trkpt><trkpt lat="50.74477836087011" lon="15.696137513310838"><ele>1396.142857142857</ele><time>2026-04-04T08:50:04.999Z</time></trkpt><trkpt lat="50.74470879986291" lon="15.696153942561617"><ele>1396.2857142857142</ele><time>2026-04-04T08:50:11.999Z</time></trkpt><trkpt lat="50.74464275622874" lon="15.69617064148138"><ele>1396.4285714285716</ele><time>2026-04-04T08:50:19.998Z</time></trkpt><trkpt lat="50.74457855336264" lon="15.696193200615822"><ele>1396.5714285714284</ele><time>2026-04-04T08:50:27.998Z</time></trkpt><trkpt lat="50.74451226275867" lon="15.696214051116499"><ele>1396.7142857142858</ele><time>2026-04-04T08:50:34.998Z</time></trkpt><trkpt lat="50.74444676603067" lon="15.696264207598864"><ele>1396.857142857143</ele><time>2026-04-04T08:50:41.998Z</time></trkpt><trkpt lat="50.7443769539565" lon="15.69629447280468"><ele>1397.0</ele><time>2026-04-04T08:50:49.998Z</time></trkpt><trkpt lat="50.74431028353854" lon="15.696328603940472"><ele>1397.0000000000002</ele><time>2026-04-04T08:50:58.998Z</time></trkpt><trkpt lat="50.744242406233134" lon="15.696337774973989"><ele>1397.0</ele><time>2026-04-04T08:51:07Z</time></trkpt><trkpt lat="50.74418215380593" lon="15.696394681920564"><ele>1397.0</ele><time>2026-04-04T08:51:14Z</time></trkpt><trkpt lat="50.744128038109295" lon="15.696453784840967"><ele>1397.0</ele><time>2026-04-04T08:51:21Z</time></trkpt><trkpt lat="50.74407235724078" lon="15.696507649284774"><ele>1397.0</ele><time>2026-04-04T08:51:28Z</time></trkpt><trkpt lat="50.744018824428345" lon="15.696566090032336"><ele>1397.0000000000002</ele><time>2026-04-04T08:51:35Z</time></trkpt><trkpt lat="50.74396072720265" lon="15.69661147390772"><ele>1397.0</ele><time>2026-04-04T08:51:40.999Z</time></trkpt><trkpt lat="50.743906260120646" lon="15.696669877090363"><ele>1397.0000000000002</ele><time>2026-04-04T08:51:47.999Z</time></trkpt><trkpt lat="50.7438476769211" lon="15.696742146461492"><ele>1397.0</ele><time>2026-04-04T08:51:55.999Z</time></trkpt><trkpt lat="50.743794683441934" lon="15.696812997977911"><ele>1397.0</ele><time>2026-04-04T08:52:03.999Z</time></trkpt><trkpt lat="50.74373618179802" lon="15.696884636234206"><ele>1397.0</ele><time>2026-04-04T08:52:11.999Z</time></trkpt><trkpt lat="50.74368482511729" lon="15.69694639662864"><ele>1397.0</ele><time>2026-04-04T08:52:17.999Z</time></trkpt><trkpt lat="50.74363138400597" lon="15.697001193633316"><ele>1397.0000000000002</ele><time>2026-04-04T08:52:24.998Z</time></trkpt><trkpt lat="50.743579453776974" lon="15.697070097794224"><ele>1397.0</ele><time>2026-04-04T08:52:31.998Z</time></trkpt><trkpt lat="50.74352511144046" lon="15.697121487364774"><ele>1397.0000000000002</ele><time>2026-04-04T08:52:59.998Z</time></trkpt><trkpt lat="50.74347331906534" lon="15.697193286813622"><ele>1397.0</ele><time>2026-04-04T08:55:27Z</time></trkpt><trkpt lat="50.74342359844754" lon="15.697255438195185"><ele>1397.0</ele><time>2026-04-04T08:55:35Z</time></trkpt><trkpt lat="50.743375887695436" lon="15.697327673556606"><ele>1397.0</ele><time>2026-04-04T08:55:42Z</time></trkpt><trkpt lat="50.7433232582577" lon="15.697390488510676"><ele>1397.0</ele><time>2026-04-04T08:55:48Z</time></trkpt><trkpt lat="50.74326825632297" lon="15.6974710841336"><ele>1397.0000000000002</ele><time>2026-04-04T08:55:54.999Z</time></trkpt><trkpt lat="50.74320919347429" lon="15.697532689548344"><ele>1397.0</ele><time>2026-04-04T08:56:03.999Z</time></trkpt><trkpt lat="50.74315193334173" lon="15.697595888031481"><ele>1397.0000000000002</ele><time>2026-04-04T08:56:09.999Z</time></trkpt><trkpt lat="50.74309366875464" lon="15.697658544582836"><ele>1397.0</ele><time>2026-04-04T08:56:16.999Z</time></trkpt><trkpt lat="50.743027988039316" lon="15.697733989820476"><ele>1397.0</ele><time>2026-04-04T08:56:22.999Z</time></trkpt><trkpt lat="50.742965877831175" lon="15.697801260079382"><ele>1397.0</ele><time>2026-04-04T08:56:29.999Z</time></trkpt><trkpt lat="50.74291281437833" lon="15.697856004911332"><ele>1397.0</ele><time>2026-04-04T08:56:35.998Z</time></trkpt><trkpt lat="50.74285426757899" lon="15.697911258777028"><ele>1397.0000000000002</ele><time>2026-04-04T08:56:42.998Z</time></trkpt><trkpt lat="50.74279740141899" lon="15.697977636540651"><ele>1397.0</ele><time>2026-04-04T08:56:49.998Z</time></trkpt><trkpt lat="50.74272962034422" lon="15.69803409942391"><ele>1397.1428571428573</ele><time>2026-04-04T08:56:56.998Z</time></trkpt><trkpt lat="50.74267937231904" lon="15.698109033603963"><ele>1397.2857142857142</ele><time>2026-04-04T08:57:02.998Z</time></trkpt><trkpt lat="50.74263266242044" lon="15.69818451699949"><ele>1397.4285714285716</ele><time>2026-04-04T08:57:09.998Z</time></trkpt><trkpt lat="50.74258304910842" lon="15.698275203465622"><ele>1397.5714285714287</ele><time>2026-04-04T08:57:17.998Z</time></trkpt><trkpt lat="50.74253675876925" lon="15.698351213472122"><ele>1397.7142857142858</ele><time>2026-04-04T08:57:24Z</time></trkpt><trkpt lat="50.7424893120525" lon="15.69842582332701"><ele>1397.857142857143</ele><time>2026-04-04T08:57:30Z</time></trkpt><trkpt lat="50.74244454702392" lon="15.698515198177821"><ele>1398.0</ele><time>2026-04-04T08:57:37Z</time></trkpt><trkpt lat="50.742391509967526" lon="15.698585724163985"><ele>1398.0</ele><time>2026-04-04T08:57:44Z</time></trkpt><trkpt lat="50.74234079496842" lon="15.698644856202852"><ele>1398.0</ele><time>2026-04-04T08:57:51Z</time></trkpt><trkpt lat="50.742296516519566" lon="15.698727795893323"><ele>1398.0</ele><time>2026-04-04T08:57:57.999Z</time></trkpt><trkpt lat="50.74225031027634" lon="15.698809144294483"><ele>1398.0</ele><time>2026-04-04T08:58:05.999Z</time></trkpt><trkpt lat="50.742200187569416" lon="15.698871066791426"><ele>1398.0</ele><time>2026-04-04T08:58:11.999Z</time></trkpt><trkpt lat="50.74214829465982" lon="15.6989578394734"><ele>1398.0</ele><time>2026-04-04T08:58:18.999Z</time></trkpt><trkpt lat="50.742098247752295" lon="15.699028548526238"><ele>1398.0</ele><time>2026-04-04T08:58:25.999Z</time></trkpt><trkpt lat="50.74205528013239" lon="15.699101732216018"><ele>1398.0</ele><time>2026-04-04T08:58:31.999Z</time></trkpt><trkpt lat="50.74200785233876" lon="15.699170178678967"><ele>1398.0</ele><time>2026-04-04T08:58:38.999Z</time></trkpt><trkpt lat="50.74196402928344" lon="15.699251503145392"><ele>1398.0</ele><time>2026-04-04T08:58:45.998Z</time></trkpt><trkpt lat="50.74191740541049" lon="15.699333620401221"><ele>1398.0</ele><time>2026-04-04T08:58:52.998Z</time></trkpt><trkpt lat="50.74186758848523" lon="15.699429163918502"><ele>1398.0</ele><time>2026-04-04T08:59:00.998Z</time></trkpt><trkpt lat="50.74182922415752" lon="15.699513191872065"><ele>1398.0</ele><time>2026-04-04T08:59:07.998Z</time></trkpt><trkpt lat="50.74179283651718" lon="15.699601662926256"><ele>1398.0</ele><time>2026-04-04T08:59:15.998Z</time></trkpt><trkpt lat="50.74175347002806" lon="15.699688796831813"><ele>1399.142857142857</ele><time>2026-04-04T08:59:22.998Z</time></trkpt><trkpt lat="50.74171681849471" lon="15.69977288764064"><ele>1400.2857142857144</ele><time>2026-04-04T08:59:31Z</time></trkpt><trkpt lat="50.74168713766814" lon="15.699865541659207"><ele>1401.4285714285716</ele><time>2026-04-04T08:59:39Z</time></trkpt><trkpt lat="50.74165211619575" lon="15.69995957075257"><ele>1402.5714285714284</ele><time>2026-04-04T08:59:46Z</time></trkpt><trkpt lat="50.74161833103034" lon="15.700059928962132"><ele>1403.7142857142858</ele><time>2026-04-04T08:59:53Z</time></trkpt><trkpt lat="50.7415891189732" lon="15.700156132223253"><ele>1404.857142857143</ele><time>2026-04-04T09:00:00Z</time></trkpt><trkpt lat="50.74156232576585" lon="15.700259865694356"><ele>1406.0</ele><time>2026-04-04T09:00:07.999Z</time></trkpt><trkpt lat="50.741541175618636" lon="15.700355105001368"><ele>1406.0</ele><time>2026-04-04T09:00:13.999Z</time></trkpt><trkpt lat="50.74151202595135" lon="15.700457393450069"><ele>1406.0</ele><time>2026-04-04T09:00:21.999Z</time></trkpt><trkpt lat="50.74149488300663" lon="15.700569695551913"><ele>1406.0</ele><time>2026-04-04T09:00:28.999Z</time></trkpt><trkpt lat="50.74147933158968" lon="15.70067294345356"><ele>1406.0</ele><time>2026-04-04T09:00:36.999Z</time></trkpt><trkpt lat="50.74146108785276" lon="15.700770187767974"><ele>1406.0</ele><time>2026-04-04T09:00:43.999Z</time></trkpt><trkpt lat="50.74145943207449" lon="15.700876264946531"><ele>1406.0</ele><time>2026-04-04T09:00:50.998Z</time></trkpt><trkpt lat="50.74147215951102" lon="15.700987354195753"><ele>1406.0</ele><time>2026-04-04T09:00:57.998Z</time></trkpt><trkpt lat="50.74148288923304" lon="15.7010868010128"><ele>1406.142857142857</ele><time>2026-04-04T09:01:03.998Z</time></trkpt><trkpt lat="50.741484638074354" lon="15.701186696080331"><ele>1406.2857142857142</ele><time>2026-04-04T09:01:09.998Z</time></trkpt><trkpt lat="50.74147113477449" lon="15.70130010896957"><ele>1406.4285714285716</ele><time>2026-04-04T09:01:16.998Z</time></trkpt><trkpt lat="50.7414474375242" lon="15.701406592076506"><ele>1406.5714285714284</ele><time>2026-04-04T09:01:24.998Z</time></trkpt><trkpt lat="50.74143237066311" lon="15.701522109869806"><ele>1406.7142857142858</ele><time>2026-04-04T09:01:33.998Z</time></trkpt><trkpt lat="50.74141454062449" lon="15.701633832851224"><ele>1406.857142857143</ele><time>2026-04-04T09:01:42Z</time></trkpt><trkpt lat="50.74137966403287" lon="15.701727633013833"><ele>1407.0</ele><time>2026-04-04T09:01:49Z</time></trkpt><trkpt lat="50.74135534794985" lon="15.701823053780862"><ele>1407.5714285714287</ele><time>2026-04-04T09:01:56Z</time></trkpt><trkpt lat="50.74133455633928" lon="15.70192244849888"><ele>1408.142857142857</ele><time>2026-04-04T09:02:04Z</time></trkpt><trkpt lat="50.74130712397803" lon="15.70201340009504"><ele>1408.7142857142858</ele><time>2026-04-04T09:02:10.999Z</time></trkpt><trkpt lat="50.74128274819218" lon="15.702107957523475"><ele>1409.2857142857142</ele><time>2026-04-04T09:02:17.999Z</time></trkpt><trkpt lat="50.74125373726532" lon="15.702198245379238"><ele>1409.857142857143</ele><time>2026-04-04T09:02:24.999Z</time></trkpt><trkpt lat="50.74123197116497" lon="15.702309730744897"><ele>1410.4285714285716</ele><time>2026-04-04T09:03:29.998Z</time></trkpt><trkpt lat="50.74120123052288" lon="15.70240032590212"><ele>1411.0</ele><time>2026-04-04T09:03:37.998Z</time></trkpt><trkpt lat="50.74117067767925" lon="15.702493162165915"><ele>1411.0000000000002</ele><time>2026-04-04T09:03:45Z</time></trkpt><trkpt lat="50.741146288969084" lon="15.702586283068653"><ele>1411.0</ele><time>2026-04-04T09:03:51Z</time></trkpt><trkpt lat="50.741125064119714" lon="15.70269226562995"><ele>1411.0</ele><time>2026-04-04T09:03:59Z</time></trkpt><trkpt lat="50.741103172335805" lon="15.702788540316643"><ele>1411.0</ele><time>2026-04-04T09:04:06Z</time></trkpt><trkpt lat="50.74107961521918" lon="15.702895195311708"><ele>1411.0</ele><time>2026-04-04T09:04:17.999Z</time></trkpt><trkpt lat="50.74105790089121" lon="15.703002535729908"><ele>1411.0000000000002</ele><time>2026-04-04T09:04:25.999Z</time></trkpt><trkpt lat="50.741044544171665" lon="15.703101252500703"><ele>1411.0</ele><time>2026-04-04T09:04:32.999Z</time></trkpt><trkpt lat="50.74102273871753" lon="15.703212442029491"><ele>1412.857142857143</ele><time>2026-04-04T09:04:40.999Z</time></trkpt><trkpt lat="50.740999060049326" lon="15.703312560957341"><ele>1414.7142857142858</ele><time>2026-04-04T09:04:51.999Z</time></trkpt><trkpt lat="50.74097279453168" lon="15.703418271667855"><ele>1416.5714285714284</ele><time>2026-04-04T09:04:58.999Z</time></trkpt><trkpt lat="50.74094867434797" lon="15.703516596008754"><ele>1418.4285714285716</ele><time>2026-04-04T09:05:05.998Z</time></trkpt><trkpt lat="50.740928906404235" lon="15.703626533265064"><ele>1420.2857142857142</ele><time>2026-04-04T09:05:13.998Z</time></trkpt><trkpt lat="50.74090113451278" lon="15.70373342538591"><ele>1422.142857142857</ele><time>2026-04-04T09:05:19.998Z</time></trkpt><trkpt lat="50.74088238877866" lon="15.703833461249374"><ele>1424.0</ele><time>2026-04-04T09:05:27.998Z</time></trkpt><trkpt lat="50.740864353509544" lon="15.703929064695505"><ele>1423.9999999999998</ele><time>2026-04-04T09:05:34.998Z</time></trkpt><trkpt lat="50.74085416678076" lon="15.704042318255283"><ele>1424.0</ele><time>2026-04-04T09:06:06Z</time></trkpt><trkpt lat="50.74084101086836" lon="15.704147572656922"><ele>1424.0</ele><time>2026-04-04T09:06:12Z</time></trkpt><trkpt lat="50.74081929343963" lon="15.70426463859756"><ele>1424.0</ele><time>2026-04-04T09:06:18Z</time></trkpt><trkpt lat="50.74081579385508" lon="15.704367144854167"><ele>1424.0</ele><time>2026-04-04T09:06:22.999Z</time></trkpt><trkpt lat="50.74080311132815" lon="15.704465522343908"><ele>1423.9999999999998</ele><time>2026-04-04T09:06:27.999Z</time></trkpt><trkpt lat="50.740789988014484" lon="15.704574589525942"><ele>1424.0</ele><time>2026-04-04T09:06:34.999Z</time></trkpt><trkpt lat="50.74078446981908" lon="15.704693394615513"><ele>1424.142857142857</ele><time>2026-04-04T09:06:41.999Z</time></trkpt><trkpt lat="50.7408025807429" lon="15.704797183402224"><ele>1424.2857142857142</ele><time>2026-04-04T09:06:47.999Z</time></trkpt><trkpt lat="50.740813814662765" lon="15.704899335613717"><ele>1424.4285714285716</ele><time>2026-04-04T09:06:52.999Z</time></trkpt><trkpt lat="50.74084087130349" lon="15.705003751898255"><ele>1424.5714285714284</ele><time>2026-04-04T09:06:57.999Z</time></trkpt><trkpt lat="50.740858320126414" lon="15.705101714767862"><ele>1424.7142857142858</ele><time>2026-04-04T09:07:02.999Z</time></trkpt><trkpt lat="50.74087208439467" lon="15.705204053784215"><ele>1424.857142857143</ele><time>2026-04-04T09:07:07.998Z</time></trkpt><trkpt lat="50.74088886861185" lon="15.705309505074233"><ele>1425.0</ele><time>2026-04-04T09:07:12.998Z</time></trkpt><trkpt lat="50.74090889146819" lon="15.70540484525513"><ele>1425.2857142857144</ele><time>2026-04-04T09:07:17.998Z</time></trkpt><trkpt lat="50.7409305704905" lon="15.705507941185212"><ele>1425.5714285714287</ele><time>2026-04-04T09:07:23.998Z</time></trkpt><trkpt lat="50.7409473738102" lon="15.70560477956613"><ele>1425.857142857143</ele><time>2026-04-04T09:07:29.998Z</time></trkpt><trkpt lat="50.740965717872335" lon="15.705707047689453"><ele>1426.1428571428573</ele><time>2026-04-04T09:07:36.998Z</time></trkpt><trkpt lat="50.74099198930176" lon="15.705824003152731"><ele>1426.4285714285716</ele><time>2026-04-04T09:07:43.998Z</time></trkpt><trkpt lat="50.741017359169035" lon="15.705923741341653"><ele>1426.7142857142858</ele><time>2026-04-04T09:07:49.997Z</time></trkpt><trkpt lat="50.741036009953135" lon="15.706034195909766"><ele>1427.0</ele><time>2026-04-04T09:07:57Z</time></trkpt><trkpt lat="50.74104686218319" lon="15.706143173432338"><ele>1427.0</ele><time>2026-04-04T09:08:03Z</time></trkpt><trkpt lat="50.741073967981706" lon="15.706242074454368"><ele>1427.0</ele><time>2026-04-04T09:08:09Z</time></trkpt><trkpt lat="50.74113289919483" lon="15.706295121440023"><ele>1427.0</ele><time>2026-04-04T09:08:16Z</time></trkpt><trkpt lat="50.741198221777175" lon="15.706323568744057"><ele>1427.0</ele><time>2026-04-04T09:08:26Z</time></trkpt><trkpt lat="50.74124046036254" lon="15.706234214908806"><ele>1427.0</ele><time>2026-04-04T09:08:37.999Z</time></trkpt><trkpt lat="50.74129679986552" lon="15.706173443783896"><ele>1427.0</ele><time>2026-04-04T09:08:42.999Z</time></trkpt><trkpt lat="50.74134794611792" lon="15.706090778574065"><ele>1427.0</ele><time>2026-04-04T09:09:52.998Z</time></trkpt><trkpt lat="50.74138386786673" lon="15.70599626366407"><ele>1426.2857142857142</ele><time>2026-04-04T09:09:59Z</time></trkpt><trkpt lat="50.74143326878556" lon="15.705930294022904"><ele>1425.5714285714287</ele><time>2026-04-04T09:10:04Z</time></trkpt><trkpt lat="50.74148416244772" lon="15.705843452636444"><ele>1424.857142857143</ele><time>2026-04-04T09:10:11Z</time></trkpt><trkpt lat="50.741528126192456" lon="15.705767790663552"><ele>1424.142857142857</ele><time>2026-04-04T09:10:19Z</time></trkpt><trkpt lat="50.74158999686472" lon="15.70570697018083"><ele>1423.4285714285713</ele><time>2026-04-04T09:10:26Z</time></trkpt><trkpt lat="50.74165135383711" lon="15.705636919366414"><ele>1422.7142857142858</ele><time>2026-04-04T09:10:31.999Z</time></trkpt><trkpt lat="50.74171071840842" lon="15.705575074593465"><ele>1422.0</ele><time>2026-04-04T09:10:37.999Z</time></trkpt><trkpt lat="50.74176485835195" lon="15.70551370246278"><ele>1422.0</ele><time>2026-04-04T09:10:43.999Z</time></trkpt><trkpt lat="50.74182628545496" lon="15.705469765066708"><ele>1422.0</ele><time>2026-04-04T09:10:49.999Z</time></trkpt><trkpt lat="50.74187974435318" lon="15.705416078391538"><ele>1422.0</ele><time>2026-04-04T09:10:54.999Z</time></trkpt><trkpt lat="50.7419395708887" lon="15.705368443841264"><ele>1422.0</ele><time>2026-04-04T09:11:00.999Z</time></trkpt><trkpt lat="50.74200095094282" lon="15.705321874301267"><ele>1422.0</ele><time>2026-04-04T09:11:06.999Z</time></trkpt><trkpt lat="50.74206241811573" lon="15.705293306628725"><ele>1422.0</ele><time>2026-04-04T09:11:13.999Z</time></trkpt><trkpt lat="50.74212823760396" lon="15.70526148350738"><ele>1422.0</ele><time>2026-04-04T09:11:20.998Z</time></trkpt><trkpt lat="50.74219995856293" lon="15.705225583593364"><ele>1419.857142857143</ele><time>2026-04-04T09:11:46.998Z</time></trkpt><trkpt lat="50.74226723723931" lon="15.705184142264372"><ele>1417.7142857142858</ele><time>2026-04-04T09:12:56.999Z</time></trkpt><trkpt lat="50.74233107006929" lon="15.705165364563749"><ele>1415.5714285714284</ele><time>2026-04-04T09:13:02.999Z</time></trkpt><trkpt lat="50.742397521726055" lon="15.70514910176394"><ele>1413.4285714285716</ele><time>2026-04-04T09:13:08.999Z</time></trkpt><trkpt lat="50.742462624544544" lon="15.705144377133063"><ele>1411.2857142857142</ele><time>2026-04-04T09:13:33.998Z</time></trkpt><trkpt lat="50.742530745656225" lon="15.705123470393973"><ele>1409.142857142857</ele><time>2026-04-04T09:13:39.998Z</time></trkpt><trkpt lat="50.7425998605861" lon="15.705118969750876"><ele>1407.0</ele><time>2026-04-04T09:13:44.998Z</time></trkpt><trkpt lat="50.7426670849115" lon="15.705126786014592"><ele>1405.4285714285713</ele><time>2026-04-04T09:13:50.998Z</time></trkpt><trkpt lat="50.74273680004174" lon="15.705115659547413"><ele>1403.857142857143</ele><time>2026-04-04T09:13:55.998Z</time></trkpt><trkpt lat="50.742809972151704" lon="15.705127542061453"><ele>1402.2857142857142</ele><time>2026-04-04T09:14:01.998Z</time></trkpt><trkpt lat="50.74288022456427" lon="15.705139337956538"><ele>1400.7142857142858</ele><time>2026-04-04T09:14:07.998Z</time></trkpt><trkpt lat="50.742953143623765" lon="15.70514079138247"><ele>1399.142857142857</ele><time>2026-04-04T09:14:13Z</time></trkpt><trkpt lat="50.743018391328945" lon="15.705150209854628"><ele>1397.5714285714284</ele><time>2026-04-04T09:14:18Z</time></trkpt><trkpt lat="50.743084940236024" lon="15.705160015067733"><ele>1396.0</ele><time>2026-04-04T09:14:23Z</time></trkpt><trkpt lat="50.74315551146001" lon="15.705179973705034"><ele>1395.9999999999998</ele><time>2026-04-04T09:14:28Z</time></trkpt><trkpt lat="50.743226091929344" lon="15.705198980416041"><ele>1396.0</ele><time>2026-04-04T09:14:33Z</time></trkpt><trkpt lat="50.74329277295413" lon="15.705189696344586"><ele>1396.0</ele><time>2026-04-04T09:14:38Z</time></trkpt><trkpt lat="50.74336931113233" lon="15.705209273024538"><ele>1396.0</ele><time>2026-04-04T09:14:43Z</time></trkpt><trkpt lat="50.743436857157384" lon="15.70521553267962"><ele>1396.0</ele><time>2026-04-04T09:14:47.999Z</time></trkpt><trkpt lat="50.743505754274274" lon="15.705237456588005"><ele>1395.9999999999998</ele><time>2026-04-04T09:14:52.999Z</time></trkpt><trkpt lat="50.743579394542635" lon="15.705257719475082"><ele>1396.0</ele><time>2026-04-04T09:14:57.999Z</time></trkpt><trkpt lat="50.743645564735814" lon="15.705300938962624"><ele>1395.7142857142856</ele><time>2026-04-04T09:15:03.999Z</time></trkpt><trkpt lat="50.7437148051327" lon="15.70535567618138"><ele>1395.4285714285713</ele><time>2026-04-04T09:15:09.999Z</time></trkpt><trkpt lat="50.74377904199169" lon="15.705381318880958"><ele>1395.142857142857</ele><time>2026-04-04T09:15:14.999Z</time></trkpt><trkpt lat="50.74384121059148" lon="15.705417455506801"><ele>1394.8571428571427</ele><time>2026-04-04T09:15:18.999Z</time></trkpt><trkpt lat="50.74390089313458" lon="15.705455242008538"><ele>1394.5714285714284</ele><time>2026-04-04T09:15:22.999Z</time></trkpt><trkpt lat="50.743976753307315" lon="15.705490854719336"><ele>1394.2857142857142</ele><time>2026-04-04T09:15:27.999Z</time></trkpt><trkpt lat="50.74403694668618" lon="15.705523656638816"><ele>1394.0</ele><time>2026-04-04T09:15:32.998Z</time></trkpt><trkpt lat="50.74410535772722" lon="15.705560556667749"><ele>1394.0</ele><time>2026-04-04T09:15:37.998Z</time></trkpt><trkpt lat="50.74417773720752" lon="15.70559994563675"><ele>1394.0</ele><time>2026-04-04T09:15:42.998Z</time></trkpt><trkpt lat="50.744246020379784" lon="15.705652669922104"><ele>1394.0</ele><time>2026-04-04T09:15:47.998Z</time></trkpt><trkpt lat="50.744316208711204" lon="15.705687836745316"><ele>1394.0</ele><time>2026-04-04T09:15:52.998Z</time></trkpt><trkpt lat="50.74438614840449" lon="15.705716910116033"><ele>1394.0</ele><time>2026-04-04T09:15:57.998Z</time></trkpt><trkpt lat="50.744448753920416" lon="15.70575284933223"><ele>1394.0</ele><time>2026-04-04T09:16:02.998Z</time></trkpt><trkpt lat="50.7445104776025" lon="15.705794646199516"><ele>1394.0</ele><time>2026-04-04T09:16:07.998Z</time></trkpt><trkpt lat="50.74457979632347" lon="15.705832841214288"><ele>1393.142857142857</ele><time>2026-04-04T09:16:12.998Z</time></trkpt><trkpt lat="50.74464760651755" lon="15.705871805795322"><ele>1392.2857142857142</ele><time>2026-04-04T09:16:19Z</time></trkpt><trkpt lat="50.744706193958315" lon="15.705921947881599"><ele>1391.4285714285716</ele><time>2026-04-04T09:16:23Z</time></trkpt><trkpt lat="50.74477955880944" lon="15.705967809183065"><ele>1390.5714285714284</ele><time>2026-04-04T09:16:29Z</time></trkpt><trkpt lat="50.74484149803675" lon="15.706000372489402"><ele>1389.7142857142856</ele><time>2026-04-04T09:16:34Z</time></trkpt><trkpt lat="50.74489707294281" lon="15.706047184502031"><ele>1388.857142857143</ele><time>2026-04-04T09:16:39Z</time></trkpt><trkpt lat="50.74495661166529" lon="15.706080929722383"><ele>1388.0</ele><time>2026-04-04T09:16:44Z</time></trkpt><trkpt lat="50.74502365480978" lon="15.706118758011419"><ele>1388.0</ele><time>2026-04-04T09:16:49Z</time></trkpt><trkpt lat="50.74509710740469" lon="15.706153354921154"><ele>1388.0</ele><time>2026-04-04T09:16:53.999Z</time></trkpt><trkpt lat="50.74516635644431" lon="15.706193565525574"><ele>1388.0</ele><time>2026-04-04T09:16:58.999Z</time></trkpt><trkpt lat="50.745228404346705" lon="15.706235649694117"><ele>1388.0</ele><time>2026-04-04T09:17:03.999Z</time></trkpt><trkpt lat="50.745293225973356" lon="15.706260413032846"><ele>1388.0</ele><time>2026-04-04T09:17:08.999Z</time></trkpt><trkpt lat="50.7453523911892" lon="15.706296006779489"><ele>1388.0</ele><time>2026-04-04T09:17:14.999Z</time></trkpt><trkpt lat="50.74542584247928" lon="15.706325289743983"><ele>1388.0</ele><time>2026-04-04T09:17:20.999Z</time></trkpt><trkpt lat="50.7454928494928" lon="15.706350731668206"><ele>1385.0</ele><time>2026-04-04T09:17:25.999Z</time></trkpt><trkpt lat="50.74555744010298" lon="15.706380700934602"><ele>1382.0</ele><time>2026-04-04T09:17:30.999Z</time></trkpt><trkpt lat="50.7456287915975" lon="15.706412302882232"><ele>1379.0</ele><time>2026-04-04T09:17:35.999Z</time></trkpt><trkpt lat="50.74569287476724" lon="15.706443109294247"><ele>1376.0</ele><time>2026-04-04T09:17:40.998Z</time></trkpt><trkpt lat="50.74575688824934" lon="15.706491256424647"><ele>1373.0</ele><time>2026-04-04T09:17:46.998Z</time></trkpt><trkpt lat="50.74582010915684" lon="15.706524536686674"><ele>1370.0</ele><time>2026-04-04T09:17:51.998Z</time></trkpt><trkpt lat="50.745891173707896" lon="15.706577345375944"><ele>1367.0</ele><time>2026-04-04T09:17:58.998Z</time></trkpt><trkpt lat="50.74595569397345" lon="15.706615390183192"><ele>1367.0</ele><time>2026-04-04T09:18:03.998Z</time></trkpt><trkpt lat="50.74602656952601" lon="15.706653046841234"><ele>1367.0</ele><time>2026-04-04T09:18:09.998Z</time></trkpt><trkpt lat="50.746086694613865" lon="15.706683356710139"><ele>1367.0</ele><time>2026-04-04T09:18:14.998Z</time></trkpt><trkpt lat="50.74614883454788" lon="15.70672283084058"><ele>1367.0</ele><time>2026-04-04T09:18:19.998Z</time></trkpt><trkpt lat="50.746210306186114" lon="15.70675352819714"><ele>1367.0</ele><time>2026-04-04T09:18:25Z</time></trkpt><trkpt lat="50.746271208428375" lon="15.706808365384715"><ele>1367.0</ele><time>2026-04-04T09:18:30Z</time></trkpt><trkpt lat="50.7463328587048" lon="15.706864488764248"><ele>1367.0</ele><time>2026-04-04T09:18:35Z</time></trkpt><trkpt lat="50.746389741733324" lon="15.706915615491713"><ele>1366.0</ele><time>2026-04-04T09:18:40Z</time></trkpt><trkpt lat="50.74644905032557" lon="15.706967240430895"><ele>1365.0</ele><time>2026-04-04T09:18:46Z</time></trkpt><trkpt lat="50.746513798333666" lon="15.707012133485797"><ele>1364.0</ele><time>2026-04-04T09:18:52Z</time></trkpt><trkpt lat="50.746579778515546" lon="15.707066232380706"><ele>1363.0</ele><time>2026-04-04T09:18:57Z</time></trkpt><trkpt lat="50.746640120357576" lon="15.707126236184548"><ele>1362.0</ele><time>2026-04-04T09:19:02.999Z</time></trkpt><trkpt lat="50.74670218162415" lon="15.70717050927057"><ele>1361.0</ele><time>2026-04-04T09:19:07.999Z</time></trkpt><trkpt lat="50.746769822802484" lon="15.707223947928199"><ele>1360.0</ele><time>2026-04-04T09:19:12.999Z</time></trkpt><trkpt lat="50.746827531181424" lon="15.707291060457555"><ele>1360.0</ele><time>2026-04-04T09:19:18.999Z</time></trkpt><trkpt lat="50.74687728192837" lon="15.707357054511496"><ele>1360.0</ele><time>2026-04-04T09:19:24.999Z</time></trkpt><trkpt lat="50.74692739488479" lon="15.70741728566527"><ele>1360.0</ele><time>2026-04-04T09:19:29.999Z</time></trkpt><trkpt lat="50.74698665868285" lon="15.707470108589037"><ele>1360.0</ele><time>2026-04-04T09:19:34.999Z</time></trkpt><trkpt lat="50.7470397273035" lon="15.707547794287189"><ele>1360.0</ele><time>2026-04-04T09:19:40.998Z</time></trkpt><trkpt lat="50.74710245436513" lon="15.707580899353419"><ele>1360.0</ele><time>2026-04-04T09:19:45.998Z</time></trkpt><trkpt lat="50.74715875209844" lon="15.707642068572538"><ele>1360.0</ele><time>2026-04-04T09:19:50.998Z</time></trkpt><trkpt lat="50.74721257348636" lon="15.707700932933427"><ele>1358.2857142857144</ele><time>2026-04-04T09:19:55.998Z</time></trkpt><trkpt lat="50.7472675865282" lon="15.707751201341424"><ele>1356.5714285714284</ele><time>2026-04-04T09:20:00.998Z</time></trkpt><trkpt lat="50.74732579158132" lon="15.707796098980925"><ele>1354.857142857143</ele><time>2026-04-04T09:20:06.998Z</time></trkpt><trkpt lat="50.74738205169441" lon="15.70785433237317"><ele>1353.1428571428573</ele><time>2026-04-04T09:20:11.998Z</time></trkpt><trkpt lat="50.74744150289698" lon="15.707925292657226"><ele>1351.4285714285716</ele><time>2026-04-04T09:20:17.998Z</time></trkpt><trkpt lat="50.74748825708994" lon="15.70799221294923"><ele>1349.7142857142858</ele><time>2026-04-04T09:20:22.998Z</time></trkpt><trkpt lat="50.74755299979351" lon="15.708046961742859"><ele>1348.0</ele><time>2026-04-04T09:20:29Z</time></trkpt><trkpt lat="50.74761625131883" lon="15.708101875560029"><ele>1348.0000000000002</ele><time>2026-04-04T09:20:34Z</time></trkpt><trkpt lat="50.747673772243175" lon="15.70817202231333"><ele>1348.0</ele><time>2026-04-04T09:20:39Z</time></trkpt><trkpt lat="50.747745549032935" lon="15.70821300962563"><ele>1348.0</ele><time>2026-04-04T09:20:44Z</time></trkpt><trkpt lat="50.747809545423145" lon="15.708270900497016"><ele>1348.0</ele><time>2026-04-04T09:20:53Z</time></trkpt><trkpt lat="50.747863975555354" lon="15.708336125015128"><ele>1348.0</ele><time>2026-04-04T09:20:59Z</time></trkpt><trkpt lat="50.74791963162986" lon="15.708406720334938"><ele>1348.0000000000002</ele><time>2026-04-04T09:21:05.999Z</time></trkpt><trkpt lat="50.74797103100735" lon="15.708471099443477"><ele>1348.0</ele><time>2026-04-04T09:21:10.999Z</time></trkpt><trkpt lat="50.74803169614347" lon="15.708541361005494"><ele>1345.7142857142858</ele><time>2026-04-04T09:21:16.999Z</time></trkpt><trkpt lat="50.74809787954414" lon="15.708593240423655"><ele>1343.4285714285716</ele><time>2026-04-04T09:21:21.999Z</time></trkpt><trkpt lat="50.748143576985704" lon="15.708671539012395"><ele>1341.1428571428573</ele><time>2026-04-04T09:21:26.999Z</time></trkpt><trkpt lat="50.7481836856433" lon="15.708756876862935"><ele>1338.857142857143</ele><time>2026-04-04T09:21:31.999Z</time></trkpt><trkpt lat="50.74823630901787" lon="15.708834061725579"><ele>1336.5714285714284</ele><time>2026-04-04T09:21:37.999Z</time></trkpt><trkpt lat="50.74827942683158" lon="15.70892664786281"><ele>1334.2857142857144</ele><time>2026-04-04T09:21:43.999Z</time></trkpt><trkpt lat="50.748315796886644" lon="15.709015326751322"><ele>1332.0</ele><time>2026-04-04T09:21:49.998Z</time></trkpt><trkpt lat="50.74836141437446" lon="15.709115088316368"><ele>1332.0</ele><time>2026-04-04T09:21:55.998Z</time></trkpt><trkpt lat="50.74840645307097" lon="15.70919009892308"><ele>1332.0</ele><time>2026-04-04T09:22:00.998Z</time></trkpt><trkpt lat="50.74844652204882" lon="15.709278205981057"><ele>1332.0</ele><time>2026-04-04T09:22:05.998Z</time></trkpt><trkpt lat="50.74848372213494" lon="15.7093794472685"><ele>1332.0</ele><time>2026-04-04T09:22:11.998Z</time></trkpt><trkpt lat="50.74852333259162" lon="15.709463906991715"><ele>1332.0</ele><time>2026-04-04T09:22:16.998Z</time></trkpt><trkpt lat="50.74855914094777" lon="15.709556876888938"><ele>1332.0</ele><time>2026-04-04T09:22:21.998Z</time></trkpt><trkpt lat="50.74860011608599" lon="15.709654064014059"><ele>1332.0</ele><time>2026-04-04T09:22:27.998Z</time></trkpt><trkpt lat="50.74863068260079" lon="15.709743155690061"><ele>1329.142857142857</ele><time>2026-04-04T09:22:32.997Z</time></trkpt><trkpt lat="50.74866707652703" lon="15.709829311114754"><ele>1326.2857142857142</ele><time>2026-04-04T09:22:39Z</time></trkpt><trkpt lat="50.74868908952879" lon="15.709927671262395"><ele>1323.4285714285713</ele><time>2026-04-04T09:22:45Z</time></trkpt><trkpt lat="50.7487236783359" lon="15.710022790412424"><ele>1320.5714285714284</ele><time>2026-04-04T09:22:50Z</time></trkpt><trkpt lat="50.74875263483274" lon="15.710130955377595"><ele>1317.7142857142858</ele><time>2026-04-04T09:22:56Z</time></trkpt><trkpt lat="50.74879531114855" lon="15.710234233956541"><ele>1314.8571428571427</ele><time>2026-04-04T09:23:02Z</time></trkpt><trkpt lat="50.748834258082" lon="15.710327349633081"><ele>1312.0</ele><time>2026-04-04T09:23:08Z</time></trkpt><trkpt lat="50.74886944425122" lon="15.710419221432664"><ele>1311.7142857142856</ele><time>2026-04-04T09:23:13.999Z</time></trkpt><trkpt lat="50.748917433312506" lon="15.710498695018087"><ele>1311.4285714285713</ele><time>2026-04-04T09:23:19.999Z</time></trkpt><trkpt lat="50.74895348920077" lon="15.710585623929774"><ele>1311.142857142857</ele><time>2026-04-04T09:23:24.999Z</time></trkpt><trkpt lat="50.74900275293944" lon="15.710668585433247"><ele>1310.8571428571427</ele><time>2026-04-04T09:23:30.999Z</time></trkpt><trkpt lat="50.749045061248125" lon="15.710765462257555"><ele>1310.5714285714284</ele><time>2026-04-04T09:23:36.999Z</time></trkpt><trkpt lat="50.74909095802215" lon="15.710848746646194"><ele>1310.2857142857142</ele><time>2026-04-04T09:23:41.999Z</time></trkpt><trkpt lat="50.74913157117261" lon="15.710929722653379"><ele>1310.0</ele><time>2026-04-04T09:23:46.999Z</time></trkpt><trkpt lat="50.74918626510729" lon="15.710989786393176"><ele>1310.0</ele><time>2026-04-04T09:23:51.998Z</time></trkpt><trkpt lat="50.74924507327078" lon="15.711055507611688"><ele>1310.0</ele><time>2026-04-04T09:23:56.998Z</time></trkpt><trkpt lat="50.74930243934275" lon="15.711100841283326"><ele>1310.0</ele><time>2026-04-04T09:24:00.998Z</time></trkpt><trkpt lat="50.74936705243736" lon="15.711129648165116"><ele>1310.0</ele><time>2026-04-04T09:24:05.998Z</time></trkpt><trkpt lat="50.74943049673823" lon="15.711166319652962"><ele>1310.0</ele><time>2026-04-04T09:24:08.998Z</time></trkpt><trkpt lat="50.749489864661186" lon="15.711209453272046"><ele>1310.0</ele><time>2026-04-04T09:24:14.998Z</time></trkpt><trkpt lat="50.74956436655928" lon="15.71122815785644"><ele>1310.0</ele><time>2026-04-04T09:24:20.998Z</time></trkpt><trkpt lat="50.74964924340054" lon="15.711231764609"><ele>1306.5714285714287</ele><time>2026-04-04T09:24:25.998Z</time></trkpt><trkpt lat="50.74971319429811" lon="15.71127608837342"><ele>1303.142857142857</ele><time>2026-04-04T09:24:51Z</time></trkpt><trkpt lat="50.74977916397132" lon="15.71126389680122"><ele>1299.7142857142858</ele><time>2026-04-04T09:24:57Z</time></trkpt><trkpt lat="50.749853396051755" lon="15.711260049151319"><ele>1296.2857142857142</ele><time>2026-04-04T09:25:02Z</time></trkpt><trkpt lat="50.74991617485989" lon="15.711243968859547"><ele>1292.857142857143</ele><time>2026-04-04T09:25:09Z</time></trkpt><trkpt lat="50.74998368922829" lon="15.711227460292443"><ele>1289.4285714285713</ele><time>2026-04-04T09:25:13.999Z</time></trkpt><trkpt lat="50.750053837987075" lon="15.711206212040869"><ele>1286.0</ele><time>2026-04-04T09:25:18.999Z</time></trkpt><trkpt lat="50.75011891076737" lon="15.711176018441014"><ele>1286.0</ele><time>2026-04-04T09:25:26.999Z</time></trkpt><trkpt lat="50.750184377609024" lon="15.711151305604718"><ele>1286.0</ele><time>2026-04-04T09:25:34.999Z</time></trkpt><trkpt lat="50.750246030924146" lon="15.7111076608003"><ele>1286.0</ele><time>2026-04-04T09:25:39.999Z</time></trkpt><trkpt lat="50.75029894662387" lon="15.711038672815448"><ele>1286.0</ele><time>2026-04-04T09:25:44.999Z</time></trkpt><trkpt lat="50.75035259924562" lon="15.710982559053392"><ele>1286.0</ele><time>2026-04-04T09:25:50.999Z</time></trkpt><trkpt lat="50.75040721496837" lon="15.710918232184493"><ele>1286.0</ele><time>2026-04-04T09:25:57.998Z</time></trkpt><trkpt lat="50.750451309802216" lon="15.710839850779006"><ele>1286.0</ele><time>2026-04-04T09:26:03.998Z</time></trkpt><trkpt lat="50.75050948798435" lon="15.710761420295404"><ele>1284.0</ele><time>2026-04-04T09:26:09.998Z</time></trkpt><trkpt lat="50.75053892115315" lon="15.710658325170426"><ele>1282.0</ele><time>2026-04-04T09:26:15.998Z</time></trkpt><trkpt lat="50.750584339995775" lon="15.71058075962697"><ele>1280.0</ele><time>2026-04-04T09:26:23.998Z</time></trkpt><trkpt lat="50.75062545070912" lon="15.710502467376159"><ele>1278.0</ele><time>2026-04-04T09:26:28.998Z</time></trkpt><trkpt lat="50.75065239623396" lon="15.710405309366779"><ele>1276.0</ele><time>2026-04-04T09:26:33.998Z</time></trkpt><trkpt lat="50.75069352210006" lon="15.710315322139152"><ele>1274.0</ele><time>2026-04-04T09:26:39.997Z</time></trkpt><trkpt lat="50.750712367327395" lon="15.710220130586217"><ele>1272.0</ele><time>2026-04-04T09:26:44.997Z</time></trkpt><trkpt lat="50.7507353911795" lon="15.710118018364314"><ele>1271.857142857143</ele><time>2026-04-04T09:26:52Z</time></trkpt><trkpt lat="50.7507602598826" lon="15.710017515732403"><ele>1271.7142857142858</ele><time>2026-04-04T09:27:00Z</time></trkpt><trkpt lat="50.7507733847262" lon="15.709898703875764"><ele>1271.5714285714287</ele><time>2026-04-04T09:27:08Z</time></trkpt><trkpt lat="50.750791225543324" lon="15.709781636109822"><ele>1271.4285714285716</ele><time>2026-04-04T09:27:14Z</time></trkpt><trkpt lat="50.75079913783548" lon="15.709678511746606"><ele>1271.2857142857142</ele><time>2026-04-04T09:27:19.999Z</time></trkpt><trkpt lat="50.750813831962446" lon="15.709577706127806"><ele>1271.1428571428573</ele><time>2026-04-04T09:27:25.999Z</time></trkpt><trkpt lat="50.750833399685476" lon="15.709472363535872"><ele>1271.0</ele><time>2026-04-04T09:28:18.998Z</time></trkpt><trkpt lat="50.75083588962348" lon="15.709366630120547"><ele>1270.1428571428573</ele><time>2026-04-04T09:28:25.998Z</time></trkpt><trkpt lat="50.75084807500956" lon="15.709262088421942"><ele>1269.2857142857142</ele><time>2026-04-04T09:28:31.998Z</time></trkpt><trkpt lat="50.75085878657562" lon="15.70915500380242"><ele>1268.4285714285716</ele><time>2026-04-04T09:28:36.998Z</time></trkpt><trkpt lat="50.7508526095513" lon="15.709046265160607"><ele>1267.5714285714287</ele><time>2026-04-04T09:28:42.998Z</time></trkpt><trkpt lat="50.75085673142584" lon="15.708942774929437"><ele>1266.7142857142858</ele><time>2026-04-04T09:28:47.998Z</time></trkpt><trkpt lat="50.7508615576027" lon="15.70884337667121"><ele>1265.857142857143</ele><time>2026-04-04T09:28:53Z</time></trkpt><trkpt lat="50.75086741670686" lon="15.70873570402819"><ele>1265.0</ele><time>2026-04-04T09:29:02Z</time></trkpt><trkpt lat="50.75091988439616" lon="15.708649840578937"><ele>1265.0</ele><time>2026-04-04T09:29:09Z</time></trkpt><trkpt lat="50.750979005929366" lon="15.70861484784552"><ele>1265.0</ele><time>2026-04-04T09:29:15Z</time></trkpt><trkpt lat="50.751041971226684" lon="15.708617267927593"><ele>1265.0</ele><time>2026-04-04T09:29:22Z</time></trkpt><trkpt lat="50.75105160882608" lon="15.708512343604077"><ele>1265.0</ele><time>2026-04-04T09:29:27.999Z</time></trkpt><trkpt lat="50.75099199016716" lon="15.708451589382395"><ele>1265.0</ele><time>2026-04-04T09:29:35.999Z</time></trkpt><trkpt lat="50.75097392911422" lon="15.708350268793906"><ele>1265.0</ele><time>2026-04-04T09:29:43.999Z</time></trkpt><trkpt lat="50.751051604100105" lon="15.708373553508835"><ele>1265.0</ele><time>2026-04-04T09:29:46.999Z</time></trkpt><trkpt lat="50.75105834750973" lon="15.708486310968139"><ele>1264.1666666666667</ele><time>2026-04-04T09:29:56.999Z</time></trkpt><trkpt lat="50.75101024166768" lon="15.70836727058596"><ele>1263.3333333333335</ele><time>2026-04-04T09:30:03.999Z</time></trkpt><trkpt lat="50.75096246200911" lon="15.708212005993076"><ele>1262.5</ele><time>2026-04-04T09:30:07.999Z</time></trkpt><trkpt lat="50.75099805226011" lon="15.708354836820403"><ele>1261.6666666666667</ele><time>2026-04-04T09:30:11.998Z</time></trkpt><trkpt lat="50.75094507457629" lon="15.708274170007295"><ele>1260.8333333333333</ele><time>2026-04-04T09:31:45.999Z</time></trkpt><trkpt lat="50.75096301181179" lon="15.708370730972907"><ele>1260.0</ele><time>2026-04-04T09:31:55.999Z</time></trkpt><trkpt lat="50.750901028586284" lon="15.708412915628793"><ele>1260.0</ele><time>2026-04-04T09:32:03.999Z</time></trkpt><trkpt lat="50.7507017475183" lon="15.708550099377577"><ele>1260.0</ele><time>2026-04-04T09:32:12.999Z</time></trkpt><trkpt lat="50.75063469671268" lon="15.708541340458055"><ele>1260.0</ele><time>2026-04-04T09:32:14.999Z</time></trkpt><trkpt lat="50.750573468639466" lon="15.708590687678196"><ele>1260.0</ele><time>2026-04-04T09:32:19.999Z</time></trkpt><trkpt lat="50.75051067542176" lon="15.708618852447506"><ele>1260.0</ele><time>2026-04-04T09:32:23.998Z</time></trkpt><trkpt lat="50.750592790552425" lon="15.708564971949208"><ele>1260.0</ele><time>2026-04-04T09:32:27.998Z</time></trkpt><trkpt lat="50.75084367306077" lon="15.708318036064233"><ele>1260.0</ele><time>2026-04-04T09:32:28.998Z</time></trkpt><trkpt lat="50.75091474719399" lon="15.70861556574868"><ele>1260.0</ele><time>2026-04-04T09:32:56.412Z</time></trkpt><trkpt lat="50.75098521453478" lon="15.708760639945341"><ele>1260.0</ele><time>2026-04-04T09:33:02.413Z</time></trkpt><trkpt lat="50.750941452963865" lon="15.708537666754328"><ele>1260.0</ele><time>2026-04-04T09:38:12.501Z</time></trkpt><trkpt lat="50.75091296820519" lon="15.708440261713728"><ele>1260.0</ele><time>2026-04-04T09:38:30.499Z</time></trkpt><trkpt lat="50.7509356889473" lon="15.708543366670588"><ele>1260.0</ele><time>2026-04-04T09:39:23.483Z</time></trkpt><trkpt lat="50.75095807140663" lon="15.708785962838611"><ele>1261.6666666666667</ele><time>2026-04-04T09:39:35.485Z</time></trkpt><trkpt lat="50.75095923928455" lon="15.708650122959822"><ele>1263.3333333333335</ele><time>2026-04-04T09:53:17.477Z</time></trkpt><trkpt lat="50.75090414931006" lon="15.709081063939031"><ele>1265.0</ele><time>2026-04-04T10:09:06.534Z</time></trkpt><trkpt lat="50.750985857464585" lon="15.7087427653136"><ele>1265.0</ele><time>2026-04-04T10:09:12.534Z</time></trkpt><trkpt lat="50.750933240289044" lon="15.708572582969616"><ele>1265.0</ele><time>2026-04-04T10:18:21.324Z</time></trkpt><trkpt lat="50.750960296266264" lon="15.708777527844815"><ele>1265.0</ele><time>2026-04-04T10:24:40.892Z</time></trkpt><trkpt lat="50.75091875516292" lon="15.708642109032771"><ele>1265.0</ele><time>2026-04-04T10:28:38.014Z</time></trkpt><trkpt lat="50.75076554318372" lon="15.708267749758024"><ele>1263.3333333333335</ele><time>2026-04-04T10:28:40.016Z</time></trkpt><trkpt lat="50.750924961768646" lon="15.708432207269787"><ele>1261.6666666666667</ele><time>2026-04-04T10:28:48.37Z</time></trkpt><trkpt lat="50.75104573854257" lon="15.70870313417663"><ele>1260.0</ele><time>2026-04-04T10:28:54.407Z</time></trkpt><trkpt lat="50.75050700350613" lon="15.708147839351906"><ele>1260.0</ele><time>2026-04-04T10:29:00.019Z</time></trkpt><trkpt lat="50.75078625160824" lon="15.708423254263764"><ele>1260.0</ele><time>2026-04-04T10:29:01.02Z</time></trkpt><trkpt lat="50.750850239872406" lon="15.70850329755268"><ele>1260.0</ele><time>2026-04-04T10:29:02.013Z</time></trkpt><trkpt lat="50.751007367121126" lon="15.708504300512654"><ele>1258.0</ele><time>2026-04-04T10:29:22.015Z</time></trkpt><trkpt lat="50.75106098798335" lon="15.708559309164547"><ele>1256.0</ele><time>2026-04-04T10:29:39.998Z</time></trkpt><trkpt lat="50.75110287643305" lon="15.708657722653038"><ele>1254.0</ele><time>2026-04-04T10:30:12.999Z</time></trkpt><trkpt lat="50.751133429505046" lon="15.708752517714647"><ele>1252.0</ele><time>2026-04-04T10:30:31.999Z</time></trkpt><trkpt lat="50.751178136700936" lon="15.708826876718385"><ele>1250.0</ele><time>2026-04-04T10:30:40.999Z</time></trkpt><trkpt lat="50.75122689203399" lon="15.708898322326736"><ele>1248.0</ele><time>2026-04-04T10:30:48.999Z</time></trkpt><trkpt lat="50.751297409218026" lon="15.708902690855984"><ele>1246.0</ele><time>2026-04-04T10:31:01.998Z</time></trkpt><trkpt lat="50.751360832086085" lon="15.708925631841433"><ele>1246.0</ele><time>2026-04-04T10:31:29Z</time></trkpt><trkpt lat="50.75141234323712" lon="15.708995871297613"><ele>1246.0</ele><time>2026-04-04T10:31:36Z</time></trkpt><trkpt lat="50.75145939658109" lon="15.709074754862723"><ele>1246.0</ele><time>2026-04-04T10:32:08.999Z</time></trkpt><trkpt lat="50.75151864050155" lon="15.709118034552816"><ele>1246.0</ele><time>2026-04-04T10:32:15.999Z</time></trkpt><trkpt lat="50.75157666950531" lon="15.709168089754328"><ele>1246.0</ele><time>2026-04-04T10:32:23.999Z</time></trkpt><trkpt lat="50.75163726403266" lon="15.709217703968921"><ele>1246.0</ele><time>2026-04-04T10:32:31.999Z</time></trkpt><trkpt lat="50.75169595856768" lon="15.709259595788591"><ele>1246.0</ele><time>2026-04-04T10:32:38.999Z</time></trkpt><trkpt lat="50.75175083760022" lon="15.709313939070581"><ele>1246.0</ele><time>2026-04-04T10:32:45.999Z</time></trkpt><trkpt lat="50.7518135735764" lon="15.709354690766327"><ele>1246.0</ele><time>2026-04-04T10:32:53.999Z</time></trkpt><trkpt lat="50.751879798192824" lon="15.709368128388997"><ele>1246.0</ele><time>2026-04-04T10:33:01.998Z</time></trkpt><trkpt lat="50.75195528998685" lon="15.709381029219056"><ele>1246.0</ele><time>2026-04-04T10:33:08.998Z</time></trkpt><trkpt lat="50.752028319219896" lon="15.70937217687042"><ele>1246.0</ele><time>2026-04-04T10:33:16.998Z</time></trkpt><trkpt lat="50.75210067753413" lon="15.709358963015546"><ele>1246.0</ele><time>2026-04-04T10:33:23.998Z</time></trkpt><trkpt lat="50.75217167849639" lon="15.70933937724902"><ele>1246.0</ele><time>2026-04-04T10:33:29.998Z</time></trkpt><trkpt lat="50.752238470257346" lon="15.709319565258273"><ele>1243.4285714285713</ele><time>2026-04-04T10:33:36Z</time></trkpt><trkpt lat="50.75230518289935" lon="15.709276155109706"><ele>1240.857142857143</ele><time>2026-04-04T10:33:47Z</time></trkpt><trkpt lat="50.75237513219913" lon="15.709264056157824"><ele>1238.2857142857142</ele><time>2026-04-04T10:33:55Z</time></trkpt><trkpt lat="50.752448676889756" lon="15.70925133523187"><ele>1235.7142857142858</ele><time>2026-04-04T10:34:01Z</time></trkpt><trkpt lat="50.752511335623524" lon="15.709235688156712"><ele>1233.142857142857</ele><time>2026-04-04T10:34:06Z</time></trkpt><trkpt lat="50.7525776485207" lon="15.709228295431268"><ele>1230.5714285714284</ele><time>2026-04-04T10:34:10Z</time></trkpt><trkpt lat="50.752647278598296" lon="15.709195106655944"><ele>1228.0</ele><time>2026-04-04T10:34:14.999Z</time></trkpt><trkpt lat="50.75271525754237" lon="15.709173335573533"><ele>1226.8571428571427</ele><time>2026-04-04T10:34:19.999Z</time></trkpt><trkpt lat="50.7527804864486" lon="15.709175620599527"><ele>1225.7142857142858</ele><time>2026-04-04T10:34:24.999Z</time></trkpt><trkpt lat="50.752844908102084" lon="15.709153185121771"><ele>1224.5714285714284</ele><time>2026-04-04T10:34:31.999Z</time></trkpt><trkpt lat="50.752898287967646" lon="15.709099665238258"><ele>1223.4285714285713</ele><time>2026-04-04T10:34:37.999Z</time></trkpt><trkpt lat="50.75296932557203" lon="15.709132285118663"><ele>1222.2857142857142</ele><time>2026-04-04T10:35:26.998Z</time></trkpt><trkpt lat="50.75303836921564" lon="15.70909902486493"><ele>1221.142857142857</ele><time>2026-04-04T10:35:29.998Z</time></trkpt><trkpt lat="50.753123604892" lon="15.709075989001018"><ele>1220.0</ele><time>2026-04-04T10:35:34.998Z</time></trkpt><trkpt lat="50.75319782972228" lon="15.709049181781557"><ele>1220.0</ele><time>2026-04-04T10:35:38.998Z</time></trkpt><trkpt lat="50.75326172664242" lon="15.709035836697499"><ele>1220.0</ele><time>2026-04-04T10:35:43Z</time></trkpt><trkpt lat="50.753321594294825" lon="15.708997905640201"><ele>1220.0</ele><time>2026-04-04T10:35:46Z</time></trkpt><trkpt lat="50.75338632933514" lon="15.70899129094966"><ele>1220.0</ele><time>2026-04-04T10:35:52Z</time></trkpt><trkpt lat="50.75344755168597" lon="15.708965535750757"><ele>1220.0</ele><time>2026-04-04T10:35:55Z</time></trkpt><trkpt lat="50.753519303000914" lon="15.708941875043113"><ele>1220.0</ele><time>2026-04-04T10:35:59Z</time></trkpt><trkpt lat="50.75358125905789" lon="15.708913345957502"><ele>1220.0</ele><time>2026-04-04T10:36:08Z</time></trkpt><trkpt lat="50.75364609478028" lon="15.708882959513668"><ele>1218.142857142857</ele><time>2026-04-04T10:36:24.999Z</time></trkpt><trkpt lat="50.753710180170714" lon="15.708865372879025"><ele>1216.2857142857142</ele><time>2026-04-04T10:36:33.999Z</time></trkpt><trkpt lat="50.75378093775893" lon="15.708836071376341"><ele>1214.4285714285713</ele><time>2026-04-04T10:36:40.999Z</time></trkpt><trkpt lat="50.75384483563438" lon="15.708805539037947"><ele>1212.5714285714284</ele><time>2026-04-04T10:36:46.999Z</time></trkpt><trkpt lat="50.75391228658194" lon="15.708783893805265"><ele>1210.7142857142858</ele><time>2026-04-04T10:36:52.999Z</time></trkpt><trkpt lat="50.753971141477926" lon="15.708726382574474"><ele>1208.8571428571427</ele><time>2026-04-04T10:36:58.999Z</time></trkpt><trkpt lat="50.75403185138457" lon="15.708697064627502"><ele>1207.0</ele><time>2026-04-04T10:37:03.999Z</time></trkpt><trkpt lat="50.754097589461715" lon="15.708696300247265"><ele>1206.9999999999998</ele><time>2026-04-04T10:37:13.998Z</time></trkpt><trkpt lat="50.754172556686925" lon="15.708663600127911"><ele>1207.0</ele><time>2026-04-04T10:37:19.998Z</time></trkpt><trkpt lat="50.75424480104027" lon="15.708660896821877"><ele>1207.0</ele><time>2026-04-04T10:37:28.998Z</time></trkpt><trkpt lat="50.75431033781842" lon="15.7086517071932"><ele>1207.0</ele><time>2026-04-04T10:37:34.998Z</time></trkpt><trkpt lat="50.75438391211851" lon="15.708639571602392"><ele>1207.0</ele><time>2026-04-04T10:37:47Z</time></trkpt><trkpt lat="50.75445042943881" lon="15.708634158561098"><ele>1206.9999999999998</ele><time>2026-04-04T10:37:52Z</time></trkpt><trkpt lat="50.75451746510919" lon="15.708617848302136"><ele>1207.0</ele><time>2026-04-04T10:37:58Z</time></trkpt><trkpt lat="50.75458179590264" lon="15.70860272204036"><ele>1204.4285714285713</ele><time>2026-04-04T10:38:02Z</time></trkpt><trkpt lat="50.754649654249604" lon="15.708601608979826"><ele>1201.857142857143</ele><time>2026-04-04T10:38:07Z</time></trkpt><trkpt lat="50.754723132885175" lon="15.708594442609987"><ele>1199.2857142857142</ele><time>2026-04-04T10:38:12Z</time></trkpt><trkpt lat="50.754791437300355" lon="15.708580840345107"><ele>1196.7142857142858</ele><time>2026-04-04T10:38:17Z</time></trkpt><trkpt lat="50.75485672042381" lon="15.708560800358901"><ele>1194.142857142857</ele><time>2026-04-04T10:38:23Z</time></trkpt><trkpt lat="50.754928522926505" lon="15.708530698881471"><ele>1191.5714285714284</ele><time>2026-04-04T10:38:28.999Z</time></trkpt><trkpt lat="50.755002235345444" lon="15.70852281403451"><ele>1189.0</ele><time>2026-04-04T10:38:32.999Z</time></trkpt><trkpt lat="50.75508385110966" lon="15.708501704449471"><ele>1188.142857142857</ele><time>2026-04-04T10:38:36.999Z</time></trkpt><trkpt lat="50.755148454327085" lon="15.708481613077106"><ele>1187.2857142857142</ele><time>2026-04-04T10:38:40.999Z</time></trkpt><trkpt lat="50.75521254854601" lon="15.70847610180476"><ele>1186.4285714285716</ele><time>2026-04-04T10:38:44.999Z</time></trkpt><trkpt lat="50.755275558975356" lon="15.70846503364493"><ele>1185.5714285714284</ele><time>2026-04-04T10:38:49.999Z</time></trkpt><trkpt lat="50.75534220723187" lon="15.708458347305772"><ele>1184.7142857142858</ele><time>2026-04-04T10:38:54.999Z</time></trkpt><trkpt lat="50.755409792917916" lon="15.708463384877156"><ele>1183.857142857143</ele><time>2026-04-04T10:38:58.999Z</time></trkpt><trkpt lat="50.7554845470332" lon="15.708480338996361"><ele>1183.0</ele><time>2026-04-04T10:39:02.999Z</time></trkpt><trkpt lat="50.75556700203129" lon="15.70847188660941"><ele>1180.7142857142858</ele><time>2026-04-04T10:39:06.999Z</time></trkpt><trkpt lat="50.755640986508745" lon="15.708487079629347"><ele>1178.4285714285716</ele><time>2026-04-04T10:39:10.999Z</time></trkpt><trkpt lat="50.75571162014679" lon="15.708484726240238"><ele>1176.142857142857</ele><time>2026-04-04T10:39:14.998Z</time></trkpt><trkpt lat="50.75577544670042" lon="15.708481948192736"><ele>1173.857142857143</ele><time>2026-04-04T10:39:18.998Z</time></trkpt><trkpt lat="50.75586759142131" lon="15.708480845780837"><ele>1171.5714285714287</ele><time>2026-04-04T10:40:08Z</time></trkpt><trkpt lat="50.75593459515193" lon="15.708489621468987"><ele>1169.2857142857142</ele><time>2026-04-04T10:40:13Z</time></trkpt><trkpt lat="50.75600972647779" lon="15.708493354523391"><ele>1167.0</ele><time>2026-04-04T10:40:17Z</time></trkpt><trkpt lat="50.75608141422264" lon="15.708482074285419"><ele>1164.7142857142858</ele><time>2026-04-04T10:40:21Z</time></trkpt><trkpt lat="50.756146726349115" lon="15.708484879778107"><ele>1162.4285714285716</ele><time>2026-04-04T10:40:25Z</time></trkpt><trkpt lat="50.75620991034376" lon="15.708472903118261"><ele>1160.142857142857</ele><time>2026-04-04T10:40:29Z</time></trkpt><trkpt lat="50.756283612092595" lon="15.708453628167074"><ele>1157.857142857143</ele><time>2026-04-04T10:40:33Z</time></trkpt><trkpt lat="50.75636655079107" lon="15.708434376294505"><ele>1155.5714285714284</ele><time>2026-04-04T10:40:35.999Z</time></trkpt><trkpt lat="50.756432743594374" lon="15.708436536052261"><ele>1153.2857142857142</ele><time>2026-04-04T10:40:37.999Z</time></trkpt><trkpt lat="50.75652063435642" lon="15.708450438089175"><ele>1151.0</ele><time>2026-04-04T10:40:40.999Z</time></trkpt><trkpt lat="50.75660895422415" lon="15.708464777245712"><ele>1150.9999999999998</ele><time>2026-04-04T10:40:44.999Z</time></trkpt><trkpt lat="50.75669901799992" lon="15.708476019784676"><ele>1151.0</ele><time>2026-04-04T10:40:48.999Z</time></trkpt><trkpt lat="50.75676120266534" lon="15.708448042519208"><ele>1151.0</ele><time>2026-04-04T10:41:33.998Z</time></trkpt><trkpt lat="50.756822481943765" lon="15.708481867272"><ele>1151.0</ele><time>2026-04-04T10:41:38.998Z</time></trkpt><trkpt lat="50.75689439340605" lon="15.708493341594105"><ele>1151.0</ele><time>2026-04-04T10:41:44.998Z</time></trkpt><trkpt lat="50.75695853632232" lon="15.70850057638171"><ele>1150.9999999999998</ele><time>2026-04-04T10:41:47.998Z</time></trkpt><trkpt lat="50.7570281037457" lon="15.708542279871422"><ele>1151.0</ele><time>2026-04-04T10:41:51.998Z</time></trkpt><trkpt lat="50.75709169272516" lon="15.708547421045914"><ele>1150.0</ele><time>2026-04-04T10:41:53.998Z</time></trkpt><trkpt lat="50.757166303275156" lon="15.708581368772153"><ele>1149.0</ele><time>2026-04-04T10:41:57.998Z</time></trkpt><trkpt lat="50.75722823336091" lon="15.70860410408495"><ele>1148.0</ele><time>2026-04-04T10:42:01Z</time></trkpt><trkpt lat="50.757297816224224" lon="15.708643348849305"><ele>1147.0</ele><time>2026-04-04T10:42:04Z</time></trkpt><trkpt lat="50.75739703490565" lon="15.708671103119798"><ele>1146.0</ele><time>2026-04-04T10:42:07Z</time></trkpt><trkpt lat="50.757472559717655" lon="15.708689793946663"><ele>1145.0</ele><time>2026-04-04T10:42:10Z</time></trkpt><trkpt lat="50.75753871405032" lon="15.70867718331177"><ele>1145.0000000000002</ele><time>2026-04-04T10:43:02.999Z</time></trkpt><trkpt lat="50.7576032350611" lon="15.708719831120156"><ele>1145.0</ele><time>2026-04-04T10:43:07.999Z</time></trkpt><trkpt lat="50.757674518322375" lon="15.708730022595335"><ele>1145.0</ele><time>2026-04-04T10:43:12.999Z</time></trkpt><trkpt lat="50.757737902524816" lon="15.708756518833374"><ele>1145.0</ele><time>2026-04-04T10:43:18.999Z</time></trkpt><trkpt lat="50.7578062018093" lon="15.708784515048047"><ele>1145.0</ele><time>2026-04-04T10:43:49.998Z</time></trkpt><trkpt lat="50.75787344082371" lon="15.708814896077365"><ele>1145.0000000000002</ele><time>2026-04-04T10:43:56.998Z</time></trkpt><trkpt lat="50.75793847808664" lon="15.708840257814005"><ele>1145.0</ele><time>2026-04-04T10:44:02.998Z</time></trkpt><trkpt lat="50.7580021484681" lon="15.708868922886175"><ele>1141.857142857143</ele><time>2026-04-04T10:44:10Z</time></trkpt><trkpt lat="50.75806331754616" lon="15.70889711468455"><ele>1138.7142857142858</ele><time>2026-04-04T10:44:15Z</time></trkpt><trkpt lat="50.75813255808434" lon="15.708918926503907"><ele>1135.5714285714284</ele><time>2026-04-04T10:44:22Z</time></trkpt><trkpt lat="50.75819770606501" lon="15.708945835811383"><ele>1132.4285714285716</ele><time>2026-04-04T10:44:29Z</time></trkpt><trkpt lat="50.758267981046096" lon="15.708954702635559"><ele>1129.2857142857142</ele><time>2026-04-04T10:44:37Z</time></trkpt><trkpt lat="50.75833210110032" lon="15.708956808016351"><ele>1126.142857142857</ele><time>2026-04-04T10:44:44.999Z</time></trkpt><trkpt lat="50.75840035920951" lon="15.708944877071737"><ele>1123.0</ele><time>2026-04-04T10:44:51.999Z</time></trkpt><trkpt lat="50.7584640234885" lon="15.708933540197897"><ele>1122.9999999999998</ele><time>2026-04-04T10:44:58.999Z</time></trkpt><trkpt lat="50.7585337519814" lon="15.708911117161657"><ele>1123.0</ele><time>2026-04-04T10:45:05.999Z</time></trkpt><trkpt lat="50.75859645860775" lon="15.708892513271907"><ele>1123.0</ele><time>2026-04-04T10:45:12.999Z</time></trkpt><trkpt lat="50.75865971103292" lon="15.70886666958115"><ele>1123.0</ele><time>2026-04-04T10:45:19.999Z</time></trkpt><trkpt lat="50.75872783132254" lon="15.708865206448534"><ele>1123.0</ele><time>2026-04-04T10:45:27.998Z</time></trkpt><trkpt lat="50.75879758110567" lon="15.708850249065252"><ele>1122.9999999999998</ele><time>2026-04-04T10:45:34.998Z</time></trkpt><trkpt lat="50.75886298204715" lon="15.708843754604525"><ele>1123.0</ele><time>2026-04-04T10:45:41.998Z</time></trkpt><trkpt lat="50.75894191321065" lon="15.708830928611237"><ele>1119.142857142857</ele><time>2026-04-04T10:45:47.998Z</time></trkpt><trkpt lat="50.75900695308781" lon="15.70882663253518"><ele>1115.2857142857142</ele><time>2026-04-04T10:45:53.998Z</time></trkpt><trkpt lat="50.75907150085951" lon="15.708826416807321"><ele>1111.4285714285716</ele><time>2026-04-04T10:45:59.998Z</time></trkpt><trkpt lat="50.75914100578258" lon="15.708818942234398"><ele>1107.5714285714284</ele><time>2026-04-04T10:46:02.998Z</time></trkpt><trkpt lat="50.75920273027759" lon="15.708842366280134"><ele>1103.7142857142858</ele><time>2026-04-04T10:46:08.997Z</time></trkpt><trkpt lat="50.75926735052211" lon="15.70886688922383"><ele>1099.857142857143</ele><time>2026-04-04T10:46:13Z</time></trkpt><trkpt lat="50.759336521542366" lon="15.70889398002118"><ele>1096.0</ele><time>2026-04-04T10:46:18Z</time></trkpt><trkpt lat="50.75940005530359" lon="15.70893488954623"><ele>1093.7142857142858</ele><time>2026-04-04T10:46:23Z</time></trkpt><trkpt lat="50.75947651674947" lon="15.709002632884513"><ele>1091.4285714285716</ele><time>2026-04-04T10:48:43Z</time></trkpt><trkpt lat="50.75951583299221" lon="15.709082987151259"><ele>1089.142857142857</ele><time>2026-04-04T10:48:47Z</time></trkpt><trkpt lat="50.75957600452984" lon="15.709146322498041"><ele>1086.857142857143</ele><time>2026-04-04T10:48:53Z</time></trkpt><trkpt lat="50.75963926592732" lon="15.70919463779635"><ele>1084.5714285714284</ele><time>2026-04-04T10:48:58.999Z</time></trkpt><trkpt lat="50.75969993724782" lon="15.709227880776266"><ele>1082.2857142857142</ele><time>2026-04-04T10:49:06.999Z</time></trkpt><trkpt lat="50.75975539288338" lon="15.709291569834667"><ele>1080.0</ele><time>2026-04-04T10:49:11.999Z</time></trkpt><trkpt lat="50.759811334633035" lon="15.709355908455814"><ele>1080.4285714285713</ele><time>2026-04-04T10:49:16.999Z</time></trkpt><trkpt lat="50.759870541904064" lon="15.709424545030146"><ele>1080.8571428571427</ele><time>2026-04-04T10:49:26.999Z</time></trkpt><trkpt lat="50.75992871192319" lon="15.709491979169815"><ele>1081.2857142857142</ele><time>2026-04-04T10:49:31.999Z</time></trkpt><trkpt lat="50.75998597494333" lon="15.709558469447984"><ele>1081.7142857142858</ele><time>2026-04-04T10:49:36.999Z</time></trkpt><trkpt lat="50.76004677150006" lon="15.709629102078264"><ele>1082.1428571428573</ele><time>2026-04-04T10:49:50.998Z</time></trkpt><trkpt lat="50.76009852040173" lon="15.709688894865739"><ele>1082.5714285714287</ele><time>2026-04-04T10:49:58.998Z</time></trkpt><trkpt lat="50.76015707614251" lon="15.709756552525624"><ele>1083.0</ele><time>2026-04-04T10:50:14.998Z</time></trkpt><trkpt lat="50.76020794028207" lon="15.70981532786631"><ele>1080.5714285714287</ele><time>2026-04-04T10:50:19.998Z</time></trkpt><trkpt lat="50.76026257183163" lon="15.70987846242935"><ele>1078.1428571428573</ele><time>2026-04-04T10:50:33Z</time></trkpt><trkpt lat="50.76031809205731" lon="15.709942623891912"><ele>1075.7142857142858</ele><time>2026-04-04T10:50:38Z</time></trkpt><trkpt lat="50.760379616125604" lon="15.710013826874942"><ele>1073.2857142857142</ele><time>2026-04-04T10:50:44Z</time></trkpt><trkpt lat="50.76043082094164" lon="15.710073331726852"><ele>1070.8571428571427</ele><time>2026-04-04T10:50:49Z</time></trkpt><trkpt lat="50.760481850593585" lon="15.710132633035952"><ele>1068.4285714285713</ele><time>2026-04-04T10:50:55Z</time></trkpt><trkpt lat="50.76054648530311" lon="15.710201390268036"><ele>1066.0</ele><time>2026-04-04T10:51:00.999Z</time></trkpt><trkpt lat="50.760610762261955" lon="15.71026774217158"><ele>1066.0</ele><time>2026-04-04T10:51:06.999Z</time></trkpt><trkpt lat="50.760668284045536" lon="15.710326868862783"><ele>1066.0</ele><time>2026-04-04T10:51:12.999Z</time></trkpt><trkpt lat="50.76071786689555" lon="15.710395363805524"><ele>1066.0</ele><time>2026-04-04T10:51:17.999Z</time></trkpt><trkpt lat="50.76075154335203" lon="15.710487493557764"><ele>1066.0</ele><time>2026-04-04T10:51:22.999Z</time></trkpt><trkpt lat="50.760800959349666" lon="15.710569899433231"><ele>1066.0</ele><time>2026-04-04T10:51:28.999Z</time></trkpt><trkpt lat="50.760856979642725" lon="15.710628181070044"><ele>1066.0</ele><time>2026-04-04T10:51:34.999Z</time></trkpt><trkpt lat="50.760915910348366" lon="15.710670635041454"><ele>1066.0</ele><time>2026-04-04T10:51:41.998Z</time></trkpt><trkpt lat="50.76097879890435" lon="15.710693925418761"><ele>1066.0</ele><time>2026-04-04T10:51:48.998Z</time></trkpt><trkpt lat="50.76102709030855" lon="15.710778280584883"><ele>1066.0</ele><time>2026-04-04T10:52:19.998Z</time></trkpt><trkpt lat="50.761091503292704" lon="15.710808704253456"><ele>1066.0</ele><time>2026-04-04T10:52:24.997Z</time></trkpt><trkpt lat="50.76116061393485" lon="15.71083904155956"><ele>1066.0</ele><time>2026-04-04T10:52:31Z</time></trkpt><trkpt lat="50.76122346930797" lon="15.710871018855299"><ele>1066.0</ele><time>2026-04-04T10:52:37Z</time></trkpt><trkpt lat="50.76129174258666" lon="15.710903257589985"><ele>1066.0</ele><time>2026-04-04T10:52:43Z</time></trkpt><trkpt lat="50.76136747746267" lon="15.710938794994215"><ele>1066.0</ele><time>2026-04-04T10:52:50Z</time></trkpt><trkpt lat="50.76143205686585" lon="15.710968945861223"><ele>1063.857142857143</ele><time>2026-04-04T10:52:56Z</time></trkpt><trkpt lat="50.76147598526229" lon="15.711043209546693"><ele>1061.7142857142856</ele><time>2026-04-04T10:53:02Z</time></trkpt><trkpt lat="50.76153859130595" lon="15.711087701440194"><ele>1059.5714285714284</ele><time>2026-04-04T10:53:07.999Z</time></trkpt><trkpt lat="50.761586424764936" lon="15.71115851602401"><ele>1057.4285714285713</ele><time>2026-04-04T10:53:13.999Z</time></trkpt><trkpt lat="50.76162768704571" lon="15.711249182989413"><ele>1055.2857142857142</ele><time>2026-04-04T10:53:18.999Z</time></trkpt><trkpt lat="50.76165499490728" lon="15.711353695834966"><ele>1053.142857142857</ele><time>2026-04-04T10:53:22.999Z</time></trkpt><trkpt lat="50.76168957510913" lon="15.711449746182378"><ele>1051.0</ele><time>2026-04-04T10:53:26.999Z</time></trkpt><trkpt lat="50.761707889814495" lon="15.711571211271506"><ele>1050.0</ele><time>2026-04-04T10:53:30.999Z</time></trkpt><trkpt lat="50.76171005104156" lon="15.711684698104909"><ele>1049.0</ele><time>2026-04-04T10:53:33.999Z</time></trkpt><trkpt lat="50.76169874407768" lon="15.711788844911393"><ele>1048.0</ele><time>2026-04-04T10:53:36.999Z</time></trkpt><trkpt lat="50.7617015107744" lon="15.711898160424663"><ele>1047.0</ele><time>2026-04-04T10:53:39.999Z</time></trkpt><trkpt lat="50.76170916809394" lon="15.712004983379138"><ele>1046.0</ele><time>2026-04-04T10:53:44.999Z</time></trkpt><trkpt lat="50.761685645601304" lon="15.712099743818802"><ele>1045.0</ele><time>2026-04-04T10:53:49.998Z</time></trkpt><trkpt lat="50.76170148950586" lon="15.71220155841508"><ele>1044.0</ele><time>2026-04-04T10:53:54.998Z</time></trkpt><trkpt lat="50.76169471306122" lon="15.712095453223615"><ele>1043.0</ele><time>2026-04-04T10:54:18.998Z</time></trkpt><trkpt lat="50.761666292798466" lon="15.71218513403766"><ele>1042.0</ele><time>2026-04-04T10:54:40Z</time></trkpt><trkpt lat="50.76165033997717" lon="15.712283678066616"><ele>1041.0</ele><time>2026-04-04T10:55:37.999Z</time></trkpt><trkpt lat="50.76164370098127" lon="15.71238646180174"><ele>1040.0</ele><time>2026-04-04T10:55:42.999Z</time></trkpt><trkpt lat="50.76162751103585" lon="15.71250109746619"><ele>1039.0</ele><time>2026-04-04T10:55:48.999Z</time></trkpt><trkpt lat="50.76162303736565" lon="15.712609694723797"><ele>1038.0</ele><time>2026-04-04T10:55:54.998Z</time></trkpt><trkpt lat="50.76160251741134" lon="15.712710696475694"><ele>1037.0</ele><time>2026-04-04T10:56:00.998Z</time></trkpt><trkpt lat="50.761604221476915" lon="15.712825151455018"><ele>1036.0</ele><time>2026-04-04T10:56:05.998Z</time></trkpt><trkpt lat="50.761594910547124" lon="15.712946188693032"><ele>1035.0</ele><time>2026-04-04T10:56:11.998Z</time></trkpt><trkpt lat="50.761572844783" lon="15.713048141498266"><ele>1034.0</ele><time>2026-04-04T10:56:17.998Z</time></trkpt><trkpt lat="50.76157394802808" lon="15.713157517737292"><ele>1033.0</ele><time>2026-04-04T10:56:23.998Z</time></trkpt><trkpt lat="50.76159310837043" lon="15.713255094248192"><ele>1032.0</ele><time>2026-04-04T10:56:30.998Z</time></trkpt><trkpt lat="50.76159703332473" lon="15.71336797198897"><ele>1031.0</ele><time>2026-04-04T10:56:38.997Z</time></trkpt><trkpt lat="50.76160454099662" lon="15.713491450291913"><ele>1030.0</ele><time>2026-04-04T10:56:51Z</time></trkpt><trkpt lat="50.76158185872856" lon="15.713604122729425"><ele>1028.2857142857142</ele><time>2026-04-04T10:57:14.999Z</time></trkpt><trkpt lat="50.76156362294007" lon="15.71370533687461"><ele>1026.5714285714284</ele><time>2026-04-04T10:57:22.999Z</time></trkpt><trkpt lat="50.761539216159626" lon="15.713802896183415"><ele>1024.8571428571427</ele><time>2026-04-04T10:57:27.999Z</time></trkpt><trkpt lat="50.761528872515" lon="15.713919026270093"><ele>1023.1428571428571</ele><time>2026-04-04T10:57:33.999Z</time></trkpt><trkpt lat="50.76149962434363" lon="15.714010315554319"><ele>1021.4285714285713</ele><time>2026-04-04T10:57:40.999Z</time></trkpt><trkpt lat="50.761455643739275" lon="15.714087397473131"><ele>1019.7142857142856</ele><time>2026-04-04T10:57:45.999Z</time></trkpt><trkpt lat="50.761411194661726" lon="15.714165589001764"><ele>1017.9999999999999</ele><time>2026-04-04T10:57:51.999Z</time></trkpt><trkpt lat="50.761351922323556" lon="15.714229536765385"><ele>1017.9999999999999</ele><time>2026-04-04T10:57:56.999Z</time></trkpt><trkpt lat="50.76130992174759" lon="15.714309696776892"><ele>1018.0</ele><time>2026-04-04T10:58:01.998Z</time></trkpt><trkpt lat="50.76127028312815" lon="15.714388255307748"><ele>1017.9999999999999</ele><time>2026-04-04T10:58:06.998Z</time></trkpt><trkpt lat="50.76124750677854" lon="15.714489130380155"><ele>1017.9999999999999</ele><time>2026-04-04T10:58:11.998Z</time></trkpt><trkpt lat="50.7612490743542" lon="15.714604609266818"><ele>1018.0</ele><time>2026-04-04T10:58:16.998Z</time></trkpt><trkpt lat="50.761236242118926" lon="15.714709765702462"><ele>1017.9999999999999</ele><time>2026-04-04T10:58:21.998Z</time></trkpt><trkpt lat="50.76122721255193" lon="15.714817547135537"><ele>1017.9999999999999</ele><time>2026-04-04T10:58:26.998Z</time></trkpt><trkpt lat="50.76121744699781" lon="15.71493817497935"><ele>1015.4285714285713</ele><time>2026-04-04T10:58:32.998Z</time></trkpt><trkpt lat="50.76124517640593" lon="15.715043536031152"><ele>1012.8571428571429</ele><time>2026-04-04T10:58:37.998Z</time></trkpt><trkpt lat="50.76125408232927" lon="15.715150639034327"><ele>1010.2857142857142</ele><time>2026-04-04T10:58:42.997Z</time></trkpt><trkpt lat="50.76127143703559" lon="15.715253830396408"><ele>1007.7142857142857</ele><time>2026-04-04T10:58:48Z</time></trkpt><trkpt lat="50.761232444427044" lon="15.715352886833456"><ele>1005.1428571428571</ele><time>2026-04-04T10:58:54Z</time></trkpt><trkpt lat="50.76120845593654" lon="15.715445842906094"><ele>1002.5714285714286</ele><time>2026-04-04T10:59:00Z</time></trkpt><trkpt lat="50.761152601060196" lon="15.715511856258775"><ele>1000.0</ele><time>2026-04-04T10:59:21.999Z</time></trkpt><trkpt lat="50.76110217957316" lon="15.715576701167086"><ele>1000.2857142857142</ele><time>2026-04-04T10:59:28.999Z</time></trkpt><trkpt lat="50.761054447672265" lon="15.715656589319357"><ele>1000.5714285714287</ele><time>2026-04-04T10:59:36.999Z</time></trkpt><trkpt lat="50.76100813413958" lon="15.715738178226069"><ele>1000.8571428571429</ele><time>2026-04-04T10:59:44.999Z</time></trkpt><trkpt lat="50.76097355710476" lon="15.715831242820054"><ele>1001.1428571428571</ele><time>2026-04-04T10:59:53.999Z</time></trkpt><trkpt lat="50.76093697179102" lon="15.715919307204485"><ele>1001.4285714285713</ele><time>2026-04-04T11:00:00.999Z</time></trkpt><trkpt lat="50.7608979330417" lon="15.716004160687175"><ele>1001.7142857142858</ele><time>2026-04-04T11:00:08.998Z</time></trkpt><trkpt lat="50.760843544463114" lon="15.716089526135372"><ele>1002.0</ele><time>2026-04-04T11:00:15.998Z</time></trkpt><trkpt lat="50.76080049147083" lon="15.716168361304641"><ele>999.0</ele><time>2026-04-04T11:00:20.998Z</time></trkpt><trkpt lat="50.76076120896287" lon="15.716253069042773"><ele>996.0</ele><time>2026-04-04T11:00:29.998Z</time></trkpt><trkpt lat="50.7607481380324" lon="15.716362756756158"><ele>993.0</ele><time>2026-04-04T11:00:38.998Z</time></trkpt><trkpt lat="50.760779223493394" lon="15.71645494756477"><ele>990.0</ele><time>2026-04-04T11:00:58Z</time></trkpt><trkpt lat="50.76078174490041" lon="15.716568982210529"><ele>987.0</ele><time>2026-04-04T11:01:05Z</time></trkpt><trkpt lat="50.760806215215375" lon="15.716668006059558"><ele>984.0</ele><time>2026-04-04T11:01:12Z</time></trkpt><trkpt lat="50.76083418544895" lon="15.716783344550814"><ele>981.0</ele><time>2026-04-04T11:01:18Z</time></trkpt><trkpt lat="50.7608711542985" lon="15.716880819008475"><ele>978.8571428571429</ele><time>2026-04-04T11:01:23Z</time></trkpt><trkpt lat="50.76089557636018" lon="15.716974680096651"><ele>976.7142857142857</ele><time>2026-04-04T11:01:31.999Z</time></trkpt><trkpt lat="50.76096559046601" lon="15.717026799587552"><ele>974.5714285714286</ele><time>2026-04-04T11:01:45.999Z</time></trkpt><trkpt lat="50.76093823015059" lon="15.717125603179364"><ele>972.4285714285714</ele><time>2026-04-04T11:01:52.999Z</time></trkpt><trkpt lat="50.760983641177816" lon="15.717194600027389"><ele>970.2857142857142</ele><time>2026-04-04T11:02:13.998Z</time></trkpt><trkpt lat="50.760974626384595" lon="15.717294554102047"><ele>968.1428571428571</ele><time>2026-04-04T11:02:18.998Z</time></trkpt><trkpt lat="50.7609806788304" lon="15.717418438823746"><ele>966.0</ele><time>2026-04-04T11:02:27.998Z</time></trkpt><trkpt lat="50.76097687305804" lon="15.717521798946118"><ele>966.0</ele><time>2026-04-04T11:02:37.998Z</time></trkpt><trkpt lat="50.761015440391944" lon="15.7176021606796"><ele>966.0</ele><time>2026-04-04T11:02:47.998Z</time></trkpt><trkpt lat="50.76101101825465" lon="15.717727398691851"><ele>966.0</ele><time>2026-04-04T11:02:55.997Z</time></trkpt><trkpt lat="50.76102406423558" lon="15.717836285089984"><ele>966.0</ele><time>2026-04-04T11:03:00Z</time></trkpt><trkpt lat="50.76101944595283" lon="15.717947911058348"><ele>966.0</ele><time>2026-04-04T11:03:04Z</time></trkpt><trkpt lat="50.76100177219531" lon="15.71806591667186"><ele>966.0</ele><time>2026-04-04T11:03:09Z</time></trkpt><trkpt lat="50.76107871163621" lon="15.717957041405876"><ele>964.2857142857142</ele><time>2026-04-04T11:03:37.999Z</time></trkpt><trkpt lat="50.76105738764905" lon="15.718060981968842"><ele>962.5714285714286</ele><time>2026-04-04T11:03:43.999Z</time></trkpt><trkpt lat="50.76104280530498" lon="15.718183834895234"><ele>960.8571428571429</ele><time>2026-04-04T11:03:48.999Z</time></trkpt><trkpt lat="50.76102394499939" lon="15.718296639494625"><ele>959.1428571428571</ele><time>2026-04-04T11:03:53.999Z</time></trkpt><trkpt lat="50.760993853422114" lon="15.718397542100721"><ele>957.4285714285713</ele><time>2026-04-04T11:03:58.999Z</time></trkpt><trkpt lat="50.760997737737725" lon="15.71851660142202"><ele>955.7142857142857</ele><time>2026-04-04T11:04:04.999Z</time></trkpt><trkpt lat="50.7610208652309" lon="15.718620786633371"><ele>954.0</ele><time>2026-04-04T11:04:12.999Z</time></trkpt><trkpt lat="50.761005276781134" lon="15.718734155741087"><ele>953.0</ele><time>2026-04-04T11:04:19.998Z</time></trkpt><trkpt lat="50.76099387269525" lon="15.71883630960956"><ele>951.9999999999999</ele><time>2026-04-04T11:04:24.998Z</time></trkpt><trkpt lat="50.76099831330912" lon="15.718944626388012"><ele>951.0</ele><time>2026-04-04T11:04:32.998Z</time></trkpt><trkpt lat="50.7609936743133" lon="15.719059528298754"><ele>950.0</ele><time>2026-04-04T11:04:36.998Z</time></trkpt><trkpt lat="50.76097514051125" lon="15.71915520271602"><ele>948.9999999999999</ele><time>2026-04-04T11:04:40.998Z</time></trkpt><trkpt lat="50.76096288584959" lon="15.719260561494291"><ele>948.0</ele><time>2026-04-04T11:04:44.998Z</time></trkpt><trkpt lat="50.76093465612341" lon="15.719370573805875"><ele>947.0</ele><time>2026-04-04T11:04:48.998Z</time></trkpt><trkpt lat="50.760922816382" lon="15.719472815440982"><ele>946.0</ele><time>2026-04-04T11:04:54.998Z</time></trkpt><trkpt lat="50.760915300951964" lon="15.719576226657097"><ele>944.9999999999999</ele><time>2026-04-04T11:05:02.997Z</time></trkpt><trkpt lat="50.76089781090616" lon="15.719688330495355"><ele>944.0</ele><time>2026-04-04T11:05:10Z</time></trkpt><trkpt lat="50.760923309975155" lon="15.719784677525652"><ele>943.0</ele><time>2026-04-04T11:05:18Z</time></trkpt><trkpt lat="50.76092648939157" lon="15.719892164159633"><ele>941.9999999999999</ele><time>2026-04-04T11:05:24Z</time></trkpt><trkpt lat="50.76091301640939" lon="15.719999810199845"><ele>941.0</ele><time>2026-04-04T11:05:31Z</time></trkpt><trkpt lat="50.76090614219706" lon="15.720112533846606"><ele>940.0</ele><time>2026-04-04T11:05:38.999Z</time></trkpt><trkpt lat="50.760900616846975" lon="15.720217967380426"><ele>939.2857142857142</ele><time>2026-04-04T11:05:45.999Z</time></trkpt><trkpt lat="50.76088394188238" lon="15.720328774432883"><ele>938.5714285714284</ele><time>2026-04-04T11:05:51.999Z</time></trkpt><trkpt lat="50.76087573214976" lon="15.720431692406184"><ele>937.8571428571429</ele><time>2026-04-04T11:05:58.999Z</time></trkpt><trkpt lat="50.76086035030922" lon="15.720537846829176"><ele>937.1428571428571</ele><time>2026-04-04T11:06:05.999Z</time></trkpt><trkpt lat="50.760845078012856" lon="15.720635295769338"><ele>936.4285714285714</ele><time>2026-04-04T11:06:12.999Z</time></trkpt><trkpt lat="50.760826122943044" lon="15.72073662722918"><ele>935.7142857142858</ele><time>2026-04-04T11:06:20.998Z</time></trkpt><trkpt lat="50.76079132959614" lon="15.720837641268604"><ele>935.0000000000001</ele><time>2026-04-04T11:06:27.998Z</time></trkpt><trkpt lat="50.760775142906084" lon="15.720960079893473"><ele>935.0000000000001</ele><time>2026-04-04T11:06:31.998Z</time></trkpt><trkpt lat="50.76077810501973" lon="15.721065532336624"><ele>935.0</ele><time>2026-04-04T11:06:36.998Z</time></trkpt><trkpt lat="50.7607571373168" lon="15.721164296065087"><ele>935.0000000000001</ele><time>2026-04-04T11:06:43.998Z</time></trkpt><trkpt lat="50.76074324298481" lon="15.721271674007477"><ele>935.0000000000001</ele><time>2026-04-04T11:06:51.998Z</time></trkpt><trkpt lat="50.76073139244378" lon="15.72138463480601"><ele>935.0</ele><time>2026-04-04T11:07:00.998Z</time></trkpt><trkpt lat="50.76070389180198" lon="15.721484955715304"><ele>935.0000000000001</ele><time>2026-04-04T11:07:06.997Z</time></trkpt><trkpt lat="50.760703819753104" lon="15.721602457284641"><ele>935.0000000000001</ele><time>2026-04-04T11:07:13Z</time></trkpt><trkpt lat="50.76073986078368" lon="15.721686102420223"><ele>933.857142857143</ele><time>2026-04-04T11:07:26Z</time></trkpt><trkpt lat="50.76072715953182" lon="15.721799702300006"><ele>932.7142857142858</ele><time>2026-04-04T11:07:33Z</time></trkpt><trkpt lat="50.76074625464386" lon="15.721904966564654"><ele>931.5714285714286</ele><time>2026-04-04T11:07:38Z</time></trkpt><trkpt lat="50.76081250298256" lon="15.721890231233036"><ele>930.4285714285714</ele><time>2026-04-04T11:07:49.999Z</time></trkpt><trkpt lat="50.7608502446593" lon="15.721995777815874"><ele>929.2857142857142</ele><time>2026-04-04T11:07:55.999Z</time></trkpt><trkpt lat="50.760872731469874" lon="15.72209995380835"><ele>928.142857142857</ele><time>2026-04-04T11:08:01.999Z</time></trkpt><trkpt lat="50.76093158173578" lon="15.722135788466588"><ele>926.9999999999999</ele><time>2026-04-04T11:08:09.999Z</time></trkpt><trkpt lat="50.76094543234573" lon="15.7222526657232"><ele>925.8333333333334</ele><time>2026-04-04T11:08:14.999Z</time></trkpt><trkpt lat="50.76101437035561" lon="15.722323170242305"><ele>924.6666666666667</ele><time>2026-04-04T11:08:19.999Z</time></trkpt><trkpt lat="50.76107994434978" lon="15.722353995228127"><ele>923.5</ele><time>2026-04-04T11:08:24.999Z</time></trkpt><trkpt lat="50.76115775859423" lon="15.722345403131596"><ele>922.3333333333334</ele><time>2026-04-04T11:08:35.998Z</time></trkpt><trkpt lat="50.76117741108974" lon="15.72245762367113"><ele>921.1666666666667</ele><time>2026-04-04T11:09:24Z</time></trkpt><trkpt lat="50.761196558440986" lon="15.722568199649546"><ele>920.0</ele><time>2026-04-04T11:09:29Z</time></trkpt><trkpt lat="50.76126444120894" lon="15.722625013252168"><ele>918.8571428571427</ele><time>2026-04-04T11:09:35Z</time></trkpt><trkpt lat="50.761329161473675" lon="15.722631105564519"><ele>917.7142857142857</ele><time>2026-04-04T11:09:39Z</time></trkpt><trkpt lat="50.761386935589535" lon="15.722697014932171"><ele>916.5714285714284</ele><time>2026-04-04T11:10:10.999Z</time></trkpt><trkpt lat="50.761432414454276" lon="15.722772821715365"><ele>915.4285714285713</ele><time>2026-04-04T11:10:17.999Z</time></trkpt><trkpt lat="50.76148967951208" lon="15.7228375124623"><ele>914.2857142857142</ele><time>2026-04-04T11:10:24.999Z</time></trkpt><trkpt lat="50.76153657765102" lon="15.72290604501809"><ele>913.1428571428571</ele><time>2026-04-04T11:10:29.999Z</time></trkpt><trkpt lat="50.761584862025" lon="15.722985081242653"><ele>912.0</ele><time>2026-04-04T11:10:34.999Z</time></trkpt><trkpt lat="50.76164116935106" lon="15.723068269301718"><ele>911.1428571428571</ele><time>2026-04-04T11:10:41.998Z</time></trkpt><trkpt lat="50.761692847184975" lon="15.72314022773618"><ele>910.2857142857142</ele><time>2026-04-04T11:10:47.998Z</time></trkpt><trkpt lat="50.76174746434986" lon="15.723195990270863"><ele>909.4285714285713</ele><time>2026-04-04T11:10:55.998Z</time></trkpt><trkpt lat="50.76179774297281" lon="15.723280749971668"><ele>908.5714285714284</ele><time>2026-04-04T11:11:03.998Z</time></trkpt><trkpt lat="50.76185870027129" lon="15.72332099172301"><ele>907.7142857142857</ele><time>2026-04-04T11:11:08.998Z</time></trkpt><trkpt lat="50.76191533575617" lon="15.723377069184105"><ele>906.8571428571427</ele><time>2026-04-04T11:11:13.998Z</time></trkpt><trkpt lat="50.76196262963793" lon="15.723455093202197"><ele>905.9999999999999</ele><time>2026-04-04T11:11:19.998Z</time></trkpt><trkpt lat="50.76202072635277" lon="15.723523800210963"><ele>903.9999999999999</ele><time>2026-04-04T11:11:24Z</time></trkpt><trkpt lat="50.76208322150533" lon="15.723581545177826"><ele>902.0</ele><time>2026-04-04T11:11:30Z</time></trkpt><trkpt lat="50.76212098327452" lon="15.723662747464807"><ele>900.0</ele><time>2026-04-04T11:11:37Z</time></trkpt><trkpt lat="50.76217789910715" lon="15.723730267628074"><ele>898.0</ele><time>2026-04-04T11:11:41Z</time></trkpt><trkpt lat="50.762242383893195" lon="15.723730776009793"><ele>896.0</ele><time>2026-04-04T11:11:50Z</time></trkpt><trkpt lat="50.76229978454985" lon="15.723787329773664"><ele>894.0</ele><time>2026-04-04T11:11:57Z</time></trkpt><trkpt lat="50.76234508922902" lon="15.723856665643883"><ele>892.0</ele><time>2026-04-04T11:12:02.999Z</time></trkpt><trkpt lat="50.76240767620345" lon="15.723822036664261"><ele>892.0</ele><time>2026-04-04T11:12:06.999Z</time></trkpt><trkpt lat="50.76247623863103" lon="15.723858303362173"><ele>892.0</ele><time>2026-04-04T11:12:11.999Z</time></trkpt><trkpt lat="50.76254950932447" lon="15.723846838896362"><ele>892.0</ele><time>2026-04-04T11:12:15.999Z</time></trkpt><trkpt lat="50.76262668944137" lon="15.723862808542197"><ele>892.0</ele><time>2026-04-04T11:12:21.999Z</time></trkpt><trkpt lat="50.76259408868487" lon="15.723763780151597"><ele>892.0</ele><time>2026-04-04T11:12:32.999Z</time></trkpt><trkpt lat="50.762671649660206" lon="15.723773048187773"><ele>892.0</ele><time>2026-04-04T11:12:40.999Z</time></trkpt><trkpt lat="50.762723305242304" lon="15.723711859923744"><ele>892.0</ele><time>2026-04-04T11:12:47.998Z</time></trkpt><trkpt lat="50.76279892193902" lon="15.723719224306684"><ele>889.8571428571429</ele><time>2026-04-04T11:12:53.998Z</time></trkpt><trkpt lat="50.76286879075469" lon="15.723702076069042"><ele>887.7142857142857</ele><time>2026-04-04T11:12:58.998Z</time></trkpt><trkpt lat="50.76293283387381" lon="15.723734294250042"><ele>885.5714285714287</ele><time>2026-04-04T11:13:06.998Z</time></trkpt><trkpt lat="50.76300857291839" lon="15.723730077980056"><ele>883.4285714285714</ele><time>2026-04-04T11:13:12.998Z</time></trkpt><trkpt lat="50.763075437204876" lon="15.723769789485509"><ele>881.2857142857143</ele><time>2026-04-04T11:13:18.998Z</time></trkpt><trkpt lat="50.76313101562777" lon="15.723829901863747"><ele>879.1428571428572</ele><time>2026-04-04T11:13:24.998Z</time></trkpt><trkpt lat="50.76320268885356" lon="15.723811051161558"><ele>877.0</ele><time>2026-04-04T11:13:36Z</time></trkpt><trkpt lat="50.76328861284055" lon="15.723818969104636"><ele>877.0000000000001</ele><time>2026-04-04T11:13:48Z</time></trkpt><trkpt lat="50.7633722939402" lon="15.72384013179567"><ele>877.0</ele><time>2026-04-04T11:13:54Z</time></trkpt><trkpt lat="50.763435468197265" lon="15.723859518741863"><ele>877.0</ele><time>2026-04-04T11:14:00Z</time></trkpt><trkpt lat="50.763501509090226" lon="15.723863214345222"><ele>877.0</ele><time>2026-04-04T11:14:04.999Z</time></trkpt><trkpt lat="50.76357791606132" lon="15.723864140381473"><ele>877.0</ele><time>2026-04-04T11:14:09.999Z</time></trkpt><trkpt lat="50.7636466655952" lon="15.723894948508397"><ele>877.0000000000001</ele><time>2026-04-04T11:14:14.999Z</time></trkpt><trkpt lat="50.76371404345045" lon="15.723943174026248"><ele>877.0</ele><time>2026-04-04T11:14:19.999Z</time></trkpt><trkpt lat="50.763781624582236" lon="15.723937820062584"><ele>875.5714285714287</ele><time>2026-04-04T11:14:24.999Z</time></trkpt><trkpt lat="50.763839822647704" lon="15.723978049219376"><ele>874.1428571428571</ele><time>2026-04-04T11:14:29.999Z</time></trkpt><trkpt lat="50.76390139066635" lon="15.72402346719127"><ele>872.7142857142858</ele><time>2026-04-04T11:14:35.999Z</time></trkpt><trkpt lat="50.76391054182798" lon="15.724142349575162"><ele>871.2857142857143</ele><time>2026-04-04T11:14:39.999Z</time></trkpt><trkpt lat="50.763922520817886" lon="15.724245178904143"><ele>869.8571428571429</ele><time>2026-04-04T11:14:46.999Z</time></trkpt><trkpt lat="50.76398569344772" lon="15.724289203078861"><ele>868.4285714285714</ele><time>2026-04-04T11:14:52.998Z</time></trkpt><trkpt lat="50.76404233417086" lon="15.724357278702461"><ele>867.0</ele><time>2026-04-04T11:14:58.998Z</time></trkpt><trkpt lat="50.764087973741496" lon="15.724434142487075"><ele>867.0</ele><time>2026-04-04T11:15:03.998Z</time></trkpt><trkpt lat="50.764144578753545" lon="15.724522040397042"><ele>867.0</ele><time>2026-04-04T11:15:08.998Z</time></trkpt><trkpt lat="50.76420829043158" lon="15.72459127550576"><ele>867.0</ele><time>2026-04-04T11:15:14.998Z</time></trkpt><trkpt lat="50.764288984749335" lon="15.724594377710996"><ele>867.0</ele><time>2026-04-04T11:15:19.998Z</time></trkpt><trkpt lat="50.764361940163255" lon="15.72462586425763"><ele>867.0</ele><time>2026-04-04T11:15:24.998Z</time></trkpt><trkpt lat="50.76441110108771" lon="15.724694933803406"><ele>867.0</ele><time>2026-04-04T11:15:28.998Z</time></trkpt><trkpt lat="50.76445606482226" lon="15.724773908230759"><ele>867.0</ele><time>2026-04-04T11:15:36Z</time></trkpt><trkpt lat="50.764511941274186" lon="15.724827073339924"><ele>865.4285714285714</ele><time>2026-04-04T11:15:43Z</time></trkpt><trkpt lat="50.764569411989996" lon="15.724877683089705"><ele>863.8571428571429</ele><time>2026-04-04T11:15:48Z</time></trkpt><trkpt lat="50.764635098022886" lon="15.724897068500205"><ele>862.2857142857143</ele><time>2026-04-04T11:15:52Z</time></trkpt><trkpt lat="50.76470060256217" lon="15.724937210184027"><ele>860.7142857142858</ele><time>2026-04-04T11:15:56Z</time></trkpt><trkpt lat="50.76476334733017" lon="15.725000208915038"><ele>859.1428571428571</ele><time>2026-04-04T11:16:02Z</time></trkpt><trkpt lat="50.76482906555668" lon="15.725050997587864"><ele>857.5714285714287</ele><time>2026-04-04T11:16:11Z</time></trkpt><trkpt lat="50.76489625747864" lon="15.725075319089482"><ele>856.0</ele><time>2026-04-04T11:16:15.999Z</time></trkpt><trkpt lat="50.7649541464005" lon="15.725114948167459"><ele>856.0000000000001</ele><time>2026-04-04T11:16:20.999Z</time></trkpt><trkpt lat="50.765008463716924" lon="15.725173296468387"><ele>856.0</ele><time>2026-04-04T11:16:27.999Z</time></trkpt><trkpt lat="50.76507224482798" lon="15.725211512853877"><ele>856.0</ele><time>2026-04-04T11:16:34.999Z</time></trkpt><trkpt lat="50.76513199253828" lon="15.725256733588436"><ele>856.0</ele><time>2026-04-04T11:16:40.999Z</time></trkpt><trkpt lat="50.765195844805" lon="15.72530782530438"><ele>856.0</ele><time>2026-04-04T11:16:47.999Z</time></trkpt><trkpt lat="50.76525740802361" lon="15.725333307561325"><ele>856.0000000000001</ele><time>2026-04-04T11:16:52.999Z</time></trkpt><trkpt lat="50.76531687246802" lon="15.725366348769688"><ele>856.0</ele><time>2026-04-04T11:16:57.998Z</time></trkpt><trkpt lat="50.7653756536425" lon="15.725425816620893"><ele>855.1428571428572</ele><time>2026-04-04T11:17:03.998Z</time></trkpt><trkpt lat="50.76544439391633" lon="15.725441472781586"><ele>854.2857142857143</ele><time>2026-04-04T11:17:09.998Z</time></trkpt><trkpt lat="50.7655158341737" lon="15.725466934065098"><ele>853.4285714285714</ele><time>2026-04-04T11:17:16.998Z</time></trkpt><trkpt lat="50.76558850189122" lon="15.725509151862715"><ele>852.5714285714287</ele><time>2026-04-04T11:17:23.998Z</time></trkpt><trkpt lat="50.76565132678352" lon="15.72553892052193"><ele>851.7142857142857</ele><time>2026-04-04T11:17:28.998Z</time></trkpt><trkpt lat="50.76573177310482" lon="15.725571606569485"><ele>850.8571428571429</ele><time>2026-04-04T11:17:35.998Z</time></trkpt><trkpt lat="50.7658046659553" lon="15.725611374792196"><ele>850.0</ele><time>2026-04-04T11:17:42Z</time></trkpt><trkpt lat="50.765866346111295" lon="15.725641970028283"><ele>850.0</ele><time>2026-04-04T11:17:47Z</time></trkpt><trkpt lat="50.76594408647534" lon="15.725671773339748"><ele>850.0</ele><time>2026-04-04T11:17:54Z</time></trkpt><trkpt lat="50.7660105702565" lon="15.725704633765025"><ele>850.0</ele><time>2026-04-04T11:17:59Z</time></trkpt><trkpt lat="50.76608316253853" lon="15.725728571313564"><ele>850.0</ele><time>2026-04-04T11:18:05Z</time></trkpt><trkpt lat="50.766146671103776" lon="15.725743151637031"><ele>850.0</ele><time>2026-04-04T11:18:11Z</time></trkpt><trkpt lat="50.76620822637721" lon="15.725792136054572"><ele>850.0</ele><time>2026-04-04T11:18:18.999Z</time></trkpt><trkpt lat="50.76627903773887" lon="15.725829617833059"><ele>850.0</ele><time>2026-04-04T11:18:24.999Z</time></trkpt><trkpt lat="50.76633963864593" lon="15.725879092741808"><ele>848.5714285714286</ele><time>2026-04-04T11:18:31.999Z</time></trkpt><trkpt lat="50.766405717361565" lon="15.725912761160595"><ele>847.1428571428571</ele><time>2026-04-04T11:18:36.999Z</time></trkpt><trkpt lat="50.766468443544824" lon="15.725971754842154"><ele>845.7142857142858</ele><time>2026-04-04T11:18:43.999Z</time></trkpt><trkpt lat="50.766527384676145" lon="15.726021333000933"><ele>844.2857142857142</ele><time>2026-04-04T11:18:48.999Z</time></trkpt><trkpt lat="50.766574309523754" lon="15.726093751397011"><ele>842.8571428571429</ele><time>2026-04-04T11:18:53.999Z</time></trkpt><trkpt lat="50.76661879836941" lon="15.726173659439443"><ele>841.4285714285714</ele><time>2026-04-04T11:18:59.999Z</time></trkpt><trkpt lat="50.76667310353293" lon="15.72625891398817"><ele>840.0</ele><time>2026-04-04T11:19:04.998Z</time></trkpt><trkpt lat="50.766723151789996" lon="15.726343180242703"><ele>840.0</ele><time>2026-04-04T11:19:10.998Z</time></trkpt><trkpt lat="50.76676364030422" lon="15.726423857555934"><ele>840.0</ele><time>2026-04-04T11:19:15.998Z</time></trkpt><trkpt lat="50.76681324853335" lon="15.72651193229265"><ele>840.0</ele><time>2026-04-04T11:19:21.998Z</time></trkpt><trkpt lat="50.76685292764116" lon="15.726600087099515"><ele>840.0</ele><time>2026-04-04T11:19:26.998Z</time></trkpt><trkpt lat="50.766905579816175" lon="15.726670745131246"><ele>840.0</ele><time>2026-04-04T11:19:31.998Z</time></trkpt><trkpt lat="50.76694460757753" lon="15.726768887396299"><ele>840.0</ele><time>2026-04-04T11:19:37.998Z</time></trkpt><trkpt lat="50.76699490842822" lon="15.726860276404981"><ele>840.0</ele><time>2026-04-04T11:19:43.998Z</time></trkpt><trkpt lat="50.767035468662705" lon="15.72694176300431"><ele>838.1428571428571</ele><time>2026-04-04T11:19:49Z</time></trkpt><trkpt lat="50.767077532542864" lon="15.727025627666016"><ele>836.2857142857142</ele><time>2026-04-04T11:19:55Z</time></trkpt><trkpt lat="50.767119005257456" lon="15.727113647804721"><ele>834.4285714285714</ele><time>2026-04-04T11:20:01Z</time></trkpt><trkpt lat="50.76717068899556" lon="15.72718790849781"><ele>832.5714285714286</ele><time>2026-04-04T11:20:07Z</time></trkpt><trkpt lat="50.76721224816529" lon="15.727280318696197"><ele>830.7142857142857</ele><time>2026-04-04T11:20:14Z</time></trkpt><trkpt lat="50.767251059233416" lon="15.727365701915241"><ele>828.8571428571429</ele><time>2026-04-04T11:20:19.999Z</time></trkpt><trkpt lat="50.76729942487281" lon="15.727445642552187"><ele>827.0</ele><time>2026-04-04T11:20:25.999Z</time></trkpt><trkpt lat="50.76735005610224" lon="15.727513176977912"><ele>827.0</ele><time>2026-04-04T11:20:31.999Z</time></trkpt><trkpt lat="50.76738972945567" lon="15.72760139258891"><ele>827.0</ele><time>2026-04-04T11:20:37.999Z</time></trkpt><trkpt lat="50.7674019430216" lon="15.72771272045775"><ele>827.0</ele><time>2026-04-04T11:20:44.999Z</time></trkpt><trkpt lat="50.767447064745205" lon="15.727788167215321"><ele>827.0</ele><time>2026-04-04T11:20:49.999Z</time></trkpt><trkpt lat="50.76748395020532" lon="15.727877695247601"><ele>827.0</ele><time>2026-04-04T11:20:54.999Z</time></trkpt><trkpt lat="50.76750410906712" lon="15.727982824951994"><ele>827.0</ele><time>2026-04-04T11:21:00.999Z</time></trkpt><trkpt lat="50.76751877027021" lon="15.728085279738288"><ele>827.0</ele><time>2026-04-04T11:21:06.998Z</time></trkpt><trkpt lat="50.76753609504487" lon="15.728190768689291"><ele>826.7142857142858</ele><time>2026-04-04T11:21:11.998Z</time></trkpt><trkpt lat="50.76754299479735" lon="15.728296059458257"><ele>826.4285714285713</ele><time>2026-04-04T11:21:16.998Z</time></trkpt><trkpt lat="50.76754677837666" lon="15.728417418345403"><ele>826.1428571428571</ele><time>2026-04-04T11:21:24.998Z</time></trkpt><trkpt lat="50.76760003146025" lon="15.728479408484864"><ele>825.8571428571429</ele><time>2026-04-04T11:21:36.998Z</time></trkpt><trkpt lat="50.767665282294054" lon="15.728523835839955"><ele>825.5714285714287</ele><time>2026-04-04T11:21:44.998Z</time></trkpt><trkpt lat="50.76773002900485" lon="15.728552679409603"><ele>825.2857142857142</ele><time>2026-04-04T11:21:50.998Z</time></trkpt><trkpt lat="50.767799687604466" lon="15.72859349646299"><ele>825.0</ele><time>2026-04-04T11:21:58Z</time></trkpt><trkpt lat="50.767850266144556" lon="15.728666683500553"><ele>822.7142857142857</ele><time>2026-04-04T11:22:03Z</time></trkpt><trkpt lat="50.76787921880451" lon="15.728766519459924"><ele>820.4285714285714</ele><time>2026-04-04T11:22:08Z</time></trkpt><trkpt lat="50.76792644257413" lon="15.728838126516575"><ele>818.1428571428571</ele><time>2026-04-04T11:22:14Z</time></trkpt><trkpt lat="50.767981471709476" lon="15.728899393213396"><ele>815.8571428571429</ele><time>2026-04-04T11:22:19Z</time></trkpt><trkpt lat="50.76804119906535" lon="15.728959835710157"><ele>813.5714285714287</ele><time>2026-04-04T11:22:25.999Z</time></trkpt><trkpt lat="50.76809220136429" lon="15.729025899356467"><ele>811.2857142857143</ele><time>2026-04-04T11:22:30.999Z</time></trkpt><trkpt lat="50.768125508409845" lon="15.729110797692192"><ele>809.0</ele><time>2026-04-04T11:22:36.999Z</time></trkpt><trkpt lat="50.768157595869226" lon="15.729205172020619"><ele>809.0</ele><time>2026-04-04T11:22:45.999Z</time></trkpt><trkpt lat="50.768201914261425" lon="15.729296512141723"><ele>809.0</ele><time>2026-04-04T11:22:51.999Z</time></trkpt><trkpt lat="50.768263445977425" lon="15.729325349591734"><ele>809.0</ele><time>2026-04-04T11:22:56.999Z</time></trkpt><trkpt lat="50.76831623976488" lon="15.72941548083028"><ele>809.0</ele><time>2026-04-04T11:23:02.999Z</time></trkpt><trkpt lat="50.76837152316142" lon="15.729482173876018"><ele>809.0</ele><time>2026-04-04T11:23:07.999Z</time></trkpt><trkpt lat="50.768410261214726" lon="15.729563694767002"><ele>809.0</ele><time>2026-04-04T11:23:13.998Z</time></trkpt><trkpt lat="50.76844756658679" lon="15.729647507413985"><ele>809.0</ele><time>2026-04-04T11:23:19.998Z</time></trkpt><trkpt lat="50.768483381465295" lon="15.729748310023632"><ele>806.7142857142858</ele><time>2026-04-04T11:23:26.998Z</time></trkpt><trkpt lat="50.76852814016609" lon="15.729830435992701"><ele>804.4285714285714</ele><time>2026-04-04T11:23:32.998Z</time></trkpt><trkpt lat="50.76856420856974" lon="15.729920443307686"><ele>802.1428571428571</ele><time>2026-04-04T11:23:39.998Z</time></trkpt><trkpt lat="50.76861688330248" lon="15.730000929370846"><ele>799.8571428571429</ele><time>2026-04-04T11:23:49.998Z</time></trkpt><trkpt lat="50.768661671772286" lon="15.730074689737753"><ele>797.5714285714286</ele><time>2026-04-04T11:23:56.998Z</time></trkpt><trkpt lat="50.76872001449431" lon="15.73014227480231"><ele>795.2857142857143</ele><time>2026-04-04T11:24:15Z</time></trkpt><trkpt lat="50.76877728937454" lon="15.730220699131964"><ele>793.0</ele><time>2026-04-04T11:24:22Z</time></trkpt><trkpt lat="50.76882876150818" lon="15.730290015383302"><ele>792.8571428571429</ele><time>2026-04-04T11:24:28Z</time></trkpt><trkpt lat="50.76887407446065" lon="15.730361118617168"><ele>792.7142857142858</ele><time>2026-04-04T11:24:32Z</time></trkpt><trkpt lat="50.768925248935815" lon="15.730440158747852"><ele>792.5714285714287</ele><time>2026-04-04T11:24:36.999Z</time></trkpt><trkpt lat="50.768975053033145" lon="15.730530172789633"><ele>792.4285714285714</ele><time>2026-04-04T11:24:44.999Z</time></trkpt><trkpt lat="50.769023952355056" lon="15.730621269429214"><ele>792.2857142857142</ele><time>2026-04-04T11:24:52.999Z</time></trkpt><trkpt lat="50.76906414191461" lon="15.730706399495054"><ele>792.1428571428572</ele><time>2026-04-04T11:25:03.999Z</time></trkpt><trkpt lat="50.76910753355403" lon="15.730798759863886"><ele>792.0</ele><time>2026-04-04T11:25:10.999Z</time></trkpt><trkpt lat="50.76915814018545" lon="15.730892951040948"><ele>792.0</ele><time>2026-04-04T11:25:14.999Z</time></trkpt><trkpt lat="50.769202771774864" lon="15.730981357588504"><ele>792.0</ele><time>2026-04-04T11:25:19.999Z</time></trkpt><trkpt lat="50.769243608425505" lon="15.731066311159529"><ele>792.0</ele><time>2026-04-04T11:25:22.999Z</time></trkpt><trkpt lat="50.769281385422566" lon="15.731152878819751"><ele>792.0</ele><time>2026-04-04T11:25:26.998Z</time></trkpt><trkpt lat="50.769321206831876" lon="15.731232255147253"><ele>792.0</ele><time>2026-04-04T11:25:36.998Z</time></trkpt><trkpt lat="50.76935900005694" lon="15.73133297354967"><ele>792.0</ele><time>2026-04-04T11:25:42.998Z</time></trkpt><trkpt lat="50.76939046013676" lon="15.731420500886319"><ele>792.0</ele><time>2026-04-04T11:25:49.998Z</time></trkpt><trkpt lat="50.76942721051939" lon="15.731520640312958"><ele>790.2857142857143</ele><time>2026-04-04T11:25:58.998Z</time></trkpt><trkpt lat="50.76946443488441" lon="15.73161622956076"><ele>788.5714285714286</ele><time>2026-04-04T11:26:06Z</time></trkpt><trkpt lat="50.76949860231733" lon="15.731703585929221"><ele>786.8571428571429</ele><time>2026-04-04T11:26:10Z</time></trkpt><trkpt lat="50.76953836986451" lon="15.731804907686389"><ele>785.1428571428571</ele><time>2026-04-04T11:26:15Z</time></trkpt><trkpt lat="50.76957753610313" lon="15.73190108656621"><ele>783.4285714285713</ele><time>2026-04-04T11:26:29Z</time></trkpt><trkpt lat="50.76961896986482" lon="15.731989581633657"><ele>781.7142857142857</ele><time>2026-04-04T11:26:34Z</time></trkpt><trkpt lat="50.769664329075134" lon="15.732073878973072"><ele>780.0</ele><time>2026-04-04T11:26:39Z</time></trkpt><trkpt lat="50.76971165862129" lon="15.73215143898027"><ele>779.1428571428571</ele><time>2026-04-04T11:26:43Z</time></trkpt><trkpt lat="50.76976418068822" lon="15.732221461125883"><ele>778.2857142857142</ele><time>2026-04-04T11:26:47.999Z</time></trkpt><trkpt lat="50.76981710700025" lon="15.732281506131073"><ele>777.4285714285714</ele><time>2026-04-04T11:26:52.999Z</time></trkpt><trkpt lat="50.76987509386889" lon="15.732325422560923"><ele>776.5714285714286</ele><time>2026-04-04T11:26:59.999Z</time></trkpt><trkpt lat="50.769905060376594" lon="15.732417250828417"><ele>775.7142857142858</ele><time>2026-04-04T11:27:04.999Z</time></trkpt><trkpt lat="50.769918945024955" lon="15.7325659923246"><ele>774.8571428571429</ele><time>2026-04-04T11:27:08.999Z</time></trkpt><trkpt lat="50.76994088964387" lon="15.732665921492679"><ele>774.0</ele><time>2026-04-04T11:27:14.999Z</time></trkpt><trkpt lat="50.76999829033908" lon="15.732730457221674"><ele>773.7142857142858</ele><time>2026-04-04T11:27:19.999Z</time></trkpt><trkpt lat="50.77006692175417" lon="15.732788842246423"><ele>773.4285714285714</ele><time>2026-04-04T11:27:24.999Z</time></trkpt><trkpt lat="50.770115306934905" lon="15.7328711747055"><ele>773.1428571428571</ele><time>2026-04-04T11:27:29.999Z</time></trkpt><trkpt lat="50.77015385862772" lon="15.732965667593877"><ele>772.8571428571429</ele><time>2026-04-04T11:27:34.998Z</time></trkpt><trkpt lat="50.77019244167887" lon="15.73305237254121"><ele>772.5714285714286</ele><time>2026-04-04T11:27:42.998Z</time></trkpt><trkpt lat="50.77023268390511" lon="15.733148769962506"><ele>772.2857142857143</ele><time>2026-04-04T11:27:48.998Z</time></trkpt><trkpt lat="50.77027003138627" lon="15.733249194470604"><ele>772.0</ele><time>2026-04-04T11:27:55.998Z</time></trkpt><trkpt lat="50.77030785811857" lon="15.733342382673463"><ele>770.8571428571429</ele><time>2026-04-04T11:28:02.998Z</time></trkpt><trkpt lat="50.770346071326514" lon="15.733436653392461"><ele>769.7142857142858</ele><time>2026-04-04T11:28:08.998Z</time></trkpt><trkpt lat="50.77038403619799" lon="15.733525791281604"><ele>768.5714285714287</ele><time>2026-04-04T11:28:15Z</time></trkpt><trkpt lat="50.770430591061" lon="15.7336186230729"><ele>767.4285714285714</ele><time>2026-04-04T11:28:21Z</time></trkpt><trkpt lat="50.77046660177423" lon="15.73370681464412"><ele>766.2857142857142</ele><time>2026-04-04T11:28:27Z</time></trkpt><trkpt lat="50.770496341668256" lon="15.733796818104025"><ele>765.1428571428572</ele><time>2026-04-04T11:28:45Z</time></trkpt><trkpt lat="50.770531549721625" lon="15.733892072363005"><ele>764.0</ele><time>2026-04-04T11:28:50Z</time></trkpt><trkpt lat="50.770572810612755" lon="15.73397663661803"><ele>764.0</ele><time>2026-04-04T11:28:54.999Z</time></trkpt><trkpt lat="50.77061290638507" lon="15.734054118739461"><ele>764.0</ele><time>2026-04-04T11:28:58.999Z</time></trkpt><trkpt lat="50.77065910961062" lon="15.734142665353495"><ele>764.0</ele><time>2026-04-04T11:29:03.999Z</time></trkpt><trkpt lat="50.77070342825985" lon="15.734226737354758"><ele>764.0</ele><time>2026-04-04T11:29:08.999Z</time></trkpt><trkpt lat="50.77074355045346" lon="15.734303976768325"><ele>764.0</ele><time>2026-04-04T11:29:13.999Z</time></trkpt><trkpt lat="50.77078760295563" lon="15.734388782318483"><ele>764.0</ele><time>2026-04-04T11:29:18.999Z</time></trkpt><trkpt lat="50.770832927727795" lon="15.734476037318549"><ele>764.0</ele><time>2026-04-04T11:29:24.999Z</time></trkpt><trkpt lat="50.77087892454096" lon="15.734564773777151"><ele>764.0</ele><time>2026-04-04T11:29:30.999Z</time></trkpt><trkpt lat="50.7709254519684" lon="15.734654627598145"><ele>764.0</ele><time>2026-04-04T11:29:36.999Z</time></trkpt><trkpt lat="50.77097282254966" lon="15.73474611010523"><ele>764.0</ele><time>2026-04-04T11:29:42.998Z</time></trkpt><trkpt lat="50.771019905009375" lon="15.734837035898929"><ele>764.0</ele><time>2026-04-04T11:29:49.998Z</time></trkpt><trkpt lat="50.771063288695714" lon="15.734912278577468"><ele>764.0</ele><time>2026-04-04T11:29:56.998Z</time></trkpt><trkpt lat="50.771104244237954" lon="15.734999715867868"><ele>764.0</ele><time>2026-04-04T11:30:11.998Z</time></trkpt><trkpt lat="50.77102850033169" lon="15.734951618766333"><ele>764.0</ele><time>2026-04-04T11:32:16.998Z</time></trkpt><trkpt lat="50.77104575701185" lon="15.73505973745319"><ele>762.4285714285714</ele><time>2026-04-04T11:32:59Z</time></trkpt><trkpt lat="50.77106746657963" lon="15.735166076518942"><ele>760.8571428571428</ele><time>2026-04-04T11:33:05.999Z</time></trkpt><trkpt lat="50.77113714809441" lon="15.735249395545141"><ele>759.2857142857142</ele><time>2026-04-04T11:33:16.999Z</time></trkpt><trkpt lat="50.771193470157954" lon="15.7353100259019"><ele>757.7142857142858</ele><time>2026-04-04T11:33:23.999Z</time></trkpt><trkpt lat="50.771248795838346" lon="15.73535844653487"><ele>756.1428571428571</ele><time>2026-04-04T11:33:42.999Z</time></trkpt><trkpt lat="50.77131190351542" lon="15.735420023617808"><ele>754.5714285714286</ele><time>2026-04-04T11:33:48.998Z</time></trkpt><trkpt lat="50.771359552632596" lon="15.735495852268082"><ele>753.0</ele><time>2026-04-04T11:33:53.998Z</time></trkpt><trkpt lat="50.77139107786168" lon="15.735582258439365"><ele>752.7142857142858</ele><time>2026-04-04T11:33:58.998Z</time></trkpt><trkpt lat="50.77142871490493" lon="15.735682654341057"><ele>752.4285714285714</ele><time>2026-04-04T11:34:04.998Z</time></trkpt><trkpt lat="50.771461874807706" lon="15.735767818610476"><ele>752.1428571428571</ele><time>2026-04-04T11:34:09.998Z</time></trkpt><trkpt lat="50.77152201000441" lon="15.735814442103415"><ele>751.8571428571429</ele><time>2026-04-04T11:34:14.998Z</time></trkpt><trkpt lat="50.77155227564225" lon="15.735913816640467"><ele>751.5714285714286</ele><time>2026-04-04T11:34:19.998Z</time></trkpt><trkpt lat="50.7715885411322" lon="15.736000616107749"><ele>751.2857142857143</ele><time>2026-04-04T11:34:24.998Z</time></trkpt><trkpt lat="50.771622831774785" lon="15.736088135287517"><ele>751.0</ele><time>2026-04-04T11:34:30Z</time></trkpt><trkpt lat="50.77167022816501" lon="15.73616780415422"><ele>751.0000000000001</ele><time>2026-04-04T11:34:36Z</time></trkpt><trkpt lat="50.77170242175821" lon="15.7362740368922"><ele>751.0</ele><time>2026-04-04T11:34:42Z</time></trkpt><trkpt lat="50.77174874769764" lon="15.736353811205495"><ele>751.0</ele><time>2026-04-04T11:34:48Z</time></trkpt><trkpt lat="50.77179143479572" lon="15.736448137467335"><ele>751.0</ele><time>2026-04-04T11:34:54Z</time></trkpt><trkpt lat="50.77183425166905" lon="15.736540517909562"><ele>751.0</ele><time>2026-04-04T11:35:00Z</time></trkpt><trkpt lat="50.77186870698996" lon="15.736624726087497"><ele>751.0000000000001</ele><time>2026-04-04T11:35:04.999Z</time></trkpt><trkpt lat="50.771917295646276" lon="15.736710657973866"><ele>751.0</ele><time>2026-04-04T11:35:10.999Z</time></trkpt><trkpt lat="50.77194574623233" lon="15.736803140065673"><ele>748.5714285714287</ele><time>2026-04-04T11:35:15.999Z</time></trkpt><trkpt lat="50.77195990273472" lon="15.736918774778383"><ele>746.1428571428571</ele><time>2026-04-04T11:35:21.999Z</time></trkpt><trkpt lat="50.771982250187435" lon="15.737022297336155"><ele>743.7142857142858</ele><time>2026-04-04T11:35:27.999Z</time></trkpt><trkpt lat="50.77201005349293" lon="15.73712310127004"><ele>741.2857142857143</ele><time>2026-04-04T11:35:33.999Z</time></trkpt><trkpt lat="50.77204579058121" lon="15.737222023860955"><ele>738.8571428571429</ele><time>2026-04-04T11:35:39.999Z</time></trkpt><trkpt lat="50.77206327501424" lon="15.737337042951253"><ele>736.4285714285714</ele><time>2026-04-04T11:35:46.998Z</time></trkpt><trkpt lat="50.77210242805358" lon="15.737417815360766"><ele>734.0</ele><time>2026-04-04T11:35:55.998Z</time></trkpt><trkpt lat="50.772139038381326" lon="15.73749974552758"><ele>734.0</ele><time>2026-04-04T11:36:09.998Z</time></trkpt><trkpt lat="50.77218228575499" lon="15.73759216315984"><ele>734.0</ele><time>2026-04-04T11:36:16.998Z</time></trkpt><trkpt lat="50.77222681523761" lon="15.737686758774531"><ele>734.0</ele><time>2026-04-04T11:36:23.998Z</time></trkpt><trkpt lat="50.7722788858291" lon="15.737767153753248"><ele>734.0</ele><time>2026-04-04T11:36:29.997Z</time></trkpt><trkpt lat="50.77233154921359" lon="15.737842374111127"><ele>734.0</ele><time>2026-04-04T11:36:36Z</time></trkpt><trkpt lat="50.77237863049384" lon="15.737921392653337"><ele>734.0</ele><time>2026-04-04T11:36:42Z</time></trkpt><trkpt lat="50.772435011726365" lon="15.73798057322128"><ele>734.0</ele><time>2026-04-04T11:36:49Z</time></trkpt><trkpt lat="50.772494202347836" lon="15.738046622778203"><ele>734.4285714285714</ele><time>2026-04-04T11:36:56Z</time></trkpt><trkpt lat="50.772537449221915" lon="15.7381210251034"><ele>734.8571428571429</ele><time>2026-04-04T11:37:01Z</time></trkpt><trkpt lat="50.77257646699861" lon="15.73821165443052"><ele>735.2857142857143</ele><time>2026-04-04T11:37:18.999Z</time></trkpt><trkpt lat="50.7726174250718" lon="15.73830665801084"><ele>735.7142857142858</ele><time>2026-04-04T11:37:24.999Z</time></trkpt><trkpt lat="50.77265782687585" lon="15.738400371302573"><ele>736.1428571428571</ele><time>2026-04-04T11:37:30.999Z</time></trkpt><trkpt lat="50.77270449114788" lon="15.73848354863465"><ele>736.5714285714287</ele><time>2026-04-04T11:37:35.999Z</time></trkpt><trkpt lat="50.77277192499794" lon="15.738517197974689"><ele>737.0</ele><time>2026-04-04T11:37:39.999Z</time></trkpt><trkpt lat="50.772840546248126" lon="15.738478625058992"><ele>735.0000000000001</ele><time>2026-04-04T11:37:41.999Z</time></trkpt><trkpt lat="50.77291148006464" lon="15.73848748109413"><ele>733.0</ele><time>2026-04-04T11:37:48.999Z</time></trkpt><trkpt lat="50.7729752548382" lon="15.738491076923678"><ele>731.0</ele><time>2026-04-04T11:37:58.998Z</time></trkpt><trkpt lat="50.773042699647974" lon="15.738508514487322"><ele>729.0</ele><time>2026-04-04T11:38:04.998Z</time></trkpt><trkpt lat="50.77310099945118" lon="15.738546507524498"><ele>727.0</ele><time>2026-04-04T11:38:13.998Z</time></trkpt><trkpt lat="50.77315987590769" lon="15.73861813651381"><ele>725.0000000000001</ele><time>2026-04-04T11:38:17.998Z</time></trkpt><trkpt lat="50.77323081735966" lon="15.738640283848442"><ele>723.0</ele><time>2026-04-04T11:38:24.998Z</time></trkpt><trkpt lat="50.773300175512674" lon="15.738675055443377"><ele>723.0000000000001</ele><time>2026-04-04T11:38:40Z</time></trkpt><trkpt lat="50.77336391400542" lon="15.738703477088167"><ele>723.0</ele><time>2026-04-04T11:38:46Z</time></trkpt><trkpt lat="50.773433802132544" lon="15.738729983030701"><ele>723.0</ele><time>2026-04-04T11:38:53Z</time></trkpt><trkpt lat="50.77348685135917" lon="15.738801059062856"><ele>723.0</ele><time>2026-04-04T11:38:58Z</time></trkpt><trkpt lat="50.77356158262847" lon="15.738840239516174"><ele>723.0</ele><time>2026-04-04T11:39:03Z</time></trkpt><trkpt lat="50.773603255489334" lon="15.738958452179894"><ele>723.0000000000001</ele><time>2026-04-04T11:39:07Z</time></trkpt><trkpt lat="50.77366580726329" lon="15.738974476801626"><ele>723.0</ele><time>2026-04-04T11:39:12.999Z</time></trkpt><trkpt lat="50.773738466854084" lon="15.738965710823024"><ele>721.5714285714287</ele><time>2026-04-04T11:39:18.999Z</time></trkpt><trkpt lat="50.77380480811487" lon="15.739002541045249"><ele>720.1428571428571</ele><time>2026-04-04T11:39:25.999Z</time></trkpt><trkpt lat="50.77386428042227" lon="15.73903579124691"><ele>718.7142857142858</ele><time>2026-04-04T11:39:28.999Z</time></trkpt><trkpt lat="50.77391747542307" lon="15.739091581283196"><ele>717.2857142857143</ele><time>2026-04-04T11:39:31.999Z</time></trkpt><trkpt lat="50.77396588114862" lon="15.73917731157073"><ele>715.8571428571429</ele><time>2026-04-04T11:39:36.999Z</time></trkpt><trkpt lat="50.77401033618101" lon="15.73925564039595"><ele>714.4285714285714</ele><time>2026-04-04T11:40:05.998Z</time></trkpt><trkpt lat="50.774053693920195" lon="15.739342534073122"><ele>713.0</ele><time>2026-04-04T11:40:11.998Z</time></trkpt><trkpt lat="50.774103518871684" lon="15.739414410275964"><ele>713.0</ele><time>2026-04-04T11:40:16.998Z</time></trkpt><trkpt lat="50.77416024464027" lon="15.739489420909498"><ele>713.0</ele><time>2026-04-04T11:40:22.998Z</time></trkpt><trkpt lat="50.77421160144842" lon="15.739547642464464"><ele>713.0</ele><time>2026-04-04T11:40:27.998Z</time></trkpt><trkpt lat="50.7742722751545" lon="15.739591447743523"><ele>713.0</ele><time>2026-04-04T11:40:32.998Z</time></trkpt><trkpt lat="50.77432837188584" lon="15.739638472537624"><ele>713.0</ele><time>2026-04-04T11:40:42.997Z</time></trkpt><trkpt lat="50.77438174340855" lon="15.739709253222422"><ele>713.0</ele><time>2026-04-04T11:40:59Z</time></trkpt><trkpt lat="50.77444888292122" lon="15.73976171261159"><ele>713.0</ele><time>2026-04-04T11:41:06Z</time></trkpt><trkpt lat="50.77451369395534" lon="15.739721136023118"><ele>712.0</ele><time>2026-04-04T11:41:11Z</time></trkpt><trkpt lat="50.77457254123377" lon="15.739766836614494"><ele>711.0</ele><time>2026-04-04T11:41:16Z</time></trkpt><trkpt lat="50.774645195024696" lon="15.739758338508379"><ele>710.0</ele><time>2026-04-04T11:41:21Z</time></trkpt><trkpt lat="50.77470794277275" lon="15.739742518242398"><ele>709.0</ele><time>2026-04-04T11:41:23.999Z</time></trkpt><trkpt lat="50.7747734780744" lon="15.739772677018303"><ele>708.0</ele><time>2026-04-04T11:41:28.999Z</time></trkpt><trkpt lat="50.77483298919932" lon="15.739840683633377"><ele>707.0</ele><time>2026-04-04T11:41:34.999Z</time></trkpt><trkpt lat="50.774895019493904" lon="15.739906094997645"><ele>706.0</ele><time>2026-04-04T11:41:40.999Z</time></trkpt><trkpt lat="50.77495036220524" lon="15.739971529921394"><ele>706.0</ele><time>2026-04-04T11:41:45.999Z</time></trkpt><trkpt lat="50.77500933515108" lon="15.740038412091485"><ele>706.0</ele><time>2026-04-04T11:41:53.999Z</time></trkpt><trkpt lat="50.77505740179095" lon="15.740116119835776"><ele>706.0</ele><time>2026-04-04T11:41:59.999Z</time></trkpt><trkpt lat="50.77510036326519" lon="15.740203689354265"><ele>706.0</ele><time>2026-04-04T11:42:05.999Z</time></trkpt><trkpt lat="50.77515547383378" lon="15.740282723738915"><ele>706.0</ele><time>2026-04-04T11:42:21.998Z</time></trkpt><trkpt lat="50.775222935165914" lon="15.740360407248586"><ele>706.0</ele><time>2026-04-04T11:42:30.998Z</time></trkpt><trkpt lat="50.7752810784992" lon="15.740405952556616"><ele>706.0</ele><time>2026-04-04T11:42:36.998Z</time></trkpt><trkpt lat="50.77534047191129" lon="15.740445617959557"><ele>704.5714285714286</ele><time>2026-04-04T11:42:42.998Z</time></trkpt><trkpt lat="50.775410191281104" lon="15.740485457982324"><ele>703.1428571428572</ele><time>2026-04-04T11:42:47.998Z</time></trkpt><trkpt lat="50.77547823853509" lon="15.740525228807462"><ele>701.7142857142858</ele><time>2026-04-04T11:42:55Z</time></trkpt><trkpt lat="50.77554134768836" lon="15.74057776533685"><ele>700.2857142857142</ele><time>2026-04-04T11:43:01Z</time></trkpt><trkpt lat="50.77561997389942" lon="15.740631255777837"><ele>698.8571428571429</ele><time>2026-04-04T11:43:06Z</time></trkpt><trkpt lat="50.77567719150379" lon="15.740687861009718"><ele>697.4285714285714</ele><time>2026-04-04T11:43:10Z</time></trkpt><trkpt lat="50.77573151006787" lon="15.740750775428817"><ele>696.0</ele><time>2026-04-04T11:43:15Z</time></trkpt><trkpt lat="50.775762522212354" lon="15.740838816872756"><ele>696.0</ele><time>2026-04-04T11:43:22Z</time></trkpt><trkpt lat="50.775778102313446" lon="15.740944483379877"><ele>696.0</ele><time>2026-04-04T11:43:27.999Z</time></trkpt><trkpt lat="50.775787231361925" lon="15.741078839102595"><ele>696.0</ele><time>2026-04-04T11:43:35.999Z</time></trkpt><trkpt lat="50.77579044815488" lon="15.741220083616929"><ele>696.0</ele><time>2026-04-04T11:43:41.999Z</time></trkpt><trkpt lat="50.775812738059734" lon="15.741344717966287"><ele>696.0</ele><time>2026-04-04T11:43:47.999Z</time></trkpt><trkpt lat="50.775846390858334" lon="15.74143398694385"><ele>696.0</ele><time>2026-04-04T11:43:54.999Z</time></trkpt><trkpt lat="50.77586539463749" lon="15.741566854389028"><ele>696.1428571428571</ele><time>2026-04-04T11:44:01.999Z</time></trkpt><trkpt lat="50.77593242847631" lon="15.741574263002684"><ele>696.2857142857143</ele><time>2026-04-04T11:44:05.999Z</time></trkpt><trkpt lat="50.77598535879087" lon="15.741644857184681"><ele>696.4285714285714</ele><time>2026-04-04T11:44:10.998Z</time></trkpt><trkpt lat="50.776042713732295" lon="15.741711700050521"><ele>696.5714285714286</ele><time>2026-04-04T11:44:13.998Z</time></trkpt><trkpt lat="50.776095128600744" lon="15.741781814469949"><ele>696.7142857142857</ele><time>2026-04-04T11:44:18.998Z</time></trkpt><trkpt lat="50.77615185930853" lon="15.741831827838679"><ele>696.8571428571429</ele><time>2026-04-04T11:44:23.998Z</time></trkpt><trkpt lat="50.77620682854555" lon="15.741890974617341"><ele>697.0</ele><time>2026-04-04T11:44:28.998Z</time></trkpt><trkpt lat="50.77625962680209" lon="15.7419553689184"><ele>694.7142857142858</ele><time>2026-04-04T11:44:33.998Z</time></trkpt><trkpt lat="50.77632522055107" lon="15.742041673715754"><ele>692.4285714285714</ele><time>2026-04-04T11:44:44.998Z</time></trkpt><trkpt lat="50.77637779033246" lon="15.74210449857935"><ele>690.1428571428571</ele><time>2026-04-04T11:44:52.997Z</time></trkpt><trkpt lat="50.77642915961323" lon="15.742176200884998"><ele>687.8571428571429</ele><time>2026-04-04T11:44:58Z</time></trkpt><trkpt lat="50.776469029950896" lon="15.742260796820123"><ele>685.5714285714286</ele><time>2026-04-04T11:45:05Z</time></trkpt><trkpt lat="50.77652184938029" lon="15.74236235460116"><ele>683.2857142857143</ele><time>2026-04-04T11:45:14Z</time></trkpt><trkpt lat="50.77659034402094" lon="15.742327909319712"><ele>681.0</ele><time>2026-04-04T11:45:25.999Z</time></trkpt><trkpt lat="50.77664984373957" lon="15.742201566414497"><ele>681.0000000000001</ele><time>2026-04-04T11:45:29.999Z</time></trkpt><trkpt lat="50.776672291617864" lon="15.742104054568136"><ele>681.0</ele><time>2026-04-04T11:45:40.999Z</time></trkpt><trkpt lat="50.776724984749706" lon="15.742045981111419"><ele>681.0</ele><time>2026-04-04T11:45:46.999Z</time></trkpt><trkpt lat="50.776789227201725" lon="15.742029499923333"><ele>681.0</ele><time>2026-04-04T11:45:52.999Z</time></trkpt><trkpt lat="50.77686438275054" lon="15.742055861559942"><ele>681.0</ele><time>2026-04-04T11:45:59.999Z</time></trkpt><trkpt lat="50.77693062514104" lon="15.742096465443947"><ele>681.0000000000001</ele><time>2026-04-04T11:46:06.999Z</time></trkpt><trkpt lat="50.77698215017888" lon="15.742173028134196"><ele>681.0</ele><time>2026-04-04T11:46:12.999Z</time></trkpt><trkpt lat="50.77703664658852" lon="15.74223864307453"><ele>681.2857142857143</ele><time>2026-04-04T11:46:18.998Z</time></trkpt><trkpt lat="50.77708822041875" lon="15.742301093490235"><ele>681.5714285714286</ele><time>2026-04-04T11:46:24.998Z</time></trkpt><trkpt lat="50.77713857624456" lon="15.742372629657973"><ele>681.8571428571429</ele><time>2026-04-04T11:46:30.998Z</time></trkpt><trkpt lat="50.777163862957266" lon="15.742480559957123"><ele>682.1428571428571</ele><time>2026-04-04T11:46:36.998Z</time></trkpt><trkpt lat="50.7771769582786" lon="15.742581675008903"><ele>682.4285714285714</ele><time>2026-04-04T11:46:41.998Z</time></trkpt><trkpt lat="50.77720227066158" lon="15.742682831701266"><ele>682.7142857142858</ele><time>2026-04-04T11:46:48.998Z</time></trkpt><trkpt lat="50.77720035619629" lon="15.742787355927248"><ele>683.0</ele><time>2026-04-04T11:46:55.998Z</time></trkpt><trkpt lat="50.777174857460174" lon="15.742879716059338"><ele>681.8571428571429</ele><time>2026-04-04T11:47:00.998Z</time></trkpt><trkpt lat="50.777146387632655" lon="15.742984146035571"><ele>680.7142857142857</ele><time>2026-04-04T11:47:07Z</time></trkpt><trkpt lat="50.77717038045481" lon="15.743079588592254"><ele>679.5714285714286</ele><time>2026-04-04T11:47:13Z</time></trkpt><trkpt lat="50.777172619390306" lon="15.74318879910205"><ele>678.4285714285714</ele><time>2026-04-04T11:47:19Z</time></trkpt><trkpt lat="50.777190233674176" lon="15.74329131287272"><ele>677.2857142857143</ele><time>2026-04-04T11:47:25Z</time></trkpt><trkpt lat="50.777230465470716" lon="15.743396961676597"><ele>676.1428571428571</ele><time>2026-04-04T11:47:30.999Z</time></trkpt><trkpt lat="50.77725741231243" lon="15.743505448538517"><ele>675.0</ele><time>2026-04-04T11:47:35.999Z</time></trkpt><trkpt lat="50.77728972657343" lon="15.74360229039686"><ele>674.1428571428571</ele><time>2026-04-04T11:47:41.999Z</time></trkpt><trkpt lat="50.77730963319359" lon="15.743701318130585"><ele>673.2857142857143</ele><time>2026-04-04T11:47:47.999Z</time></trkpt><trkpt lat="50.777327522035634" lon="15.743816739668842"><ele>672.4285714285714</ele><time>2026-04-04T11:47:55.999Z</time></trkpt><trkpt lat="50.77730310757286" lon="15.743720580187453"><ele>671.5714285714286</ele><time>2026-04-04T11:51:13.998Z</time></trkpt><trkpt lat="50.77736271513947" lon="15.743791100177324"><ele>670.7142857142857</ele><time>2026-04-04T11:51:20Z</time></trkpt><trkpt lat="50.777426294901105" lon="15.74383697812656"><ele>669.8571428571429</ele><time>2026-04-04T11:51:27Z</time></trkpt><trkpt lat="50.77748967526401" lon="15.743859112585744"><ele>669.0</ele><time>2026-04-04T11:51:34Z</time></trkpt><trkpt lat="50.77755426842809" lon="15.743887601754832"><ele>669.0</ele><time>2026-04-04T11:51:42Z</time></trkpt><trkpt lat="50.777608626225216" lon="15.743961774586095"><ele>669.0</ele><time>2026-04-04T11:51:48Z</time></trkpt><trkpt lat="50.777652575271944" lon="15.744040174184716"><ele>669.0</ele><time>2026-04-04T11:51:54.999Z</time></trkpt><trkpt lat="50.7776995471614" lon="15.744110583106835"><ele>669.0</ele><time>2026-04-04T11:52:03.999Z</time></trkpt><trkpt lat="50.777732227491754" lon="15.744212626660484"><ele>669.0</ele><time>2026-04-04T11:52:12.999Z</time></trkpt><trkpt lat="50.777761255843565" lon="15.744317639617938"><ele>669.0</ele><time>2026-04-04T11:52:20.999Z</time></trkpt><trkpt lat="50.77777177919384" lon="15.744417264733853"><ele>669.0</ele><time>2026-04-04T11:52:26.999Z</time></trkpt><trkpt lat="50.777781415132615" lon="15.744524093119557"><ele>669.3333333333334</ele><time>2026-04-04T11:52:32.999Z</time></trkpt><trkpt lat="50.777776487632224" lon="15.744630344056244"><ele>669.6666666666666</ele><time>2026-04-04T11:52:39.999Z</time></trkpt><trkpt lat="50.777771119921645" lon="15.744746541928878"><ele>670.0</ele><time>2026-04-04T11:52:46.998Z</time></trkpt><trkpt lat="50.777679270357744" lon="15.744830480106538"><ele>670.3333333333333</ele><time>2026-04-04T11:52:50.998Z</time></trkpt><trkpt lat="50.777648760388644" lon="15.744921049610491"><ele>670.6666666666666</ele><time>2026-04-04T11:52:56.998Z</time></trkpt><trkpt lat="50.77761019944377" lon="15.745020664789216"><ele>671.0</ele><time>2026-04-04T11:53:04.998Z</time></trkpt><trkpt lat="50.7775765677015" lon="15.74510800060449"><ele>671.0</ele><time>2026-04-04T11:53:11.998Z</time></trkpt><trkpt lat="50.7775487566606" lon="15.745203673416862"><ele>671.0</ele><time>2026-04-04T11:53:22Z</time></trkpt><trkpt lat="50.777584801710645" lon="15.74511267755775"><ele>671.0</ele><time>2026-04-04T11:53:41Z</time></trkpt><trkpt lat="50.77765741117194" lon="15.74507121218838"><ele>671.0</ele><time>2026-04-04T11:54:09.999Z</time></trkpt><trkpt lat="50.77771609981273" lon="15.745109956833307"><ele>671.0</ele><time>2026-04-04T11:54:18.999Z</time></trkpt><trkpt lat="50.777754365084874" lon="15.745196426660213"><ele>671.0</ele><time>2026-04-04T11:54:38.999Z</time></trkpt><trkpt lat="50.77775652211067" lon="15.745302901098734"><ele>671.0</ele><time>2026-04-04T11:54:46.999Z</time></trkpt><trkpt lat="50.777748346802845" lon="15.745409517136638"><ele>676.5714285714286</ele><time>2026-04-04T11:55:30Z</time></trkpt><trkpt lat="50.7778188246239" lon="15.745410631397297"><ele>682.1428571428572</ele><time>2026-04-04T11:55:34Z</time></trkpt><trkpt lat="50.77784732255451" lon="15.745514491535971"><ele>687.7142857142858</ele><time>2026-04-04T11:55:53Z</time></trkpt><trkpt lat="50.77793361851518" lon="15.745517672812111"><ele>693.2857142857142</ele><time>2026-04-04T11:56:11.999Z</time></trkpt><trkpt lat="50.777917681058454" lon="15.745619081784374"><ele>698.8571428571429</ele><time>2026-04-04T11:56:32.999Z</time></trkpt><trkpt lat="50.77795806913033" lon="15.74572273043339"><ele>704.4285714285714</ele><time>2026-04-04T11:56:45.999Z</time></trkpt><trkpt lat="50.77799607496361" lon="15.745820562227857"><ele>710.0</ele><time>2026-04-04T11:56:51.999Z</time></trkpt><trkpt lat="50.77800266766018" lon="15.745936034396092"><ele>711.0</ele><time>2026-04-04T11:57:25.998Z</time></trkpt><trkpt lat="50.77799523026266" lon="15.74604536620332"><ele>712.0</ele><time>2026-04-04T11:57:40Z</time></trkpt><trkpt lat="50.778031970559525" lon="15.746149910060854"><ele>713.0</ele><time>2026-04-04T11:57:50Z</time></trkpt><trkpt lat="50.77811780155851" lon="15.746174662863975"><ele>714.0</ele><time>2026-04-04T11:57:52Z</time></trkpt><trkpt lat="50.77816900961025" lon="15.746251181333863"><ele>715.0</ele><time>2026-04-04T11:58:03Z</time></trkpt><trkpt lat="50.77821825830017" lon="15.746314177096957"><ele>716.0</ele><time>2026-04-04T11:58:10Z</time></trkpt><trkpt lat="50.77828023146128" lon="15.746372176715532"><ele>717.0</ele><time>2026-04-04T11:58:52.999Z</time></trkpt><trkpt lat="50.77834085389713" lon="15.74642077650259"><ele>717.0</ele><time>2026-04-04T11:59:00.998Z</time></trkpt><trkpt lat="50.7784015478035" lon="15.746482138288851"><ele>717.0</ele><time>2026-04-04T11:59:09.998Z</time></trkpt><trkpt lat="50.77846172290204" lon="15.746527715393645"><ele>717.0</ele><time>2026-04-04T11:59:16.998Z</time></trkpt><trkpt lat="50.778527879106875" lon="15.746545826205109"><ele>717.0</ele><time>2026-04-04T11:59:25.998Z</time></trkpt><trkpt lat="50.77859160826842" lon="15.746559348870985"><ele>717.0</ele><time>2026-04-04T11:59:45Z</time></trkpt><trkpt lat="50.77866063312908" lon="15.74661200140715"><ele>717.0</ele><time>2026-04-04T11:59:50Z</time></trkpt><trkpt lat="50.77871471694644" lon="15.746668999869854"><ele>717.0</ele><time>2026-04-04T11:59:56Z</time></trkpt><trkpt lat="50.7787682530432" lon="15.746724128237831"><ele>716.2857142857142</ele><time>2026-04-04T12:00:03Z</time></trkpt><trkpt lat="50.778821032676504" lon="15.746779269523765"><ele>715.5714285714286</ele><time>2026-04-04T12:00:16Z</time></trkpt><trkpt lat="50.77887397769505" lon="15.746839596697164"><ele>714.8571428571429</ele><time>2026-04-04T12:00:23.999Z</time></trkpt><trkpt lat="50.77892628554042" lon="15.746898527766755"><ele>714.1428571428571</ele><time>2026-04-04T12:00:31.999Z</time></trkpt><trkpt lat="50.778979586033614" lon="15.746956995493681"><ele>713.4285714285714</ele><time>2026-04-04T12:00:40.999Z</time></trkpt><trkpt lat="50.77904426551484" lon="15.747005675248792"><ele>712.7142857142857</ele><time>2026-04-04T12:00:49.999Z</time></trkpt><trkpt lat="50.779102604716286" lon="15.747048729072281"><ele>712.0</ele><time>2026-04-04T12:01:12.998Z</time></trkpt><trkpt lat="50.77916096788484" lon="15.747090392362223"><ele>711.4285714285713</ele><time>2026-04-04T12:01:25.998Z</time></trkpt><trkpt lat="50.77922498314378" lon="15.747119709797474"><ele>710.8571428571429</ele><time>2026-04-04T12:01:43.998Z</time></trkpt><trkpt lat="50.77928526855667" lon="15.747176827375778"><ele>710.2857142857142</ele><time>2026-04-04T12:01:56Z</time></trkpt><trkpt lat="50.779347179589124" lon="15.747211648130783"><ele>709.7142857142857</ele><time>2026-04-04T12:02:05Z</time></trkpt><trkpt lat="50.77941714557253" lon="15.747257976832989"><ele>709.1428571428571</ele><time>2026-04-04T12:02:14Z</time></trkpt><trkpt lat="50.779476825145586" lon="15.747291361056648"><ele>708.5714285714286</ele><time>2026-04-04T12:02:23Z</time></trkpt><trkpt lat="50.77953627417707" lon="15.74732753381053"><ele>708.0</ele><time>2026-04-04T12:02:37.999Z</time></trkpt><trkpt lat="50.77959136708245" lon="15.747391321262477"><ele>703.7142857142858</ele><time>2026-04-04T12:03:12.998Z</time></trkpt><trkpt lat="50.77956623803965" lon="15.74729169492794"><ele>699.4285714285713</ele><time>2026-04-04T12:03:47.998Z</time></trkpt><trkpt lat="50.779592253024255" lon="15.747385564756257"><ele>695.1428571428571</ele><time>2026-04-04T12:03:56Z</time></trkpt><trkpt lat="50.77965976538462" lon="15.747372512827246"><ele>690.8571428571429</ele><time>2026-04-04T12:04:30.999Z</time></trkpt><trkpt lat="50.77972088937573" lon="15.74742510818847"><ele>686.5714285714287</ele><time>2026-04-04T12:04:38.999Z</time></trkpt><trkpt lat="50.779781612352515" lon="15.74746755211173"><ele>682.2857142857142</ele><time>2026-04-04T12:04:47.999Z</time></trkpt><trkpt lat="50.77984339472322" lon="15.747515164516381"><ele>678.0</ele><time>2026-04-04T12:04:54.999Z</time></trkpt><trkpt lat="50.77989997601795" lon="15.747573062916418"><ele>678.0</ele><time>2026-04-04T12:05:04.999Z</time></trkpt><trkpt lat="50.77995774927363" lon="15.747616429612624"><ele>678.0</ele><time>2026-04-04T12:05:13.999Z</time></trkpt><trkpt lat="50.780016905109115" lon="15.747658140393725"><ele>678.0</ele><time>2026-04-04T12:05:23.998Z</time></trkpt><trkpt lat="50.78007854923943" lon="15.747707012664254"><ele>678.0</ele><time>2026-04-04T12:05:31.998Z</time></trkpt><trkpt lat="50.78013852470394" lon="15.747752268924748"><ele>678.0</ele><time>2026-04-04T12:05:39.998Z</time></trkpt><trkpt lat="50.78020118853926" lon="15.747783695699871"><ele>678.0</ele><time>2026-04-04T12:05:50.998Z</time></trkpt><trkpt lat="50.78025372408751" lon="15.747838915744682"><ele>678.0</ele><time>2026-04-04T12:05:55.998Z</time></trkpt><trkpt lat="50.780321267748064" lon="15.747889730524685"><ele>675.2857142857142</ele><time>2026-04-04T12:06:03Z</time></trkpt><trkpt lat="50.78037899552808" lon="15.747933184197759"><ele>672.5714285714287</ele><time>2026-04-04T12:06:08Z</time></trkpt><trkpt lat="50.78044287996113" lon="15.747981272195144"><ele>669.8571428571429</ele><time>2026-04-04T12:06:16Z</time></trkpt><trkpt lat="50.78050058696548" lon="15.74802471022914"><ele>667.1428571428571</ele><time>2026-04-04T12:06:23Z</time></trkpt><trkpt lat="50.78056415843079" lon="15.748072279945147"><ele>664.4285714285713</ele><time>2026-04-04T12:06:31Z</time></trkpt><trkpt lat="50.780622665715335" lon="15.74811123946202"><ele>661.7142857142858</ele><time>2026-04-04T12:06:52.999Z</time></trkpt><trkpt lat="50.78068191165673" lon="15.74816116660258"><ele>659.0</ele><time>2026-04-04T12:06:57.999Z</time></trkpt><trkpt lat="50.78074293573097" lon="15.748207347916885"><ele>659.0</ele><time>2026-04-04T12:07:03.999Z</time></trkpt><trkpt lat="50.780802228249456" lon="15.74825033933826"><ele>659.0</ele><time>2026-04-04T12:07:09.999Z</time></trkpt><trkpt lat="50.780864133363686" lon="15.748298692964772"><ele>659.0</ele><time>2026-04-04T12:07:18.998Z</time></trkpt><trkpt lat="50.78093544091908" lon="15.748348300701153"><ele>659.0</ele><time>2026-04-04T12:07:27.998Z</time></trkpt><trkpt lat="50.781001358689615" lon="15.748388189824212"><ele>659.0</ele><time>2026-04-04T12:07:36.998Z</time></trkpt><trkpt lat="50.78106697429161" lon="15.748428471094758"><ele>659.0</ele><time>2026-04-04T12:07:44.998Z</time></trkpt><trkpt lat="50.78113032557938" lon="15.748467341845505"><ele>659.0</ele><time>2026-04-04T12:07:54.998Z</time></trkpt><trkpt lat="50.78119401341447" lon="15.748496990868754"><ele>655.5714285714286</ele><time>2026-04-04T12:08:05Z</time></trkpt><trkpt lat="50.7812541003332" lon="15.748537012474026"><ele>652.1428571428571</ele><time>2026-04-04T12:08:14Z</time></trkpt><trkpt lat="50.78131514660218" lon="15.748563468701867"><ele>648.7142857142857</ele><time>2026-04-04T12:08:23Z</time></trkpt><trkpt lat="50.78137943403462" lon="15.748591456854516"><ele>645.2857142857142</ele><time>2026-04-04T12:08:38.999Z</time></trkpt><trkpt lat="50.78144323848948" lon="15.74861923442386"><ele>641.8571428571429</ele><time>2026-04-04T12:08:47.999Z</time></trkpt><trkpt lat="50.781508383099066" lon="15.748622142729406"><ele>638.4285714285713</ele><time>2026-04-04T12:08:53.999Z</time></trkpt><trkpt lat="50.78157273373452" lon="15.748623239137402"><ele>635.0</ele><time>2026-04-04T12:09:05.999Z</time></trkpt><trkpt lat="50.781615192691575" lon="15.74872351245623"><ele>634.2857142857142</ele><time>2026-04-04T12:09:19.999Z</time></trkpt><trkpt lat="50.78162060064968" lon="15.748841344296663"><ele>633.5714285714286</ele><time>2026-04-04T12:09:20.999Z</time></trkpt><trkpt lat="50.7816291553312" lon="15.748947019832569"><ele>632.8571428571429</ele><time>2026-04-04T12:09:26.998Z</time></trkpt><trkpt lat="50.78165189157243" lon="15.749057446306134"><ele>632.1428571428571</ele><time>2026-04-04T12:09:32.998Z</time></trkpt><trkpt lat="50.78167829118004" lon="15.749161676908637"><ele>631.4285714285714</ele><time>2026-04-04T12:09:38.998Z</time></trkpt><trkpt lat="50.78170874560531" lon="15.749250771056825"><ele>630.7142857142857</ele><time>2026-04-04T12:09:45.998Z</time></trkpt><trkpt lat="50.7817390976996" lon="15.749341238861236"><ele>630.0</ele><time>2026-04-04T12:09:55.998Z</time></trkpt><trkpt lat="50.7817669469362" lon="15.74944339154764"><ele>629.4285714285714</ele><time>2026-04-04T12:10:02.998Z</time></trkpt><trkpt lat="50.781793758912954" lon="15.749548338660002"><ele>628.8571428571429</ele><time>2026-04-04T12:10:08.997Z</time></trkpt><trkpt lat="50.78181803473057" lon="15.749646573945531"><ele>628.2857142857142</ele><time>2026-04-04T12:10:22Z</time></trkpt><trkpt lat="50.78184530225138" lon="15.74973773825057"><ele>627.7142857142858</ele><time>2026-04-04T12:10:32Z</time></trkpt><trkpt lat="50.78186921593422" lon="15.749847266432406"><ele>627.1428571428571</ele><time>2026-04-04T12:10:39Z</time></trkpt><trkpt lat="50.78188175095755" lon="15.749953894820612"><ele>626.5714285714286</ele><time>2026-04-04T12:10:44.999Z</time></trkpt><trkpt lat="50.78190538913411" lon="15.750060645749526"><ele>626.0</ele><time>2026-04-04T12:10:51.999Z</time></trkpt><trkpt lat="50.781928568018195" lon="15.750154926560562"><ele>624.7142857142857</ele><time>2026-04-04T12:10:57.999Z</time></trkpt><trkpt lat="50.78195215297239" lon="15.750248415058167"><ele>623.4285714285714</ele><time>2026-04-04T12:11:03.999Z</time></trkpt><trkpt lat="50.7819693412469" lon="15.750349666745642"><ele>622.1428571428571</ele><time>2026-04-04T12:11:09.999Z</time></trkpt><trkpt lat="50.782000457397785" lon="15.750452790968705"><ele>620.8571428571429</ele><time>2026-04-04T12:11:16.999Z</time></trkpt><trkpt lat="50.782007087083684" lon="15.750557165995017"><ele>619.5714285714286</ele><time>2026-04-04T12:11:22.999Z</time></trkpt><trkpt lat="50.782004646620784" lon="15.750676932508062"><ele>618.2857142857143</ele><time>2026-04-04T12:11:30.998Z</time></trkpt><trkpt lat="50.781999946786435" lon="15.750787935713369"><ele>617.0</ele><time>2026-04-04T12:11:36.998Z</time></trkpt><trkpt lat="50.7820004771988" lon="15.750891077948562"><ele>617.0</ele><time>2026-04-04T12:11:42.998Z</time></trkpt><trkpt lat="50.78196415931358" lon="15.750977816030531"><ele>617.0</ele><time>2026-04-04T12:11:48.998Z</time></trkpt><trkpt lat="50.781919448810385" lon="15.75090660636876"><ele>617.0</ele><time>2026-04-04T12:11:58.998Z</time></trkpt><trkpt lat="50.7818710631334" lon="15.750841439349479"><ele>617.0</ele><time>2026-04-04T12:12:02.998Z</time></trkpt><trkpt lat="50.78180614445415" lon="15.750792471141182"><ele>617.0</ele><time>2026-04-04T12:12:18Z</time></trkpt><trkpt lat="50.78173706220004" lon="15.750743669324972"><ele>617.0</ele><time>2026-04-04T12:12:26Z</time></trkpt><trkpt lat="50.78167127342546" lon="15.750693866568662"><ele>617.0</ele><time>2026-04-04T12:12:34Z</time></trkpt><trkpt lat="50.78160787306051" lon="15.75064519690584"><ele>617.8571428571429</ele><time>2026-04-04T12:12:53.999Z</time></trkpt><trkpt lat="50.781549742238546" lon="15.750699411880914"><ele>618.7142857142857</ele><time>2026-04-04T12:13:16.999Z</time></trkpt><trkpt lat="50.78148268539442" lon="15.750702851993507"><ele>619.5714285714286</ele><time>2026-04-04T12:13:23.999Z</time></trkpt><trkpt lat="50.78143788088889" lon="15.750785646494608"><ele>620.4285714285714</ele><time>2026-04-04T12:13:32.999Z</time></trkpt><trkpt lat="50.781377098724285" lon="15.750744055530548"><ele>621.2857142857142</ele><time>2026-04-04T12:13:41.998Z</time></trkpt><trkpt lat="50.78130642650121" lon="15.750740008738717"><ele>622.1428571428571</ele><time>2026-04-04T12:13:48.998Z</time></trkpt><trkpt lat="50.781260704189286" lon="15.750827261987304"><ele>623.0</ele><time>2026-04-04T12:13:54.998Z</time></trkpt><trkpt lat="50.7812161097328" lon="15.750924135939922"><ele>623.0</ele><time>2026-04-04T12:14:01.998Z</time></trkpt><trkpt lat="50.78117506474038" lon="15.751014030585976"><ele>623.0</ele><time>2026-04-04T12:14:09.998Z</time></trkpt><trkpt lat="50.78113395171348" lon="15.75109078818178"><ele>623.0</ele><time>2026-04-04T12:14:15.998Z</time></trkpt><trkpt lat="50.78108627778847" lon="15.751166541918293"><ele>623.0</ele><time>2026-04-04T12:14:23Z</time></trkpt><trkpt lat="50.78103142676478" lon="15.751239329427372"><ele>623.0</ele><time>2026-04-04T12:14:30Z</time></trkpt><trkpt lat="50.78096807508242" lon="15.751293059340993"><ele>623.0</ele><time>2026-04-04T12:14:37Z</time></trkpt><trkpt lat="50.78090531912064" lon="15.751302023723383"><ele>623.0</ele><time>2026-04-04T12:14:45Z</time></trkpt><trkpt lat="50.78085171335194" lon="15.751244521168688"><ele>624.1428571428571</ele><time>2026-04-04T12:14:56Z</time></trkpt><trkpt lat="50.780843513873414" lon="15.75114487158548"><ele>625.2857142857142</ele><time>2026-04-04T12:15:05.999Z</time></trkpt><trkpt lat="50.78084139417301" lon="15.751038129211288"><ele>626.4285714285714</ele><time>2026-04-04T12:15:12.999Z</time></trkpt><trkpt lat="50.78084559230859" lon="15.750929652319279"><ele>627.5714285714286</ele><time>2026-04-04T12:15:21.999Z</time></trkpt><trkpt lat="50.78088637708118" lon="15.750831667812642"><ele>628.7142857142857</ele><time>2026-04-04T12:15:37.999Z</time></trkpt><trkpt lat="50.78093930916891" lon="15.750770861450835"><ele>629.8571428571429</ele><time>2026-04-04T12:15:41.998Z</time></trkpt><trkpt lat="50.78099359648402" lon="15.750839411318218"><ele>631.0</ele><time>2026-04-04T12:16:28Z</time></trkpt><trkpt lat="50.78091336008065" lon="15.750822177864203"><ele>629.4</ele><time>2026-04-04T12:16:50Z</time></trkpt><trkpt lat="50.78102328152454" lon="15.750709199824758"><ele>627.8</ele><time>2026-04-04T12:17:16.999Z</time></trkpt><trkpt lat="50.78093233234084" lon="15.750898943072176"><ele>626.1999999999999</ele><time>2026-04-04T12:18:07.998Z</time></trkpt><trkpt lat="50.78086259237272" lon="15.750909701815038"><ele>624.6</ele><time>2026-04-04T12:18:11.998Z</time></trkpt><trkpt lat="50.78092720223165" lon="15.750926015365193"><ele>623.0</ele><time>2026-04-04T12:18:23.998Z</time></trkpt><trkpt lat="50.781059843014646" lon="15.750887208384878"><ele>623.0</ele><time>2026-04-04T12:39:51Z</time></trkpt></trkseg></trk></gpx>